Time,TemperatureF,DewpointF,PressureIn,WindDirection,WindDirectionDegrees,WindSpeedMPH,WindSpeedGustMPH,Humidity,HourlyPrecipIn,Conditions,Clouds,dailyrainin,SoftwareType,DateUTC
2013-02-02 00:00:00,33.2,16.6,29.88,NE,38,0.0,5.0,50,0.00,,---,0.01,VWS V14.01,2013-02-02 05:00:00,
2013-02-02 00:01:00,33.2,16.6,29.88,NE,39,1.0,1.0,50,0.00,,---,0.00,VWS V14.01,2013-02-02 05:01:00,
2013-02-02 00:02:00,33.2,16.6,29.87,NE,39,0.0,1.0,50,0.00,,---,0.00,VWS V14.01,2013-02-02 05:02:00,
2013-02-02 00:03:00,33.2,17.0,29.87,NE,39,1.0,1.0,51,0.00,,---,0.00,VWS V14.01,2013-02-02 05:03:00,
2013-02-02 00:04:00,33.1,17.0,29.88,NE,39,0.0,1.0,51,0.00,,---,0.00,VWS V14.01,2013-02-02 05:04:00,
2013-02-02 00:05:00,33.1,16.5,29.88,NE,39,0.0,2.0,50,0.00,,---,0.00,VWS V14.01,2013-02-02 05:05:00,
2013-02-02 00:06:00,33.1,17.0,29.87,NE,39,0.0,2.0,51,0.00,,---,0.00,VWS V14.01,2013-02-02 05:06:00,
2013-02-02 00:07:00,33.1,16.5,29.88,East,88,0.0,2.0,50,0.00,,---,0.00,VWS V14.01,2013-02-02 05:07:00,
2013-02-02 00:08:00,33.0,16.9,29.87,NW,305,0.0,5.0,51,0.00,,---,0.00,VWS V14.01,2013-02-02 05:08:00,
2013-02-02 00:09:00,33.0,16.9,29.87,NNE,23,4.0,5.0,51,0.00,,---,0.00,VWS V14.01,2013-02-02 05:09:00,
2013-02-02 00:10:00,33.0,16.4,29.87,NNE,32,0.0,5.0,50,0.00,,---,0.00,VWS V14.01,2013-02-02 05:10:00,
2013-02-02 00:11:00,33.0,16.4,29.87,NNE,32,0.0,5.0,50,0.00,,---,0.00,VWS V14.01,2013-02-02 05:11:00,
2013-02-02 00:12:00,33.0,16.4,29.87,East,89,3.0,5.0,50,0.00,,---,0.00,VWS V14.01,2013-02-02 05:12:00,
2013-02-02 00:13:00,33.1,16.5,29.87,NE,55,2.0,6.0,50,0.00,,---,0.00,VWS V14.01,2013-02-02 05:13:00,
2013-02-02 00:14:00,33.1,16.5,29.87,NE,55,0.0,6.0,50,0.00,,---,0.00,VWS V14.01,2013-02-02 05:14:00,
2013-02-02 00:15:00,33.1,16.5,29.87,NE,55,0.0,6.0,50,0.00,,---,0.00,VWS V14.01,2013-02-02 05:15:00,
2013-02-02 00:16:00,33.1,16.5,29.87,NE,54,0.0,6.0,50,0.00,,---,0.00,VWS V14.01,2013-02-02 05:16:00,
2013-02-02 00:17:00,33.1,16.5,29.87,NE,54,1.0,6.0,50,0.00,,---,0.00,VWS V14.01,2013-02-02 05:17:00,
2013-02-02 00:18:00,33.1,16.0,29.87,NE,54,0.0,6.0,49,0.00,,---,0.00,VWS V14.01,2013-02-02 05:18:00,
2013-02-02 00:19:00,33.2,16.1,29.88,ENE,57,1.0,6.0,49,0.00,,---,0.00,VWS V14.01,2013-02-02 05:19:00,
2013-02-02 00:20:00,33.2,16.1,29.88,ENE,57,0.0,6.0,49,0.00,,---,0.00,VWS V14.01,2013-02-02 05:20:00,
2013-02-02 00:21:00,33.2,16.1,29.88,ENE,57,0.0,6.0,49,0.00,,---,0.00,VWS V14.01,2013-02-02 05:21:00,
2013-02-02 00:22:00,33.2,16.1,29.88,ENE,57,1.0,6.0,49,0.00,,---,0.00,VWS V14.01,2013-02-02 05:22:00,
2013-02-02 00:23:00,33.2,16.1,29.88,ENE,57,0.0,6.0,49,0.00,,---,0.00,VWS V14.01,2013-02-02 05:23:00,
2013-02-02 00:24:00,33.1,16.0,29.88,North,5,0.0,6.0,49,0.00,,---,0.00,VWS V14.01,2013-02-02 05:24:00,
2013-02-02 00:25:00,33.1,16.0,29.88,NNE,14,0.0,6.0,49,0.00,,---,0.00,VWS V14.01,2013-02-02 05:25:00,
2013-02-02 00:26:00,33.1,16.0,29.88,NNE,14,2.0,6.0,49,0.00,,---,0.00,VWS V14.01,2013-02-02 05:26:00,
2013-02-02 00:27:00,33.1,16.0,29.88,NE,44,2.0,6.0,49,0.00,,---,0.00,VWS V14.01,2013-02-02 05:27:00,
2013-02-02 00:28:00,33.1,16.0,29.88,NE,44,1.0,6.0,49,0.00,,---,0.00,VWS V14.01,2013-02-02 05:28:00,
2013-02-02 00:29:00,33.0,15.9,29.88,NE,43,3.0,6.0,49,0.00,,---,0.00,VWS V14.01,2013-02-02 05:29:00,
2013-02-02 00:30:00,33.0,15.9,29.88,NE,43,1.0,6.0,49,0.00,,---,0.00,VWS V14.01,2013-02-02 05:30:00,
2013-02-02 00:31:00,33.0,15.9,29.88,NE,43,0.0,2.0,49,0.00,,---,0.00,VWS V14.01,2013-02-02 05:31:00,
2013-02-02 00:32:00,33.0,15.9,29.88,ENE,67,0.0,2.0,49,0.00,,---,0.00,VWS V14.01,2013-02-02 05:32:00,
2013-02-02 00:33:00,33.0,15.9,29.88,ENE,60,1.0,2.0,49,0.00,,---,0.00,VWS V14.01,2013-02-02 05:33:00,
2013-02-02 00:34:00,33.0,15.9,29.88,ENE,60,0.0,2.0,49,0.00,,---,0.00,VWS V14.01,2013-02-02 05:34:00,
2013-02-02 00:35:00,33.0,16.4,29.88,ENE,60,1.0,2.0,50,0.00,,---,0.00,VWS V14.01,2013-02-02 05:35:00,
2013-02-02 00:36:00,32.9,15.9,29.88,ENE,60,1.0,2.0,49,0.00,,---,0.00,VWS V14.01,2013-02-02 05:36:00,
2013-02-02 00:37:00,32.9,15.9,29.88,ENE,59,2.0,2.0,49,0.00,,---,0.00,VWS V14.01,2013-02-02 05:37:00,
2013-02-02 00:38:00,32.9,15.9,29.88,NE,42,0.0,3.0,49,0.00,,---,0.00,VWS V14.01,2013-02-02 05:38:00,
2013-02-02 00:39:00,32.9,15.9,29.88,NE,41,2.0,3.0,49,0.00,,---,0.00,VWS V14.01,2013-02-02 05:39:00,
2013-02-02 00:40:00,33.0,15.9,29.88,ENE,59,1.0,4.0,49,0.00,,---,0.00,VWS V14.01,2013-02-02 05:40:00,
2013-02-02 00:41:00,33.0,15.9,29.88,NNE,32,1.0,5.0,49,0.00,,---,0.00,VWS V14.01,2013-02-02 05:41:00,
2013-02-02 00:42:00,33.0,15.9,29.88,NNE,32,1.0,5.0,49,0.00,,---,0.00,VWS V14.01,2013-02-02 05:42:00,
2013-02-02 00:43:00,33.0,15.9,29.88,NE,39,0.0,5.0,49,0.00,,---,0.00,VWS V14.01,2013-02-02 05:43:00,
2013-02-02 00:44:00,33.0,15.9,29.88,NE,39,1.0,5.0,49,0.00,,---,0.00,VWS V14.01,2013-02-02 05:44:00,
2013-02-02 00:45:00,32.9,16.3,29.88,NE,37,2.0,5.0,50,0.00,,---,0.00,VWS V14.01,2013-02-02 05:45:00,
2013-02-02 00:46:00,32.8,16.2,29.88,North,5,2.0,5.0,50,0.00,,---,0.00,VWS V14.01,2013-02-02 05:46:00,
2013-02-02 00:47:00,32.8,16.2,29.88,NNE,19,1.0,5.0,50,0.00,,---,0.00,VWS V14.01,2013-02-02 05:47:00,
2013-02-02 00:48:00,32.8,16.2,29.88,NNE,26,1.0,5.0,50,0.00,,---,0.00,VWS V14.01,2013-02-02 05:48:00,
2013-02-02 00:49:00,32.8,16.2,29.88,NNE,26,1.0,5.0,50,0.00,,---,0.00,VWS V14.01,2013-02-02 05:49:00,
2013-02-02 00:50:00,32.8,16.2,29.88,NE,44,3.0,5.0,50,0.00,,---,0.00,VWS V14.01,2013-02-02 05:50:00,
2013-02-02 00:51:00,32.8,16.2,29.88,North,355,1.0,5.0,50,0.00,,---,0.00,VWS V14.01,2013-02-02 05:51:00,
2013-02-02 00:52:00,32.8,16.2,29.88,North,355,2.0,5.0,50,0.00,,---,0.00,VWS V14.01,2013-02-02 05:52:00,
2013-02-02 00:53:00,32.8,16.2,29.88,NNE,24,1.0,5.0,50,0.00,,---,0.00,VWS V14.01,2013-02-02 05:53:00,
2013-02-02 00:54:00,32.8,15.8,29.88,NNE,24,0.0,5.0,49,0.00,,---,0.00,VWS V14.01,2013-02-02 05:54:00,
2013-02-02 00:55:00,32.8,16.2,29.88,NNE,24,0.0,5.0,50,0.00,,---,0.00,VWS V14.01,2013-02-02 05:55:00,
2013-02-02 00:56:00,32.8,16.2,29.88,NNE,24,1.0,5.0,50,0.00,,---,0.00,VWS V14.01,2013-02-02 05:56:00,
2013-02-02 00:57:00,32.8,16.2,29.88,NNE,24,2.0,5.0,50,0.00,,---,0.00,VWS V14.01,2013-02-02 05:57:00,
2013-02-02 00:58:00,32.8,16.2,29.88,NNE,18,3.0,5.0,50,0.00,,---,0.00,VWS V14.01,2013-02-02 05:58:00,
2013-02-02 00:59:00,32.8,15.8,29.88,NNE,18,2.0,5.0,49,0.00,,---,0.00,VWS V14.01,2013-02-02 05:59:00,
2013-02-02 01:00:00,32.9,15.9,29.88,North,5,2.0,5.0,49,0.00,,---,0.00,VWS V14.01,2013-02-02 06:00:00,
2013-02-02 01:01:00,32.8,16.2,29.88,North,5,1.0,2.0,50,0.00,,---,0.00,VWS V14.01,2013-02-02 06:01:00,
2013-02-02 01:02:00,32.8,16.2,29.88,North,360,2.0,5.0,50,0.00,,---,0.00,VWS V14.01,2013-02-02 06:02:00,
2013-02-02 01:03:00,32.8,16.2,29.88,North,10,4.0,5.0,50,0.00,,---,0.00,VWS V14.01,2013-02-02 06:03:00,
2013-02-02 01:04:00,32.8,15.8,29.88,NNE,16,1.0,5.0,49,0.00,,---,0.00,VWS V14.01,2013-02-02 06:04:00,
2013-02-02 01:05:00,32.8,16.2,29.88,NNE,13,4.0,5.0,50,0.00,,---,0.00,VWS V14.01,2013-02-02 06:05:00,
2013-02-02 01:06:00,32.8,16.2,29.88,NE,53,1.0,5.0,50,0.00,,---,0.00,VWS V14.01,2013-02-02 06:06:00,
2013-02-02 01:07:00,32.7,16.1,29.88,NE,40,1.0,5.0,50,0.00,,---,0.00,VWS V14.01,2013-02-02 06:07:00,
2013-02-02 01:08:00,32.7,16.1,29.88,NE,40,1.0,5.0,50,0.00,,---,0.00,VWS V14.01,2013-02-02 06:08:00,
2013-02-02 01:09:00,32.6,16.0,29.88,NE,40,0.0,5.0,50,0.00,,---,0.00,VWS V14.01,2013-02-02 06:09:00,
2013-02-02 01:10:00,32.6,16.5,29.88,NE,40,1.0,5.0,51,0.00,,---,0.00,VWS V14.01,2013-02-02 06:10:00,
2013-02-02 01:11:00,32.6,16.5,29.88,NE,38,2.0,5.0,51,0.00,,---,0.00,VWS V14.01,2013-02-02 06:11:00,
2013-02-02 01:12:00,32.6,16.5,29.88,ENE,69,1.0,5.0,51,0.00,,---,0.00,VWS V14.01,2013-02-02 06:12:00,
2013-02-02 01:13:00,32.5,16.4,29.88,ENE,69,1.0,5.0,51,0.00,,---,0.00,VWS V14.01,2013-02-02 06:13:00,
2013-02-02 01:14:00,32.5,16.4,29.88,ENE,69,0.0,5.0,51,0.00,,---,0.00,VWS V14.01,2013-02-02 06:14:00,
2013-02-02 01:15:00,32.5,16.4,29.88,ENE,69,1.0,5.0,51,0.00,,---,0.00,VWS V14.01,2013-02-02 06:15:00,
2013-02-02 01:16:00,32.5,16.4,29.88,ENE,69,1.0,5.0,51,0.00,,---,0.00,VWS V14.01,2013-02-02 06:16:00,
2013-02-02 01:17:00,32.5,16.4,29.88,ENE,69,1.0,5.0,51,0.00,,---,0.00,VWS V14.01,2013-02-02 06:17:00,
2013-02-02 01:18:00,32.4,16.8,29.88,NNE,15,4.0,5.0,52,0.00,,---,0.00,VWS V14.01,2013-02-02 06:18:00,
2013-02-02 01:19:00,32.4,16.3,29.88,NNE,22,2.0,5.0,51,0.00,,---,0.00,VWS V14.01,2013-02-02 06:19:00,
2013-02-02 01:20:00,32.4,16.3,29.88,NNE,24,1.0,5.0,51,0.00,,---,0.00,VWS V14.01,2013-02-02 06:20:00,
2013-02-02 01:21:00,32.4,16.3,29.88,NNE,24,1.0,5.0,51,0.00,,---,0.00,VWS V14.01,2013-02-02 06:21:00,
2013-02-02 01:22:00,32.4,16.3,29.88,NNE,24,0.0,5.0,51,0.00,,---,0.00,VWS V14.01,2013-02-02 06:22:00,
2013-02-02 01:23:00,32.4,16.8,29.88,NNE,24,1.0,5.0,52,0.00,,---,0.00,VWS V14.01,2013-02-02 06:23:00,
2013-02-02 01:24:00,32.3,16.7,29.88,NNE,26,2.0,5.0,52,0.00,,---,0.00,VWS V14.01,2013-02-02 06:24:00,
2013-02-02 01:25:00,32.3,16.7,29.88,NNE,26,1.0,5.0,52,0.00,,---,0.00,VWS V14.01,2013-02-02 06:25:00,
2013-02-02 01:26:00,32.3,16.7,29.88,NNE,26,3.0,5.0,52,0.00,,---,0.00,VWS V14.01,2013-02-02 06:26:00,
2013-02-02 01:27:00,32.3,16.7,29.88,NNE,26,0.0,5.0,52,0.00,,---,0.00,VWS V14.01,2013-02-02 06:27:00,
2013-02-02 01:28:00,32.2,16.6,29.88,NNE,26,0.0,5.0,52,0.00,,---,0.00,VWS V14.01,2013-02-02 06:28:00,
2013-02-02 01:29:00,32.2,16.6,29.88,NNE,26,0.0,5.0,52,0.00,,---,0.00,VWS V14.01,2013-02-02 06:29:00,
2013-02-02 01:30:00,32.1,16.5,29.88,NNE,26,2.0,5.0,52,0.00,,---,0.00,VWS V14.01,2013-02-02 06:30:00,
2013-02-02 01:31:00,32.1,16.5,29.88,NNE,26,0.0,2.0,52,0.00,,---,0.00,VWS V14.01,2013-02-02 06:31:00,
2013-02-02 01:32:00,32.1,16.9,29.88,NNE,26,0.0,2.0,53,0.00,,---,0.00,VWS V14.01,2013-02-02 06:32:00,
2013-02-02 01:33:00,32.0,16.8,29.88,NNE,26,0.0,2.0,53,0.00,,---,0.00,VWS V14.01,2013-02-02 06:33:00,
2013-02-02 01:34:00,31.9,16.7,29.88,NNE,26,1.0,2.0,53,0.00,,---,0.00,VWS V14.01,2013-02-02 06:34:00,
2013-02-02 01:35:00,31.9,16.7,29.88,NNE,28,0.0,2.0,53,0.00,,---,0.00,VWS V14.01,2013-02-02 06:35:00,
2013-02-02 01:36:00,31.9,17.2,29.88,NNE,28,0.0,2.0,54,0.00,,---,0.00,VWS V14.01,2013-02-02 06:36:00,
2013-02-02 01:37:00,31.8,17.1,29.88,NNE,28,0.0,2.0,54,0.00,,---,0.00,VWS V14.01,2013-02-02 06:37:00,
2013-02-02 01:38:00,31.7,17.0,29.88,NNE,28,0.0,2.0,54,0.00,,---,0.00,VWS V14.01,2013-02-02 06:38:00,
2013-02-02 01:39:00,31.7,17.0,29.88,NNE,28,0.0,2.0,54,0.00,,---,0.00,VWS V14.01,2013-02-02 06:39:00,
2013-02-02 01:40:00,31.7,17.0,29.88,NNE,28,1.0,2.0,54,0.00,,---,0.00,VWS V14.01,2013-02-02 06:40:00,
2013-02-02 01:41:00,31.7,17.0,29.88,NNE,28,0.0,2.0,54,0.00,,---,0.00,VWS V14.01,2013-02-02 06:41:00,
2013-02-02 01:42:00,31.7,17.0,29.88,NNE,28,0.0,2.0,54,0.00,,---,0.00,VWS V14.01,2013-02-02 06:42:00,
2013-02-02 01:43:00,31.6,16.9,29.88,NNE,28,0.0,2.0,54,0.00,,---,0.00,VWS V14.01,2013-02-02 06:43:00,
2013-02-02 01:44:00,31.5,17.2,29.88,NNE,28,0.0,2.0,55,0.00,,---,0.00,VWS V14.01,2013-02-02 06:44:00,
2013-02-02 01:45:00,31.5,17.2,29.88,NNE,28,0.0,2.0,55,0.00,,---,0.00,VWS V14.01,2013-02-02 06:45:00,
2013-02-02 01:46:00,31.5,17.2,29.88,NNE,28,0.0,2.0,55,0.00,,---,0.00,VWS V14.01,2013-02-02 06:46:00,
2013-02-02 01:47:00,31.4,17.5,29.88,NNE,28,0.0,2.0,56,0.00,,---,0.00,VWS V14.01,2013-02-02 06:47:00,
2013-02-02 01:48:00,31.3,17.4,29.88,NNE,28,0.0,2.0,56,0.00,,---,0.00,VWS V14.01,2013-02-02 06:48:00,
2013-02-02 01:49:00,31.3,17.4,29.88,NNE,28,0.0,2.0,56,0.00,,---,0.00,VWS V14.01,2013-02-02 06:49:00,
2013-02-02 01:50:00,31.2,17.3,29.88,NNE,28,0.0,2.0,56,0.00,,---,0.00,VWS V14.01,2013-02-02 06:50:00,
2013-02-02 01:51:00,31.1,17.7,29.88,NNE,28,0.0,2.0,57,0.00,,---,0.00,VWS V14.01,2013-02-02 06:51:00,
2013-02-02 01:52:00,31.1,18.1,29.88,NNE,28,0.0,2.0,58,0.00,,---,0.00,VWS V14.01,2013-02-02 06:52:00,
2013-02-02 01:53:00,31.1,17.7,29.88,NNE,28,0.0,2.0,57,0.00,,---,0.00,VWS V14.01,2013-02-02 06:53:00,
2013-02-02 01:54:00,31.0,18.0,29.88,NNE,28,0.0,2.0,58,0.00,,---,0.00,VWS V14.01,2013-02-02 06:54:00,
2013-02-02 01:55:00,31.0,17.6,29.88,NNE,28,0.0,2.0,57,0.00,,---,0.00,VWS V14.01,2013-02-02 06:55:00,
2013-02-02 01:56:00,31.0,18.0,29.88,NNE,28,0.0,2.0,58,0.00,,---,0.00,VWS V14.01,2013-02-02 06:56:00,
2013-02-02 01:57:00,31.0,18.0,29.88,NNE,28,0.0,2.0,58,0.00,,---,0.00,VWS V14.01,2013-02-02 06:57:00,
2013-02-02 01:58:00,30.9,17.9,29.88,NNE,28,0.0,2.0,58,0.00,,---,0.00,VWS V14.01,2013-02-02 06:58:00,
2013-02-02 01:59:00,30.9,17.5,29.88,NNE,28,1.0,2.0,57,0.00,,---,0.00,VWS V14.01,2013-02-02 06:59:00,
2013-02-02 02:00:00,31.0,17.6,29.88,NNE,28,1.0,2.0,57,0.00,,---,0.00,VWS V14.01,2013-02-02 07:00:00,
2013-02-02 02:01:00,31.0,17.6,29.88,NNE,28,0.0,1.0,57,0.00,,---,0.00,VWS V14.01,2013-02-02 07:01:00,
2013-02-02 02:02:00,31.1,17.7,29.88,NNE,28,0.0,1.0,57,0.00,,---,0.00,VWS V14.01,2013-02-02 07:02:00,
2013-02-02 02:03:00,31.1,17.7,29.88,NNE,28,0.0,1.0,57,0.00,,---,0.00,VWS V14.01,2013-02-02 07:03:00,
2013-02-02 02:04:00,31.0,17.6,29.88,NNE,28,0.0,3.0,57,0.00,,---,0.00,VWS V14.01,2013-02-02 07:04:00,
2013-02-02 02:05:00,31.0,17.6,29.88,NNE,28,1.0,3.0,57,0.00,,---,0.00,VWS V14.01,2013-02-02 07:05:00,
2013-02-02 02:06:00,31.0,17.6,29.88,NNE,28,0.0,3.0,57,0.00,,---,0.00,VWS V14.01,2013-02-02 07:06:00,
2013-02-02 02:07:00,31.0,17.6,29.88,NNE,28,0.0,3.0,57,0.00,,---,0.00,VWS V14.01,2013-02-02 07:07:00,
2013-02-02 02:08:00,31.0,17.6,29.88,NNE,28,1.0,3.0,57,0.00,,---,0.00,VWS V14.01,2013-02-02 07:08:00,
2013-02-02 02:09:00,30.9,17.5,29.88,NNE,28,0.0,3.0,57,0.00,,---,0.00,VWS V14.01,2013-02-02 07:09:00,
2013-02-02 02:10:00,30.9,17.9,29.88,NNE,28,1.0,3.0,58,0.00,,---,0.00,VWS V14.01,2013-02-02 07:10:00,
2013-02-02 02:11:00,30.8,17.4,29.88,NNE,28,1.0,3.0,57,0.00,,---,0.00,VWS V14.01,2013-02-02 07:11:00,
2013-02-02 02:12:00,30.8,17.4,29.88,NNE,28,0.0,3.0,57,0.00,,---,0.00,VWS V14.01,2013-02-02 07:12:00,
2013-02-02 02:13:00,30.6,18.0,29.88,NNE,28,0.0,3.0,59,0.00,,---,0.00,VWS V14.01,2013-02-02 07:13:00,
2013-02-02 02:14:00,30.6,18.0,29.88,NNE,28,0.0,3.0,59,0.00,,---,0.00,VWS V14.01,2013-02-02 07:14:00,
2013-02-02 02:15:00,30.5,18.7,29.87,NNE,28,0.0,3.0,61,0.00,,---,0.00,VWS V14.01,2013-02-02 07:15:00,
2013-02-02 02:16:00,30.3,18.5,29.88,NNE,28,0.0,3.0,61,0.00,,---,0.00,VWS V14.01,2013-02-02 07:16:00,
2013-02-02 02:17:00,30.1,18.7,29.87,NNE,28,0.0,3.0,62,0.00,,---,0.00,VWS V14.01,2013-02-02 07:17:00,
2013-02-02 02:18:00,29.9,18.9,29.88,NNE,28,0.0,3.0,63,0.00,,---,0.00,VWS V14.01,2013-02-02 07:18:00,
2013-02-02 02:19:00,29.8,18.8,29.88,NNE,28,0.0,3.0,63,0.00,,---,0.00,VWS V14.01,2013-02-02 07:19:00,
2013-02-02 02:20:00,29.7,18.7,29.88,NNE,28,0.0,3.0,63,0.00,,---,0.00,VWS V14.01,2013-02-02 07:20:00,
2013-02-02 02:21:00,29.7,18.7,29.88,NNE,28,0.0,3.0,63,0.00,,---,0.00,VWS V14.01,2013-02-02 07:21:00,
2013-02-02 02:24:00,29.6,19.3,29.88,NNE,28,0.0,3.0,65,0.00,,---,0.00,VWS V14.01,2013-02-02 07:24:00,
2013-02-02 02:25:00,29.6,19.3,29.88,NNE,28,0.0,3.0,65,0.00,,---,0.00,VWS V14.01,2013-02-02 07:25:00,
2013-02-02 02:26:00,29.6,19.3,29.88,NNE,28,0.0,3.0,65,0.00,,---,0.00,VWS V14.01,2013-02-02 07:26:00,
2013-02-02 02:27:00,29.7,19.0,29.88,NNE,28,0.0,3.0,64,0.00,,---,0.00,VWS V14.01,2013-02-02 07:27:00,
2013-02-02 02:28:00,29.7,19.8,29.88,NNE,28,0.0,3.0,66,0.00,,---,0.00,VWS V14.01,2013-02-02 07:28:00,
2013-02-02 02:29:00,29.6,19.6,29.88,NNE,28,0.0,3.0,66,0.00,,---,0.00,VWS V14.01,2013-02-02 07:29:00,
2013-02-02 02:30:00,29.6,19.6,29.88,NNE,28,0.0,3.0,66,0.00,,---,0.00,VWS V14.01,2013-02-02 07:30:00,
2013-02-02 02:31:00,29.7,19.4,29.88,NNE,28,0.0,0.0,65,0.00,,---,0.00,VWS V14.01,2013-02-02 07:31:00,
2013-02-02 02:32:00,29.7,19.4,29.88,NNE,28,0.0,0.0,65,0.00,,---,0.00,VWS V14.01,2013-02-02 07:32:00,
2013-02-02 02:33:00,29.7,18.7,29.88,NNE,28,0.0,0.0,63,0.00,,---,0.00,VWS V14.01,2013-02-02 07:33:00,
2013-02-02 02:34:00,29.8,18.8,29.87,NNE,28,0.0,0.0,63,0.00,,---,0.00,VWS V14.01,2013-02-02 07:34:00,
2013-02-02 02:35:00,29.8,19.1,29.87,NNE,28,0.0,0.0,64,0.00,,---,0.00,VWS V14.01,2013-02-02 07:35:00,
2013-02-02 02:36:00,29.7,19.8,29.87,NNE,28,0.0,0.0,66,0.00,,---,0.00,VWS V14.01,2013-02-02 07:36:00,
2013-02-02 02:37:00,29.6,19.3,29.88,NNE,28,0.0,0.0,65,0.00,,---,0.00,VWS V14.01,2013-02-02 07:37:00,
2013-02-02 02:38:00,29.5,19.6,29.88,NNE,28,0.0,0.0,66,0.00,,---,0.00,VWS V14.01,2013-02-02 07:38:00,
2013-02-02 02:39:00,29.6,18.9,29.88,NNE,28,0.0,0.0,64,0.00,,---,0.00,VWS V14.01,2013-02-02 07:39:00,
2013-02-02 02:40:00,29.5,19.6,29.87,NNE,28,0.0,0.0,66,0.00,,---,0.00,VWS V14.01,2013-02-02 07:40:00,
2013-02-02 02:41:00,29.5,19.6,29.87,NNE,28,0.0,0.0,66,0.00,,---,0.00,VWS V14.01,2013-02-02 07:41:00,
2013-02-02 02:42:00,29.4,19.8,29.87,NNE,28,0.0,0.0,67,0.00,,---,0.00,VWS V14.01,2013-02-02 07:42:00,
2013-02-02 02:43:00,29.2,20.0,29.87,NNE,28,0.0,0.0,68,0.00,,---,0.00,VWS V14.01,2013-02-02 07:43:00,
2013-02-02 02:44:00,29.1,19.9,29.87,NNE,28,0.0,0.0,68,0.00,,---,0.00,VWS V14.01,2013-02-02 07:44:00,
2013-02-02 02:45:00,29.0,19.4,29.87,NNE,28,0.0,0.0,67,0.00,,---,0.00,VWS V14.01,2013-02-02 07:45:00,
2013-02-02 02:46:00,29.0,19.4,29.87,NNE,28,0.0,0.0,67,0.00,,---,0.00,VWS V14.01,2013-02-02 07:46:00,
2013-02-02 02:47:00,29.0,19.4,29.87,NNE,28,0.0,0.0,67,0.00,,---,0.00,VWS V14.01,2013-02-02 07:47:00,
2013-02-02 02:48:00,29.0,19.4,29.87,NNE,28,0.0,0.0,67,0.00,,---,0.00,VWS V14.01,2013-02-02 07:48:00,
2013-02-02 02:49:00,29.0,19.4,29.87,NNE,28,0.0,0.0,67,0.00,,---,0.00,VWS V14.01,2013-02-02 07:49:00,
2013-02-02 02:50:00,29.1,19.5,29.87,NNE,28,0.0,0.0,67,0.00,,---,0.00,VWS V14.01,2013-02-02 07:50:00,
2013-02-02 02:51:00,29.1,19.5,29.87,NNE,28,0.0,0.0,67,0.00,,---,0.00,VWS V14.01,2013-02-02 07:51:00,
2013-02-02 02:52:00,29.1,19.5,29.87,NNE,28,0.0,0.0,67,0.00,,---,0.00,VWS V14.01,2013-02-02 07:52:00,
2013-02-02 02:53:00,29.1,19.5,29.87,NNE,28,0.0,0.0,67,0.00,,---,0.00,VWS V14.01,2013-02-02 07:53:00,
2013-02-02 02:54:00,29.2,19.6,29.87,NNE,28,0.0,0.0,67,0.00,,---,0.00,VWS V14.01,2013-02-02 07:54:00,
2013-02-02 02:55:00,29.2,19.3,29.87,NNE,28,0.0,0.0,66,0.00,,---,0.00,VWS V14.01,2013-02-02 07:55:00,
2013-02-02 02:56:00,29.2,19.3,29.87,NNE,28,0.0,0.0,66,0.00,,---,0.00,VWS V14.01,2013-02-02 07:56:00,
2013-02-02 02:57:00,29.2,19.3,29.87,NNE,28,0.0,0.0,66,0.00,,---,0.00,VWS V14.01,2013-02-02 07:57:00,
2013-02-02 02:58:00,29.3,19.7,29.87,NNE,28,0.0,0.0,67,0.00,,---,0.00,VWS V14.01,2013-02-02 07:58:00,
2013-02-02 02:59:00,29.2,19.6,29.87,NNE,28,0.0,0.0,67,0.00,,---,0.00,VWS V14.01,2013-02-02 07:59:00,
2013-02-02 03:00:00,29.2,19.6,29.87,NNE,28,0.0,0.0,67,0.00,,---,0.00,VWS V14.01,2013-02-02 08:00:00,
2013-02-02 03:01:00,29.2,19.6,29.87,NNE,28,0.0,0.0,67,0.00,,---,0.00,VWS V14.01,2013-02-02 08:01:00,
2013-02-02 03:02:00,29.2,19.6,29.86,NNE,28,0.0,0.0,67,0.00,,---,0.00,VWS V14.01,2013-02-02 08:02:00,
2013-02-02 03:03:00,29.2,19.6,29.87,NNE,28,0.0,0.0,67,0.00,,---,0.00,VWS V14.01,2013-02-02 08:03:00,
2013-02-02 03:04:00,29.2,20.0,29.87,NNE,28,0.0,0.0,68,0.00,,---,0.00,VWS V14.01,2013-02-02 08:04:00,
2013-02-02 03:05:00,29.0,19.8,29.87,NNE,28,0.0,0.0,68,0.00,,---,0.00,VWS V14.01,2013-02-02 08:05:00,
2013-02-02 03:06:00,29.0,19.8,29.87,NNE,28,0.0,0.0,68,0.00,,---,0.00,VWS V14.01,2013-02-02 08:06:00,
2013-02-02 03:07:00,28.9,20.0,29.87,NNE,28,0.0,0.0,69,0.00,,---,0.00,VWS V14.01,2013-02-02 08:07:00,
2013-02-02 03:08:00,28.8,19.9,29.87,NNE,28,0.0,0.0,69,0.00,,---,0.00,VWS V14.01,2013-02-02 08:08:00,
2013-02-02 03:09:00,28.8,19.9,29.87,NNE,28,0.0,0.0,69,0.00,,---,0.00,VWS V14.01,2013-02-02 08:09:00,
2013-02-02 03:10:00,28.9,19.7,29.87,NNE,28,0.0,0.0,68,0.00,,---,0.00,VWS V14.01,2013-02-02 08:10:00,
2013-02-02 03:11:00,28.9,19.7,29.87,NNE,28,0.0,0.0,68,0.00,,---,0.00,VWS V14.01,2013-02-02 08:11:00,
2013-02-02 03:12:00,28.9,19.7,29.87,NNE,28,0.0,0.0,68,0.00,,---,0.00,VWS V14.01,2013-02-02 08:12:00,
2013-02-02 03:13:00,29.0,19.8,29.87,NNE,28,0.0,0.0,68,0.00,,---,0.00,VWS V14.01,2013-02-02 08:13:00,
2013-02-02 03:14:00,29.0,19.8,29.87,NNE,28,0.0,0.0,68,0.00,,---,0.00,VWS V14.01,2013-02-02 08:14:00,
2013-02-02 03:15:00,29.0,19.8,29.87,NNE,28,0.0,0.0,68,0.00,,---,0.00,VWS V14.01,2013-02-02 08:15:00,
2013-02-02 03:16:00,29.1,19.5,29.87,NNE,28,0.0,0.0,67,0.00,,---,0.00,VWS V14.01,2013-02-02 08:16:00,
2013-02-02 03:17:00,29.2,19.6,29.87,NNE,28,0.0,0.0,67,0.00,,---,0.00,VWS V14.01,2013-02-02 08:17:00,
2013-02-02 03:18:00,29.2,19.6,29.87,NNE,28,0.0,0.0,67,0.00,,---,0.00,VWS V14.01,2013-02-02 08:18:00,
2013-02-02 03:19:00,29.2,19.6,29.87,NNE,28,0.0,0.0,67,0.00,,---,0.00,VWS V14.01,2013-02-02 08:19:00,
2013-02-02 03:20:00,29.1,18.8,29.86,NNE,28,0.0,0.0,65,0.00,,---,0.00,VWS V14.01,2013-02-02 08:20:00,
2013-02-02 03:21:00,29.0,18.7,29.87,NNE,28,0.0,0.0,65,0.00,,---,0.00,VWS V14.01,2013-02-02 08:21:00,
2013-02-02 03:22:00,29.0,19.1,29.87,NNE,28,0.0,0.0,66,0.00,,---,0.00,VWS V14.01,2013-02-02 08:22:00,
2013-02-02 03:23:00,29.0,19.1,29.86,NNE,28,0.0,0.0,66,0.00,,---,0.00,VWS V14.01,2013-02-02 08:23:00,
2013-02-02 03:24:00,29.0,19.1,29.87,NNE,28,0.0,0.0,66,0.00,,---,0.00,VWS V14.01,2013-02-02 08:24:00,
2013-02-02 03:25:00,29.0,18.7,29.86,NNE,28,0.0,0.0,65,0.00,,---,0.00,VWS V14.01,2013-02-02 08:25:00,
2013-02-02 03:26:00,29.0,18.7,29.86,NNE,28,0.0,0.0,65,0.00,,---,0.00,VWS V14.01,2013-02-02 08:26:00,
2013-02-02 03:27:00,29.0,18.7,29.86,NNE,28,0.0,0.0,65,0.00,,---,0.00,VWS V14.01,2013-02-02 08:27:00,
2013-02-02 03:28:00,29.0,18.7,29.86,NNE,28,0.0,0.0,65,0.00,,---,0.00,VWS V14.01,2013-02-02 08:28:00,
2013-02-02 03:29:00,28.9,18.6,29.86,NNE,28,0.0,0.0,65,0.00,,---,0.00,VWS V14.01,2013-02-02 08:29:00,
2013-02-02 03:30:00,28.9,19.0,29.86,NNE,28,0.0,0.0,66,0.00,,---,0.00,VWS V14.01,2013-02-02 08:30:00,
2013-02-02 03:31:00,28.9,19.0,29.87,NNE,28,0.0,0.0,66,0.00,,---,0.00,VWS V14.01,2013-02-02 08:31:00,
2013-02-02 03:32:00,28.9,19.3,29.87,NNE,28,0.0,0.0,67,0.00,,---,0.00,VWS V14.01,2013-02-02 08:32:00,
2013-02-02 03:33:00,28.9,19.3,29.86,NNE,28,0.0,0.0,67,0.00,,---,0.00,VWS V14.01,2013-02-02 08:33:00,
2013-02-02 03:34:00,29.0,19.4,29.86,NNE,28,0.0,0.0,67,0.00,,---,0.00,VWS V14.01,2013-02-02 08:34:00,
2013-02-02 03:35:00,28.9,19.3,29.86,NNE,28,0.0,0.0,67,0.00,,---,0.00,VWS V14.01,2013-02-02 08:35:00,
2013-02-02 03:36:00,28.9,19.3,29.86,NNE,28,0.0,0.0,67,0.00,,---,0.00,VWS V14.01,2013-02-02 08:36:00,
2013-02-02 03:37:00,28.9,19.7,29.86,NNE,28,0.0,0.0,68,0.00,,---,0.00,VWS V14.01,2013-02-02 08:37:00,
2013-02-02 03:38:00,28.9,19.7,29.86,NNE,28,0.0,0.0,68,0.00,,---,0.00,VWS V14.01,2013-02-02 08:38:00,
2013-02-02 03:39:00,28.9,19.7,29.86,NNE,28,0.0,0.0,68,0.00,,---,0.00,VWS V14.01,2013-02-02 08:39:00,
2013-02-02 03:40:00,28.9,19.7,29.86,NNE,28,0.0,0.0,68,0.00,,---,0.00,VWS V14.01,2013-02-02 08:40:00,
2013-02-02 03:41:00,28.9,19.7,29.86,NNE,28,0.0,0.0,68,0.00,,---,0.00,VWS V14.01,2013-02-02 08:41:00,
2013-02-02 03:42:00,28.9,19.7,29.86,NNE,28,0.0,0.0,68,0.00,,---,0.00,VWS V14.01,2013-02-02 08:42:00,
2013-02-02 03:43:00,28.8,19.6,29.86,NNE,28,0.0,0.0,68,0.00,,---,0.00,VWS V14.01,2013-02-02 08:43:00,
2013-02-02 03:44:00,28.7,19.5,29.86,NNE,28,0.0,0.0,68,0.00,,---,0.00,VWS V14.01,2013-02-02 08:44:00,
2013-02-02 03:45:00,28.6,19.7,29.86,NNE,28,0.0,0.0,69,0.00,,---,0.00,VWS V14.01,2013-02-02 08:45:00,
2013-02-02 03:46:00,28.6,19.7,29.86,NNE,28,0.0,0.0,69,0.00,,---,0.00,VWS V14.01,2013-02-02 08:46:00,
2013-02-02 03:47:00,28.5,19.6,29.86,NNE,28,0.0,0.0,69,0.00,,---,0.00,VWS V14.01,2013-02-02 08:47:00,
2013-02-02 03:48:00,28.4,19.9,29.86,NNE,28,0.0,0.0,70,0.00,,---,0.00,VWS V14.01,2013-02-02 08:48:00,
2013-02-02 03:49:00,28.4,19.9,29.86,NNE,28,0.0,0.0,70,0.00,,---,0.00,VWS V14.01,2013-02-02 08:49:00,
2013-02-02 03:50:00,28.3,19.8,29.86,NNE,28,0.0,0.0,70,0.00,,---,0.00,VWS V14.01,2013-02-02 08:50:00,
2013-02-02 03:51:00,28.3,19.8,29.86,NNE,28,0.0,0.0,70,0.00,,---,0.00,VWS V14.01,2013-02-02 08:51:00,
2013-02-02 03:52:00,28.3,19.5,29.86,NNE,28,0.0,0.0,69,0.00,,---,0.00,VWS V14.01,2013-02-02 08:52:00,
2013-02-02 03:53:00,28.3,19.1,29.86,NNE,28,0.0,0.0,68,0.00,,---,0.00,VWS V14.01,2013-02-02 08:53:00,
2013-02-02 03:54:00,28.4,18.9,29.86,NNE,28,0.0,0.0,67,0.00,,---,0.00,VWS V14.01,2013-02-02 08:54:00,
2013-02-02 03:55:00,28.4,19.2,29.86,NNE,28,0.0,0.0,68,0.00,,---,0.00,VWS V14.01,2013-02-02 08:55:00,
2013-02-02 03:56:00,28.5,19.3,29.86,NNE,28,0.0,0.0,68,0.00,,---,0.00,VWS V14.01,2013-02-02 08:56:00,
2013-02-02 03:57:00,28.5,19.3,29.86,NNE,28,0.0,0.0,68,0.00,,---,0.00,VWS V14.01,2013-02-02 08:57:00,
2013-02-02 03:58:00,28.5,19.6,29.86,NNE,28,0.0,0.0,69,0.00,,---,0.00,VWS V14.01,2013-02-02 08:58:00,
2013-02-02 03:59:00,28.5,19.6,29.86,NNE,28,0.0,0.0,69,0.00,,---,0.00,VWS V14.01,2013-02-02 08:59:00,
2013-02-02 04:00:00,28.6,19.7,29.86,NNE,28,0.0,0.0,69,0.00,,---,0.00,VWS V14.01,2013-02-02 09:00:00,
2013-02-02 04:01:00,28.5,19.6,29.86,NNE,28,0.0,0.0,69,0.00,,---,0.00,VWS V14.01,2013-02-02 09:01:00,
2013-02-02 04:02:00,28.4,19.5,29.86,NNE,28,0.0,0.0,69,0.00,,---,0.00,VWS V14.01,2013-02-02 09:02:00,
2013-02-02 04:03:00,28.3,19.8,29.86,NNE,28,0.0,0.0,70,0.00,,---,0.00,VWS V14.01,2013-02-02 09:03:00,
2013-02-02 04:04:00,28.3,19.8,29.86,NNE,28,0.0,0.0,70,0.00,,---,0.00,VWS V14.01,2013-02-02 09:04:00,
2013-02-02 04:05:00,28.3,19.8,29.86,NNE,28,0.0,0.0,70,0.00,,---,0.00,VWS V14.01,2013-02-02 09:05:00,
2013-02-02 04:06:00,28.3,19.8,29.86,NNE,28,0.0,0.0,70,0.00,,---,0.00,VWS V14.01,2013-02-02 09:06:00,
2013-02-02 04:07:00,28.3,19.5,29.86,NNE,28,0.0,0.0,69,0.00,,---,0.00,VWS V14.01,2013-02-02 09:07:00,
2013-02-02 04:08:00,28.3,19.1,29.86,NNE,28,1.0,1.0,68,0.00,,---,0.00,VWS V14.01,2013-02-02 09:08:00,
2013-02-02 04:09:00,28.3,19.1,29.86,NNE,28,1.0,1.0,68,0.00,,---,0.00,VWS V14.01,2013-02-02 09:09:00,
2013-02-02 04:10:00,28.4,18.9,29.86,NNE,28,0.0,1.0,67,0.00,,---,0.00,VWS V14.01,2013-02-02 09:10:00,
2013-02-02 04:11:00,28.4,18.9,29.86,NNE,28,0.0,1.0,67,0.00,,---,0.00,VWS V14.01,2013-02-02 09:11:00,
2013-02-02 04:12:00,28.5,19.0,29.86,NNE,28,0.0,1.0,67,0.00,,---,0.00,VWS V14.01,2013-02-02 09:12:00,
2013-02-02 04:13:00,28.5,19.0,29.86,NNE,28,0.0,1.0,67,0.00,,---,0.00,VWS V14.01,2013-02-02 09:13:00,
2013-02-02 04:14:00,28.5,19.0,29.86,NNE,28,0.0,1.0,67,0.00,,---,0.00,VWS V14.01,2013-02-02 09:14:00,
2013-02-02 04:15:00,28.6,19.0,29.86,NNE,28,0.0,1.0,67,0.00,,---,0.00,VWS V14.01,2013-02-02 09:15:00,
2013-02-02 04:16:00,28.5,19.3,29.86,NNE,28,0.0,1.0,68,0.00,,---,0.00,VWS V14.01,2013-02-02 09:16:00,
2013-02-02 04:17:00,28.5,19.3,29.86,NNE,28,0.0,1.0,68,0.00,,---,0.00,VWS V14.01,2013-02-02 09:17:00,
2013-02-02 04:18:00,28.4,19.5,29.86,NNE,28,0.0,1.0,69,0.00,,---,0.00,VWS V14.01,2013-02-02 09:18:00,
2013-02-02 04:19:00,28.4,19.5,29.86,NNE,28,0.0,1.0,69,0.00,,---,0.00,VWS V14.01,2013-02-02 09:19:00,
2013-02-02 04:20:00,28.4,19.5,29.86,NNE,28,0.0,1.0,69,0.00,,---,0.00,VWS V14.01,2013-02-02 09:20:00,
2013-02-02 04:21:00,28.3,19.5,29.86,NNE,28,0.0,1.0,69,0.00,,---,0.00,VWS V14.01,2013-02-02 09:21:00,
2013-02-02 04:22:00,28.3,19.5,29.86,NNE,28,0.0,1.0,69,0.00,,---,0.00,VWS V14.01,2013-02-02 09:22:00,
2013-02-02 04:23:00,28.3,19.5,29.86,NNE,28,0.0,1.0,69,0.00,,---,0.00,VWS V14.01,2013-02-02 09:23:00,
2013-02-02 04:24:00,28.3,19.5,29.86,NNE,28,0.0,1.0,69,0.00,,---,0.00,VWS V14.01,2013-02-02 09:24:00,
2013-02-02 04:25:00,28.3,19.5,29.86,NNE,28,0.0,1.0,69,0.00,,---,0.00,VWS V14.01,2013-02-02 09:25:00,
2013-02-02 04:26:00,28.3,19.8,29.86,NNE,28,0.0,1.0,70,0.00,,---,0.00,VWS V14.01,2013-02-02 09:26:00,
2013-02-02 04:27:00,28.2,19.7,29.86,NNE,28,0.0,1.0,70,0.00,,---,0.00,VWS V14.01,2013-02-02 09:27:00,
2013-02-02 04:28:00,28.1,19.9,29.86,NNE,28,0.0,1.0,71,0.00,,---,0.00,VWS V14.01,2013-02-02 09:28:00,
2013-02-02 04:29:00,28.1,19.9,29.86,NNE,28,0.0,1.0,71,0.00,,---,0.00,VWS V14.01,2013-02-02 09:29:00,
2013-02-02 04:30:00,28.1,19.9,29.86,NNE,28,0.0,1.0,71,0.00,,---,0.00,VWS V14.01,2013-02-02 09:30:00,
2013-02-02 04:31:00,28.1,19.6,29.86,NNE,28,0.0,0.0,70,0.00,,---,0.00,VWS V14.01,2013-02-02 09:31:00,
2013-02-02 04:32:00,28.1,19.9,29.86,NNE,28,0.0,0.0,71,0.00,,---,0.00,VWS V14.01,2013-02-02 09:32:00,
2013-02-02 04:33:00,28.1,19.9,29.86,NNE,28,0.0,0.0,71,0.00,,---,0.00,VWS V14.01,2013-02-02 09:33:00,
2013-02-02 04:34:00,28.0,19.8,29.86,NNE,28,0.0,0.0,71,0.00,,---,0.00,VWS V14.01,2013-02-02 09:34:00,
2013-02-02 04:35:00,28.0,19.8,29.86,NNE,28,0.0,0.0,71,0.00,,---,0.00,VWS V14.01,2013-02-02 09:35:00,
2013-02-02 04:36:00,28.0,19.8,29.86,NNE,28,0.0,0.0,71,0.00,,---,0.00,VWS V14.01,2013-02-02 09:36:00,
2013-02-02 04:37:00,27.9,20.1,29.86,NNE,28,0.0,0.0,72,0.00,,---,0.00,VWS V14.01,2013-02-02 09:37:00,
2013-02-02 04:38:00,27.8,20.0,29.86,NNE,28,0.0,0.0,72,0.00,,---,0.00,VWS V14.01,2013-02-02 09:38:00,
2013-02-02 04:39:00,27.7,20.2,29.86,NNE,28,0.0,0.0,73,0.00,,---,0.00,VWS V14.01,2013-02-02 09:39:00,
2013-02-02 04:40:00,27.7,20.2,29.86,NNE,28,0.0,0.0,73,0.00,,---,0.00,VWS V14.01,2013-02-02 09:40:00,
2013-02-02 04:41:00,27.7,20.2,29.86,NNE,28,0.0,0.0,73,0.00,,---,0.00,VWS V14.01,2013-02-02 09:41:00,
2013-02-02 04:42:00,27.6,19.8,29.86,NNE,28,0.0,0.0,72,0.00,,---,0.00,VWS V14.01,2013-02-02 09:42:00,
2013-02-02 04:43:00,27.6,19.8,29.86,NNE,28,0.0,0.0,72,0.00,,---,0.00,VWS V14.01,2013-02-02 09:43:00,
2013-02-02 04:44:00,27.6,19.8,29.86,NNE,28,0.0,0.0,72,0.00,,---,0.00,VWS V14.01,2013-02-02 09:44:00,
2013-02-02 04:45:00,27.6,19.8,29.86,NNE,28,0.0,0.0,72,0.00,,---,0.00,VWS V14.01,2013-02-02 09:45:00,
2013-02-02 04:46:00,27.5,19.4,29.86,NNE,28,0.0,0.0,71,0.00,,---,0.00,VWS V14.01,2013-02-02 09:46:00,
2013-02-02 04:47:00,27.5,19.4,29.86,NNE,28,0.0,0.0,71,0.00,,---,0.00,VWS V14.01,2013-02-02 09:47:00,
2013-02-02 04:48:00,27.5,18.7,29.86,NNE,28,0.0,0.0,69,0.00,,---,0.00,VWS V14.01,2013-02-02 09:48:00,
2013-02-02 04:49:00,27.6,18.8,29.86,NNE,28,0.0,0.0,69,0.00,,---,0.00,VWS V14.01,2013-02-02 09:49:00,
2013-02-02 04:50:00,27.7,18.9,29.86,NNE,28,0.0,1.0,69,0.00,,---,0.00,VWS V14.01,2013-02-02 09:50:00,
2013-02-02 04:51:00,27.8,19.0,29.86,NNE,28,0.0,1.0,69,0.00,,---,0.00,VWS V14.01,2013-02-02 09:51:00,
2013-02-02 04:52:00,27.8,19.0,29.86,NNE,28,0.0,1.0,69,0.00,,---,0.00,VWS V14.01,2013-02-02 09:52:00,
2013-02-02 04:53:00,27.8,19.0,29.86,NNE,28,0.0,1.0,69,0.00,,---,0.00,VWS V14.01,2013-02-02 09:53:00,
2013-02-02 04:54:00,27.8,19.0,29.86,NNE,28,0.0,1.0,69,0.00,,---,0.00,VWS V14.01,2013-02-02 09:54:00,
2013-02-02 04:55:00,27.8,19.0,29.86,NNE,28,0.0,1.0,69,0.00,,---,0.00,VWS V14.01,2013-02-02 09:55:00,
2013-02-02 04:56:00,27.8,19.0,29.86,NNE,28,0.0,1.0,69,0.00,,---,0.00,VWS V14.01,2013-02-02 09:56:00,
2013-02-02 04:57:00,27.9,19.1,29.86,NNE,28,0.0,1.0,69,0.00,,---,0.00,VWS V14.01,2013-02-02 09:57:00,
2013-02-02 04:58:00,27.9,19.4,29.86,NNE,28,0.0,1.0,70,0.00,,---,0.00,VWS V14.01,2013-02-02 09:58:00,
2013-02-02 04:59:00,27.9,19.4,29.86,NNE,28,0.0,1.0,70,0.00,,---,0.00,VWS V14.01,2013-02-02 09:59:00,
2013-02-02 05:00:00,27.8,19.6,29.86,NNE,28,0.0,1.0,71,0.00,,---,0.00,VWS V14.01,2013-02-02 10:00:00,
2013-02-02 05:01:00,27.8,19.6,29.86,NNE,28,0.0,0.0,71,0.00,,---,0.00,VWS V14.01,2013-02-02 10:01:00,
2013-02-02 05:02:00,27.8,19.6,29.86,NNE,28,0.0,0.0,71,0.00,,---,0.00,VWS V14.01,2013-02-02 10:02:00,
2013-02-02 05:03:00,27.8,19.6,29.86,NNE,28,0.0,0.0,71,0.00,,---,0.00,VWS V14.01,2013-02-02 10:03:00,
2013-02-02 05:04:00,27.9,19.7,29.86,NNE,28,0.0,0.0,71,0.00,,---,0.00,VWS V14.01,2013-02-02 10:04:00,
2013-02-02 05:05:00,27.9,19.7,29.86,NNE,28,0.0,0.0,71,0.00,,---,0.00,VWS V14.01,2013-02-02 10:05:00,
2013-02-02 05:06:00,28.0,19.8,29.86,NNE,28,0.0,0.0,71,0.00,,---,0.00,VWS V14.01,2013-02-02 10:06:00,
2013-02-02 05:07:00,27.9,19.7,29.86,NNE,28,0.0,0.0,71,0.00,,---,0.00,VWS V14.01,2013-02-02 10:07:00,
2013-02-02 05:08:00,28.0,19.8,29.86,NNE,28,0.0,0.0,71,0.00,,---,0.00,VWS V14.01,2013-02-02 10:08:00,
2013-02-02 05:09:00,28.0,19.5,29.86,NNE,28,0.0,0.0,70,0.00,,---,0.00,VWS V14.01,2013-02-02 10:09:00,
2013-02-02 05:10:00,28.0,19.5,29.86,NNE,28,0.0,0.0,70,0.00,,---,0.00,VWS V14.01,2013-02-02 10:10:00,
2013-02-02 05:11:00,28.0,19.8,29.86,NNE,28,0.0,0.0,71,0.00,,---,0.00,VWS V14.01,2013-02-02 10:11:00,
2013-02-02 05:12:00,28.0,19.8,29.86,NNE,28,0.0,0.0,71,0.00,,---,0.00,VWS V14.01,2013-02-02 10:12:00,
2013-02-02 05:13:00,28.0,19.8,29.86,NNE,28,0.0,0.0,71,0.00,,---,0.00,VWS V14.01,2013-02-02 10:13:00,
2013-02-02 05:14:00,27.9,19.7,29.86,NNE,28,0.0,0.0,71,0.00,,---,0.00,VWS V14.01,2013-02-02 10:14:00,
2013-02-02 05:15:00,28.0,19.8,29.86,NNE,28,0.0,0.0,71,0.00,,---,0.00,VWS V14.01,2013-02-02 10:15:00,
2013-02-02 05:16:00,28.0,19.8,29.86,NNE,28,0.0,0.0,71,0.00,,---,0.00,VWS V14.01,2013-02-02 10:16:00,
2013-02-02 05:17:00,27.9,19.7,29.86,NNE,28,0.0,0.0,71,0.00,,---,0.00,VWS V14.01,2013-02-02 10:17:00,
2013-02-02 05:18:00,27.9,19.7,29.86,NNE,28,0.0,0.0,71,0.00,,---,0.00,VWS V14.01,2013-02-02 10:18:00,
2013-02-02 05:19:00,27.9,20.1,29.86,NNE,28,0.0,0.0,72,0.00,,---,0.00,VWS V14.01,2013-02-02 10:19:00,
2013-02-02 05:20:00,27.7,19.9,29.86,NNE,28,0.0,0.0,72,0.00,,---,0.00,VWS V14.01,2013-02-02 10:20:00,
2013-02-02 05:21:00,27.5,19.7,29.86,NNE,28,0.0,0.0,72,0.00,,---,0.00,VWS V14.01,2013-02-02 10:21:00,
2013-02-02 05:22:00,27.7,20.2,29.86,NNE,28,0.0,0.0,73,0.00,,---,0.00,VWS V14.01,2013-02-02 10:22:00,
2013-02-02 05:23:00,27.3,19.8,29.86,NNE,28,0.0,0.0,73,0.00,,---,0.00,VWS V14.01,2013-02-02 10:23:00,
2013-02-02 05:24:00,27.3,19.8,29.86,NNE,28,0.0,0.0,73,0.00,,---,0.00,VWS V14.01,2013-02-02 10:24:00,
2013-02-02 05:25:00,27.3,19.8,29.87,NNE,28,0.0,0.0,73,0.00,,---,0.00,VWS V14.01,2013-02-02 10:25:00,
2013-02-02 05:26:00,27.3,20.1,29.86,NNE,28,0.0,0.0,74,0.00,,---,0.00,VWS V14.01,2013-02-02 10:26:00,
2013-02-02 05:27:00,27.3,20.1,29.87,NNE,28,0.0,0.0,74,0.00,,---,0.00,VWS V14.01,2013-02-02 10:27:00,
2013-02-02 05:28:00,27.3,20.1,29.87,NNE,28,0.0,0.0,74,0.00,,---,0.00,VWS V14.01,2013-02-02 10:28:00,
2013-02-02 05:29:00,27.2,20.0,29.87,NNE,28,0.0,0.0,74,0.00,,---,0.00,VWS V14.01,2013-02-02 10:29:00,
2013-02-02 05:30:00,27.0,20.1,29.87,NNE,28,0.0,0.0,75,0.00,,---,0.00,VWS V14.01,2013-02-02 10:30:00,
2013-02-02 05:31:00,26.9,20.0,29.87,NNE,28,0.0,0.0,75,0.00,,---,0.00,VWS V14.01,2013-02-02 10:31:00,
2013-02-02 05:32:00,26.8,20.0,29.87,NNE,28,0.0,0.0,75,0.00,,---,0.00,VWS V14.01,2013-02-02 10:32:00,
2013-02-02 05:33:00,26.7,19.9,29.87,NNE,28,0.0,0.0,75,0.00,,---,0.00,VWS V14.01,2013-02-02 10:33:00,
2013-02-02 05:34:00,26.6,19.8,29.87,NNE,28,0.0,0.0,75,0.00,,---,0.00,VWS V14.01,2013-02-02 10:34:00,
2013-02-02 05:35:00,26.5,19.7,29.87,NNE,28,0.0,0.0,75,0.00,,---,0.00,VWS V14.01,2013-02-02 10:35:00,
2013-02-02 05:36:00,26.5,19.7,29.87,NNE,28,0.0,0.0,75,0.00,,---,0.00,VWS V14.01,2013-02-02 10:36:00,
2013-02-02 05:37:00,26.5,20.0,29.87,NNE,28,0.0,0.0,76,0.00,,---,0.00,VWS V14.01,2013-02-02 10:37:00,
2013-02-02 05:38:00,26.5,20.0,29.87,NNE,28,0.0,0.0,76,0.00,,---,0.00,VWS V14.01,2013-02-02 10:38:00,
2013-02-02 05:39:00,26.5,20.0,29.87,NNE,28,0.0,0.0,76,0.00,,---,0.00,VWS V14.01,2013-02-02 10:39:00,
2013-02-02 05:40:00,26.5,20.0,29.87,NNE,28,0.0,0.0,76,0.00,,---,0.00,VWS V14.01,2013-02-02 10:40:00,
2013-02-02 05:41:00,26.6,20.1,29.87,NNE,28,1.0,2.0,76,0.00,,---,0.00,VWS V14.01,2013-02-02 10:41:00,
2013-02-02 05:42:00,26.6,20.1,29.87,NNE,28,1.0,2.0,76,0.00,,---,0.00,VWS V14.01,2013-02-02 10:42:00,
2013-02-02 05:43:00,26.6,20.1,29.86,NNE,28,0.0,2.0,76,0.00,,---,0.00,VWS V14.01,2013-02-02 10:43:00,
2013-02-02 05:44:00,26.6,20.1,29.87,NNE,28,0.0,2.0,76,0.00,,---,0.00,VWS V14.01,2013-02-02 10:44:00,
2013-02-02 05:45:00,26.6,19.8,29.87,NNE,28,0.0,2.0,75,0.00,,---,0.00,VWS V14.01,2013-02-02 10:45:00,
2013-02-02 05:46:00,26.6,19.8,29.87,NNE,28,0.0,2.0,75,0.00,,---,0.00,VWS V14.01,2013-02-02 10:46:00,
2013-02-02 05:47:00,26.5,20.0,29.87,NNE,28,0.0,2.0,76,0.00,,---,0.00,VWS V14.01,2013-02-02 10:47:00,
2013-02-02 05:48:00,26.5,20.0,29.87,NNE,28,0.0,2.0,76,0.00,,---,0.00,VWS V14.01,2013-02-02 10:48:00,
2013-02-02 05:49:00,26.5,20.0,29.87,NNE,28,0.0,2.0,76,0.00,,---,0.00,VWS V14.01,2013-02-02 10:49:00,
2013-02-02 05:50:00,26.4,19.9,29.87,NNE,28,0.0,2.0,76,0.00,,---,0.00,VWS V14.01,2013-02-02 10:50:00,
2013-02-02 05:51:00,26.4,19.9,29.87,NNE,28,0.0,2.0,76,0.00,,---,0.00,VWS V14.01,2013-02-02 10:51:00,
2013-02-02 05:52:00,26.4,19.9,29.87,NNE,28,0.0,2.0,76,0.00,,---,0.00,VWS V14.01,2013-02-02 10:52:00,
2013-02-02 05:53:00,26.3,19.8,29.87,NNE,28,0.0,2.0,76,0.00,,---,0.00,VWS V14.01,2013-02-02 10:53:00,
2013-02-02 05:54:00,26.3,20.1,29.87,NNE,28,1.0,2.0,77,0.00,,---,0.00,VWS V14.01,2013-02-02 10:54:00,
2013-02-02 05:55:00,26.2,20.0,29.87,NNE,28,1.0,2.0,77,0.00,,---,0.00,VWS V14.01,2013-02-02 10:55:00,
2013-02-02 05:56:00,26.2,20.0,29.87,NNE,28,2.0,2.0,77,0.00,,---,0.00,VWS V14.01,2013-02-02 10:56:00,
2013-02-02 05:57:00,26.3,20.1,29.87,NNE,28,1.0,2.0,77,0.00,,---,0.00,VWS V14.01,2013-02-02 10:57:00,
2013-02-02 05:58:00,26.4,20.2,29.87,NNE,28,2.0,2.0,77,0.00,,---,0.00,VWS V14.01,2013-02-02 10:58:00,
2013-02-02 05:59:00,26.5,20.3,29.87,NNE,28,1.0,2.0,77,0.00,,---,0.00,VWS V14.01,2013-02-02 10:59:00,
2013-02-02 06:00:00,26.5,20.3,29.87,NNE,28,0.0,2.0,77,0.00,,---,0.00,VWS V14.01,2013-02-02 11:00:00,
2013-02-02 06:01:00,26.5,20.3,29.87,NNE,28,0.0,1.0,77,0.00,,---,0.00,VWS V14.01,2013-02-02 11:01:00,
2013-02-02 06:02:00,26.5,20.3,29.87,NNE,28,0.0,1.0,77,0.00,,---,0.00,VWS V14.01,2013-02-02 11:02:00,
2013-02-02 06:03:00,26.5,20.3,29.87,NNE,28,0.0,1.0,77,0.00,,---,0.00,VWS V14.01,2013-02-02 11:03:00,
2013-02-02 06:04:00,26.5,20.3,29.87,NNE,28,0.0,1.0,77,0.00,,---,0.00,VWS V14.01,2013-02-02 11:04:00,
2013-02-02 06:05:00,26.4,20.2,29.87,NNE,28,0.0,1.0,77,0.00,,---,0.00,VWS V14.01,2013-02-02 11:05:00,
2013-02-02 06:06:00,26.4,20.2,29.87,NNE,28,0.0,1.0,77,0.00,,---,0.00,VWS V14.01,2013-02-02 11:06:00,
2013-02-02 06:07:00,26.4,20.2,29.87,NNE,28,0.0,1.0,77,0.00,,---,0.00,VWS V14.01,2013-02-02 11:07:00,
2013-02-02 06:08:00,26.5,20.6,29.87,NNE,28,0.0,1.0,78,0.00,,---,0.00,VWS V14.01,2013-02-02 11:08:00,
2013-02-02 06:09:00,26.5,20.3,29.87,NNE,28,0.0,1.0,77,0.00,,---,0.00,VWS V14.01,2013-02-02 11:09:00,
2013-02-02 06:10:00,26.5,20.3,29.87,NNE,28,0.0,1.0,77,0.00,,---,0.00,VWS V14.01,2013-02-02 11:10:00,
2013-02-02 06:11:00,26.6,20.4,29.87,NNE,28,0.0,1.0,77,0.00,,---,0.00,VWS V14.01,2013-02-02 11:11:00,
2013-02-02 06:12:00,26.6,20.4,29.87,NNE,28,0.0,1.0,77,0.00,,---,0.00,VWS V14.01,2013-02-02 11:12:00,
2013-02-02 06:13:00,26.7,20.5,29.87,NNE,28,0.0,1.0,77,0.00,,---,0.00,VWS V14.01,2013-02-02 11:13:00,
2013-02-02 06:14:00,26.8,20.6,29.87,NNE,28,0.0,1.0,77,0.00,,---,0.00,VWS V14.01,2013-02-02 11:14:00,
2013-02-02 06:15:00,26.7,20.2,29.87,NNE,28,0.0,1.0,76,0.00,,---,0.00,VWS V14.01,2013-02-02 11:15:00,
2013-02-02 06:16:00,26.6,20.1,29.87,NNE,28,0.0,1.0,76,0.00,,---,0.00,VWS V14.01,2013-02-02 11:16:00,
2013-02-02 06:17:00,26.6,20.1,29.87,NNE,28,0.0,1.0,76,0.00,,---,0.00,VWS V14.01,2013-02-02 11:17:00,
2013-02-02 06:18:00,26.6,20.4,29.87,NNE,28,0.0,1.0,77,0.00,,---,0.00,VWS V14.01,2013-02-02 11:18:00,
2013-02-02 06:19:00,26.6,20.4,29.87,NNE,28,0.0,1.0,77,0.00,,---,0.00,VWS V14.01,2013-02-02 11:19:00,
2013-02-02 06:20:00,26.7,20.5,29.87,NNE,28,0.0,1.0,77,0.00,,---,0.00,VWS V14.01,2013-02-02 11:20:00,
2013-02-02 06:21:00,26.7,20.5,29.87,NNE,28,0.0,1.0,77,0.00,,---,0.00,VWS V14.01,2013-02-02 11:21:00,
2013-02-02 06:22:00,26.9,20.7,29.87,NNE,28,0.0,1.0,77,0.00,,---,0.00,VWS V14.01,2013-02-02 11:22:00,
2013-02-02 06:23:00,26.9,20.7,29.87,NNE,28,0.0,1.0,77,0.00,,---,0.00,VWS V14.01,2013-02-02 11:23:00,
2013-02-02 06:24:00,26.9,20.7,29.87,NNE,28,0.0,1.0,77,0.00,,---,0.00,VWS V14.01,2013-02-02 11:24:00,
2013-02-02 06:25:00,26.9,20.7,29.87,NNE,28,0.0,1.0,77,0.00,,---,0.00,VWS V14.01,2013-02-02 11:25:00,
2013-02-02 06:26:00,27.0,20.8,29.87,NNE,28,0.0,1.0,77,0.00,,---,0.00,VWS V14.01,2013-02-02 11:26:00,
2013-02-02 06:27:00,27.0,20.8,29.87,NNE,28,0.0,1.0,77,0.00,,---,0.00,VWS V14.01,2013-02-02 11:27:00,
2013-02-02 06:28:00,27.0,20.8,29.87,NNE,28,0.0,1.0,77,0.00,,---,0.00,VWS V14.01,2013-02-02 11:28:00,
2013-02-02 06:29:00,27.1,20.9,29.87,NNE,28,0.0,1.0,77,0.00,,---,0.00,VWS V14.01,2013-02-02 11:29:00,
2013-02-02 06:30:00,27.1,20.9,29.87,NNE,28,0.0,1.0,77,0.00,,---,0.00,VWS V14.01,2013-02-02 11:30:00,
2013-02-02 06:31:00,27.1,20.9,29.87,NNE,28,0.0,1.0,77,0.00,,---,0.00,VWS V14.01,2013-02-02 11:31:00,
2013-02-02 06:32:00,27.0,20.8,29.87,NNE,28,1.0,2.0,77,0.00,,---,0.00,VWS V14.01,2013-02-02 11:32:00,
2013-02-02 06:33:00,26.9,20.7,29.87,NNE,28,0.0,2.0,77,0.00,,---,0.00,VWS V14.01,2013-02-02 11:33:00,
2013-02-02 06:34:00,26.9,20.7,29.87,NNE,28,0.0,2.0,77,0.00,,---,0.00,VWS V14.01,2013-02-02 11:34:00,
2013-02-02 06:35:00,26.9,20.7,29.87,NNE,28,0.0,2.0,77,0.00,,---,0.00,VWS V14.01,2013-02-02 11:35:00,
2013-02-02 06:36:00,26.9,20.7,29.87,NNE,28,0.0,2.0,77,0.00,,---,0.00,VWS V14.01,2013-02-02 11:36:00,
2013-02-02 06:37:00,26.9,20.7,29.87,NNE,28,0.0,2.0,77,0.00,,---,0.00,VWS V14.01,2013-02-02 11:37:00,
2013-02-02 06:38:00,26.9,20.7,29.87,NNE,28,0.0,2.0,77,0.00,,---,0.00,VWS V14.01,2013-02-02 11:38:00,
2013-02-02 06:39:00,26.8,20.6,29.87,NNE,28,0.0,2.0,77,0.00,,---,0.00,VWS V14.01,2013-02-02 11:39:00,
2013-02-02 06:40:00,26.7,20.5,29.87,NNE,28,0.0,2.0,77,0.00,,---,0.00,VWS V14.01,2013-02-02 11:40:00,
2013-02-02 06:41:00,26.6,20.7,29.87,NNE,28,0.0,2.0,78,0.00,,---,0.00,VWS V14.01,2013-02-02 11:41:00,
2013-02-02 06:42:00,26.6,20.7,29.87,NNE,28,0.0,2.0,78,0.00,,---,0.00,VWS V14.01,2013-02-02 11:42:00,
2013-02-02 06:43:00,26.6,20.7,29.87,NNE,28,0.0,2.0,78,0.00,,---,0.00,VWS V14.01,2013-02-02 11:43:00,
2013-02-02 06:44:00,26.6,20.7,29.87,NNE,28,0.0,2.0,78,0.00,,---,0.00,VWS V14.01,2013-02-02 11:44:00,
2013-02-02 06:45:00,26.4,20.5,29.87,NNE,28,0.0,2.0,78,0.00,,---,0.00,VWS V14.01,2013-02-02 11:45:00,
2013-02-02 06:46:00,26.3,20.7,29.87,NNE,28,0.0,2.0,79,0.00,,---,0.00,VWS V14.01,2013-02-02 11:46:00,
2013-02-02 06:47:00,26.1,20.5,29.87,NNE,28,0.0,2.0,79,0.00,,---,0.00,VWS V14.01,2013-02-02 11:47:00,
2013-02-02 06:48:00,26.0,20.4,29.88,NNE,28,0.0,2.0,79,0.00,,---,0.00,VWS V14.01,2013-02-02 11:48:00,
2013-02-02 06:49:00,25.9,20.3,29.88,NNE,28,0.0,2.0,79,0.00,,---,0.00,VWS V14.01,2013-02-02 11:49:00,
2013-02-02 06:50:00,25.9,20.3,29.88,NNE,28,0.0,2.0,79,0.00,,---,0.00,VWS V14.01,2013-02-02 11:50:00,
2013-02-02 06:51:00,25.8,20.2,29.87,NNE,28,0.0,2.0,79,0.00,,---,0.00,VWS V14.01,2013-02-02 11:51:00,
2013-02-02 06:52:00,25.8,20.2,29.88,NNE,28,0.0,2.0,79,0.00,,---,0.00,VWS V14.01,2013-02-02 11:52:00,
2013-02-02 06:53:00,25.8,20.2,29.88,NNE,28,0.0,2.0,79,0.00,,---,0.00,VWS V14.01,2013-02-02 11:53:00,
2013-02-02 06:54:00,25.8,20.2,29.88,NNE,28,0.0,2.0,79,0.00,,---,0.00,VWS V14.01,2013-02-02 11:54:00,
2013-02-02 06:55:00,25.8,20.2,29.88,NNE,28,0.0,2.0,79,0.00,,---,0.00,VWS V14.01,2013-02-02 11:55:00,
2013-02-02 06:56:00,25.8,20.5,29.87,NNE,28,0.0,2.0,80,0.00,,---,0.00,VWS V14.01,2013-02-02 11:56:00,
2013-02-02 06:57:00,25.8,20.5,29.88,NNE,28,0.0,2.0,80,0.00,,---,0.00,VWS V14.01,2013-02-02 11:57:00,
2013-02-02 06:58:00,25.9,20.6,29.88,NNE,28,0.0,2.0,80,0.00,,---,0.00,VWS V14.01,2013-02-02 11:58:00,
2013-02-02 06:59:00,25.9,20.6,29.88,NNE,28,0.0,2.0,80,0.00,,---,0.00,VWS V14.01,2013-02-02 11:59:00,
2013-02-02 07:00:00,25.9,20.6,29.88,NNE,28,0.0,2.0,80,0.00,,---,0.00,VWS V14.01,2013-02-02 12:00:00,
2013-02-02 07:01:00,26.0,20.7,29.88,NNE,28,0.0,0.0,80,0.00,,---,0.00,VWS V14.01,2013-02-02 12:01:00,
2013-02-02 07:02:00,26.0,20.7,29.88,NNE,28,0.0,0.0,80,0.00,,---,0.00,VWS V14.01,2013-02-02 12:02:00,
2013-02-02 07:03:00,26.0,20.7,29.88,NNE,28,0.0,0.0,80,0.00,,---,0.00,VWS V14.01,2013-02-02 12:03:00,
2013-02-02 07:04:00,26.0,20.7,29.88,NNE,28,0.0,0.0,80,0.00,,---,0.00,VWS V14.01,2013-02-02 12:04:00,
2013-02-02 07:05:00,26.1,20.8,29.88,NNE,28,0.0,1.0,80,0.00,,---,0.00,VWS V14.01,2013-02-02 12:05:00,
2013-02-02 07:06:00,26.1,20.8,29.88,NNE,28,0.0,1.0,80,0.00,,---,0.00,VWS V14.01,2013-02-02 12:06:00,
2013-02-02 07:07:00,26.2,20.9,29.88,NNE,28,0.0,1.0,80,0.00,,---,0.00,VWS V14.01,2013-02-02 12:07:00,
2013-02-02 07:08:00,26.3,21.0,29.88,NNE,28,0.0,1.0,80,0.00,,---,0.00,VWS V14.01,2013-02-02 12:08:00,
2013-02-02 07:09:00,26.5,21.2,29.88,NNE,28,0.0,1.0,80,0.00,,---,0.00,VWS V14.01,2013-02-02 12:09:00,
2013-02-02 07:10:00,26.5,21.2,29.88,NNE,28,1.0,1.0,80,0.00,,---,0.00,VWS V14.01,2013-02-02 12:10:00,
2013-02-02 07:11:00,26.7,21.4,29.88,NNE,28,0.0,1.0,80,0.00,,---,0.00,VWS V14.01,2013-02-02 12:11:00,
2013-02-02 07:12:00,26.8,21.2,29.88,NNE,28,0.0,1.0,79,0.00,,---,0.00,VWS V14.01,2013-02-02 12:12:00,
2013-02-02 07:13:00,27.0,21.4,29.88,NNE,28,0.0,1.0,79,0.00,,---,0.00,VWS V14.01,2013-02-02 12:13:00,
2013-02-02 07:14:00,27.0,21.4,29.88,NNE,28,0.0,1.0,79,0.00,,---,0.00,VWS V14.01,2013-02-02 12:14:00,
2013-02-02 07:15:00,27.1,21.5,29.88,NNE,28,0.0,1.0,79,0.00,,---,0.00,VWS V14.01,2013-02-02 12:15:00,
2013-02-02 07:16:00,27.2,21.6,29.88,NNE,28,0.0,1.0,79,0.00,,---,0.00,VWS V14.01,2013-02-02 12:16:00,
2013-02-02 07:17:00,27.3,21.7,29.88,NNE,28,0.0,1.0,79,0.00,,---,0.00,VWS V14.01,2013-02-02 12:17:00,
2013-02-02 07:18:00,27.3,21.7,29.88,NNE,28,0.0,1.0,79,0.00,,---,0.00,VWS V14.01,2013-02-02 12:18:00,
2013-02-02 07:19:00,27.4,21.8,29.88,NNE,28,0.0,1.0,79,0.00,,---,0.00,VWS V14.01,2013-02-02 12:19:00,
2013-02-02 07:20:00,27.4,21.8,29.88,NNE,28,0.0,1.0,79,0.00,,---,0.00,VWS V14.01,2013-02-02 12:20:00,
2013-02-02 07:21:00,27.5,21.9,29.88,NNE,28,0.0,1.0,79,0.00,,---,0.00,VWS V14.01,2013-02-02 12:21:00,
2013-02-02 07:22:00,27.5,21.9,29.88,NNE,28,0.0,1.0,79,0.00,,---,0.00,VWS V14.01,2013-02-02 12:22:00,
2013-02-02 07:23:00,27.5,21.9,29.88,NNE,28,0.0,1.0,79,0.00,,---,0.00,VWS V14.01,2013-02-02 12:23:00,
2013-02-02 07:24:00,27.5,21.5,29.88,NNE,28,0.0,1.0,78,0.00,,---,0.00,VWS V14.01,2013-02-02 12:24:00,
2013-02-02 07:25:00,27.6,21.6,29.88,NNE,28,0.0,1.0,78,0.00,,---,0.00,VWS V14.01,2013-02-02 12:25:00,
2013-02-02 07:26:00,27.8,22.1,29.88,NNE,28,0.0,1.0,79,0.00,,---,0.00,VWS V14.01,2013-02-02 12:26:00,
2013-02-02 07:27:00,27.8,21.9,29.88,NNE,28,0.0,1.0,78,0.00,,---,0.00,VWS V14.01,2013-02-02 12:27:00,
2013-02-02 07:28:00,27.7,21.8,29.88,NNE,28,0.0,1.0,78,0.00,,---,0.00,VWS V14.01,2013-02-02 12:28:00,
2013-02-02 07:29:00,27.7,21.8,29.88,NNE,28,0.0,1.0,78,0.00,,---,0.00,VWS V14.01,2013-02-02 12:29:00,
2013-02-02 07:30:00,27.8,22.1,29.88,NNE,28,0.0,1.0,79,0.00,,---,0.00,VWS V14.01,2013-02-02 12:30:00,
2013-02-02 07:31:00,28.0,22.3,29.88,NNE,28,0.0,0.0,79,0.00,,---,0.00,VWS V14.01,2013-02-02 12:31:00,
2013-02-02 07:32:00,28.2,22.5,29.88,NNE,28,0.0,0.0,79,0.00,,---,0.00,VWS V14.01,2013-02-02 12:32:00,
2013-02-02 07:33:00,28.4,22.7,29.88,NNE,28,0.0,1.0,79,0.00,,---,0.00,VWS V14.01,2013-02-02 12:33:00,
2013-02-02 07:34:00,28.5,22.5,29.88,NNE,28,0.0,1.0,78,0.00,,---,0.00,VWS V14.01,2013-02-02 12:34:00,
2013-02-02 07:35:00,28.6,22.6,29.88,NNE,28,0.0,1.0,78,0.00,,---,0.00,VWS V14.01,2013-02-02 12:35:00,
2013-02-02 07:36:00,28.6,22.3,29.88,NNE,28,0.0,1.0,77,0.00,,---,0.00,VWS V14.01,2013-02-02 12:36:00,
2013-02-02 07:37:00,28.7,22.1,29.88,NNE,28,0.0,1.0,76,0.00,,---,0.00,VWS V14.01,2013-02-02 12:37:00,
2013-02-02 07:38:00,28.8,22.2,29.88,NNE,28,0.0,1.0,76,0.00,,---,0.00,VWS V14.01,2013-02-02 12:38:00,
2013-02-02 07:39:00,28.9,22.3,29.88,NNE,28,0.0,1.0,76,0.00,,---,0.00,VWS V14.01,2013-02-02 12:39:00,
2013-02-02 07:40:00,28.8,22.5,29.88,NNE,28,0.0,1.0,77,0.00,,---,0.00,VWS V14.01,2013-02-02 12:40:00,
2013-02-02 07:41:00,28.8,22.2,29.88,NNE,28,0.0,1.0,76,0.00,,---,0.00,VWS V14.01,2013-02-02 12:41:00,
2013-02-02 07:42:00,28.8,22.2,29.88,NNE,28,0.0,1.0,76,0.00,,---,0.00,VWS V14.01,2013-02-02 12:42:00,
2013-02-02 07:43:00,28.8,21.9,29.88,NNE,28,0.0,1.0,75,0.00,,---,0.00,VWS V14.01,2013-02-02 12:43:00,
2013-02-02 07:44:00,28.9,22.0,29.88,NNE,28,0.0,1.0,75,0.00,,---,0.00,VWS V14.01,2013-02-02 12:44:00,
2013-02-02 07:45:00,28.9,22.0,29.88,NNE,28,0.0,1.0,75,0.00,,---,0.00,VWS V14.01,2013-02-02 12:45:00,
2013-02-02 07:46:00,29.0,22.1,29.88,NNE,28,1.0,1.0,75,0.00,,---,0.00,VWS V14.01,2013-02-02 12:46:00,
2013-02-02 07:47:00,29.0,22.1,29.88,NNE,28,1.0,1.0,75,0.00,,---,0.00,VWS V14.01,2013-02-02 12:47:00,
2013-02-02 07:48:00,29.1,22.2,29.88,NNE,28,0.0,1.0,75,0.00,,---,0.00,VWS V14.01,2013-02-02 12:48:00,
2013-02-02 07:49:00,29.2,22.6,29.88,NNE,28,0.0,1.0,76,0.00,,---,0.00,VWS V14.01,2013-02-02 12:49:00,
2013-02-02 07:50:00,29.4,23.1,29.88,NNE,28,0.0,1.0,77,0.00,,---,0.00,VWS V14.01,2013-02-02 12:50:00,
2013-02-02 07:51:00,29.6,23.3,29.88,NNE,28,0.0,1.0,77,0.00,,---,0.00,VWS V14.01,2013-02-02 12:51:00,
2013-02-02 07:52:00,29.7,23.1,29.88,NNE,28,0.0,1.0,76,0.00,,---,0.00,VWS V14.01,2013-02-02 12:52:00,
2013-02-02 07:53:00,30.0,23.4,29.88,NNE,28,0.0,1.0,76,0.00,,---,0.00,VWS V14.01,2013-02-02 12:53:00,
2013-02-02 07:54:00,30.2,23.2,29.88,NNE,28,1.0,1.0,75,0.00,,---,0.00,VWS V14.01,2013-02-02 12:54:00,
2013-02-02 07:55:00,30.3,23.3,29.87,NNE,28,0.0,1.0,75,0.00,,---,0.00,VWS V14.01,2013-02-02 12:55:00,
2013-02-02 07:56:00,30.4,23.4,29.87,NNE,28,0.0,1.0,75,0.00,,---,0.00,VWS V14.01,2013-02-02 12:56:00,
2013-02-02 07:57:00,30.5,23.2,29.87,NNE,28,0.0,1.0,74,0.00,,---,0.00,VWS V14.01,2013-02-02 12:57:00,
2013-02-02 07:58:00,30.6,23.3,29.88,NNE,28,0.0,1.0,74,0.00,,---,0.00,VWS V14.01,2013-02-02 12:58:00,
2013-02-02 07:59:00,30.6,23.0,29.88,NNE,28,0.0,1.0,73,0.00,,---,0.00,VWS V14.01,2013-02-02 12:59:00,
2013-02-02 08:00:00,30.6,22.7,29.87,NNE,28,0.0,1.0,72,0.00,,---,0.00,VWS V14.01,2013-02-02 13:00:00,
2013-02-02 08:01:00,30.7,22.8,29.87,NNE,28,1.0,1.0,72,0.00,,---,0.00,VWS V14.01,2013-02-02 13:01:00,
2013-02-02 08:02:00,30.8,22.9,29.88,NNE,28,0.0,1.0,72,0.00,,---,0.00,VWS V14.01,2013-02-02 13:02:00,
2013-02-02 08:03:00,30.8,22.5,29.87,NNE,28,1.0,2.0,71,0.00,,---,0.00,VWS V14.01,2013-02-02 13:03:00,
2013-02-02 08:04:00,30.9,22.3,29.88,NNE,28,0.0,2.0,70,0.00,,---,0.00,VWS V14.01,2013-02-02 13:04:00,
2013-02-02 08:05:00,31.0,22.0,29.87,NNE,28,0.0,2.0,69,0.00,,---,0.00,VWS V14.01,2013-02-02 13:05:00,
2013-02-02 08:06:00,31.1,22.5,29.87,NNE,28,0.0,2.0,70,0.00,,---,0.00,VWS V14.01,2013-02-02 13:06:00,
2013-02-02 08:07:00,27.8,22.1,29.88,NNE,28,0.0,1.0,79,0.00,,---,0.00,VWS V14.01,2013-02-02 13:07:00,
2013-02-02 08:08:00,31.5,22.5,29.87,NNE,28,1.0,2.0,69,0.00,,---,0.00,VWS V14.01,2013-02-02 13:08:00,
2013-02-02 08:09:00,31.7,22.7,29.87,NNE,28,0.0,2.0,69,0.00,,---,0.00,VWS V14.01,2013-02-02 13:09:00,
2013-02-02 08:10:00,31.7,22.4,29.87,NNE,28,0.0,2.0,68,0.00,,---,0.00,VWS V14.01,2013-02-02 13:10:00,
2013-02-02 08:11:00,31.7,22.0,29.87,NNE,28,0.0,2.0,67,0.00,,---,0.00,VWS V14.01,2013-02-02 13:11:00,
2013-02-02 08:12:00,31.9,22.2,29.87,NNE,28,0.0,2.0,67,0.00,,---,0.00,VWS V14.01,2013-02-02 13:12:00,
2013-02-02 08:13:00,31.9,21.9,29.87,NNE,28,0.0,2.0,66,0.00,,---,0.00,VWS V14.01,2013-02-02 13:13:00,
2013-02-02 08:14:00,32.0,21.6,29.87,NNE,28,0.0,2.0,65,0.00,,---,0.00,VWS V14.01,2013-02-02 13:14:00,
2013-02-02 08:15:00,32.0,21.6,29.87,NNE,28,0.0,2.0,65,0.00,,---,0.00,VWS V14.01,2013-02-02 13:15:00,
2013-02-02 08:16:00,32.2,21.8,29.87,NNE,28,0.0,2.0,65,0.00,,---,0.00,VWS V14.01,2013-02-02 13:16:00,
2013-02-02 08:17:00,32.7,22.2,29.88,NNE,28,0.0,2.0,65,0.00,,---,0.00,VWS V14.01,2013-02-02 13:17:00,
2013-02-02 08:18:00,33.2,23.1,29.87,NNE,28,0.0,2.0,66,0.00,,---,0.00,VWS V14.01,2013-02-02 13:18:00,
2013-02-02 08:19:00,33.4,22.5,29.87,NNE,28,0.0,2.0,64,0.00,,---,0.00,VWS V14.01,2013-02-02 13:19:00,
2013-02-02 08:20:00,33.4,22.2,29.87,NNE,28,0.0,2.0,63,0.00,,---,0.00,VWS V14.01,2013-02-02 13:20:00,
2013-02-02 08:21:00,33.5,21.9,29.87,NNE,28,1.0,2.0,62,0.00,,---,0.00,VWS V14.01,2013-02-02 13:21:00,
2013-02-02 08:22:00,33.5,21.1,29.87,NNE,28,0.0,2.0,60,0.00,,---,0.00,VWS V14.01,2013-02-02 13:22:00,
2013-02-02 08:23:00,33.5,20.7,29.87,NNE,28,0.0,2.0,59,0.00,,---,0.00,VWS V14.01,2013-02-02 13:23:00,
2013-02-02 08:24:00,33.4,20.2,29.87,NNE,28,1.0,2.0,58,0.00,,---,0.00,VWS V14.01,2013-02-02 13:24:00,
2013-02-02 08:25:00,33.4,19.8,29.87,NNE,28,0.0,2.0,57,0.00,,---,0.00,VWS V14.01,2013-02-02 13:25:00,
2013-02-02 08:26:00,33.4,19.8,29.87,NNE,28,1.0,2.0,57,0.00,,---,0.00,VWS V14.01,2013-02-02 13:26:00,
2013-02-02 08:27:00,33.4,19.8,29.87,NNE,28,1.0,2.0,57,0.00,,---,0.01,VWS V14.01,2013-02-02 13:27:00,
2013-02-02 08:28:00,33.3,19.7,29.87,NNE,28,0.0,2.0,57,0.00,,---,0.01,VWS V14.01,2013-02-02 13:28:00,
2013-02-02 08:29:00,33.3,19.7,29.87,NNE,28,1.0,2.0,57,0.00,,---,0.01,VWS V14.01,2013-02-02 13:29:00,
2013-02-02 08:30:00,33.5,19.9,29.87,NNE,28,0.0,2.0,57,0.00,,---,0.01,VWS V14.01,2013-02-02 13:30:00,
2013-02-02 08:31:00,33.7,20.1,29.87,NNE,28,0.0,1.0,57,0.00,,---,0.01,VWS V14.01,2013-02-02 13:31:00,
2013-02-02 08:32:00,33.9,20.3,29.88,NNE,25,1.0,1.0,57,0.00,,---,0.01,VWS V14.01,2013-02-02 13:32:00,
2013-02-02 08:33:00,34.1,20.5,29.88,NNE,25,0.0,2.0,57,0.00,,---,0.01,VWS V14.01,2013-02-02 13:33:00,
2013-02-02 08:34:00,34.2,20.6,29.88,NNE,25,0.0,2.0,57,0.00,,---,0.01,VWS V14.01,2013-02-02 13:34:00,
2013-02-02 08:35:00,34.3,20.7,29.87,NNE,25,0.0,2.0,57,0.00,,---,0.01,VWS V14.01,2013-02-02 13:35:00,
2013-02-02 08:36:00,34.4,20.8,29.88,NNW,348,1.0,3.0,57,0.00,,---,0.01,VWS V14.01,2013-02-02 13:36:00,
2013-02-02 08:37:00,34.6,20.5,29.87,NNW,348,1.0,3.0,56,0.00,,---,0.01,VWS V14.01,2013-02-02 13:37:00,
2013-02-02 08:38:00,34.7,20.2,29.87,SW,225,4.0,4.0,55,0.00,,---,0.01,VWS V14.01,2013-02-02 13:38:00,
2013-02-02 08:39:00,34.7,20.6,29.87,SW,232,1.0,4.0,56,0.00,,---,0.01,VWS V14.01,2013-02-02 13:39:00,
2013-02-02 08:40:00,34.7,20.6,29.87,SW,224,2.0,4.0,56,0.00,,---,0.01,VWS V14.01,2013-02-02 13:40:00,
2013-02-02 08:41:00,34.9,20.8,29.87,SSW,197,1.0,4.0,56,0.00,,---,0.02,VWS V14.01,2013-02-02 13:41:00,
2013-02-02 08:42:00,35.0,20.5,29.87,SSW,194,1.0,4.0,55,0.00,,---,0.02,VWS V14.01,2013-02-02 13:42:00,
2013-02-02 08:43:00,35.1,20.1,29.87,SW,217,2.0,4.0,54,0.00,,---,0.02,VWS V14.01,2013-02-02 13:43:00,
2013-02-02 08:44:00,35.1,20.6,29.87,SW,216,1.0,4.0,55,0.00,,---,0.02,VWS V14.01,2013-02-02 13:44:00,
2013-02-02 08:45:00,35.0,19.6,29.87,SW,216,2.0,4.0,53,0.00,,---,0.02,VWS V14.01,2013-02-02 13:45:00,
2013-02-02 08:46:00,35.1,19.7,29.87,SW,218,0.0,4.0,53,0.00,,---,0.02,VWS V14.01,2013-02-02 13:46:00,
2013-02-02 08:47:00,35.2,19.8,29.87,SW,218,0.0,4.0,53,0.00,,---,0.02,VWS V14.01,2013-02-02 13:47:00,
2013-02-02 08:48:00,35.3,19.5,29.87,SW,218,0.0,4.0,52,0.00,,---,0.02,VWS V14.01,2013-02-02 13:48:00,
2013-02-02 08:49:00,35.3,19.9,29.88,SW,223,1.0,4.0,53,0.00,,---,0.02,VWS V14.01,2013-02-02 13:49:00,
2013-02-02 08:50:00,35.3,19.9,29.88,SW,222,2.0,4.0,53,0.00,,---,0.02,VWS V14.01,2013-02-02 13:50:00,
2013-02-02 08:51:00,35.3,19.9,29.87,SW,215,2.0,4.0,53,0.00,,---,0.02,VWS V14.01,2013-02-02 13:51:00,
2013-02-02 08:52:00,35.3,19.5,29.87,SSW,196,2.0,4.0,52,0.00,,---,0.02,VWS V14.01,2013-02-02 13:52:00,
2013-02-02 08:53:00,35.3,19.5,29.87,SSW,198,1.0,5.0,52,0.00,,---,0.03,VWS V14.01,2013-02-02 13:53:00,
2013-02-02 08:54:00,35.4,19.5,29.87,SSW,208,2.0,5.0,52,0.00,,---,0.03,VWS V14.01,2013-02-02 13:54:00,
2013-02-02 08:55:00,35.5,19.2,29.87,SW,232,5.0,5.0,51,0.00,,---,0.03,VWS V14.01,2013-02-02 13:55:00,
2013-02-02 08:56:00,35.6,19.7,29.87,SSW,192,2.0,5.0,52,0.00,,---,0.03,VWS V14.01,2013-02-02 13:56:00,
2013-02-02 08:57:00,35.8,19.5,29.87,SSW,192,5.0,5.0,51,0.00,,---,0.03,VWS V14.01,2013-02-02 13:57:00,
2013-02-02 08:58:00,35.9,19.1,29.87,South,184,5.0,5.0,50,0.00,,---,0.03,VWS V14.01,2013-02-02 13:58:00,
2013-02-02 08:59:00,35.9,17.6,29.87,SSE,157,3.0,5.0,47,0.00,,---,0.03,VWS V14.01,2013-02-02 13:59:00,
2013-02-02 09:00:00,36.0,18.2,29.87,South,184,2.0,5.0,48,0.00,,---,0.03,VWS V14.01,2013-02-02 14:00:00,
2013-02-02 09:01:00,36.1,18.3,29.87,SSE,165,1.0,4.0,48,0.00,,---,0.03,VWS V14.01,2013-02-02 14:01:00,
2013-02-02 09:02:00,36.2,17.4,29.87,SSE,162,6.0,6.0,46,0.00,,---,0.03,VWS V14.01,2013-02-02 14:02:00,
2013-02-02 09:03:00,36.3,17.0,29.87,South,169,0.0,6.0,45,0.00,,---,0.03,VWS V14.01,2013-02-02 14:03:00,
2013-02-02 09:04:00,36.3,17.0,29.87,SSE,154,4.0,6.0,45,0.00,,---,0.03,VWS V14.01,2013-02-02 14:04:00,
2013-02-02 09:05:00,36.3,16.5,29.87,South,171,4.0,6.0,44,0.00,,---,0.03,VWS V14.01,2013-02-02 14:05:00,
2013-02-02 09:06:00,36.3,15.4,29.87,SSE,165,5.0,7.0,42,0.00,,---,0.04,VWS V14.01,2013-02-02 14:06:00,
2013-02-02 09:07:00,36.2,15.9,29.87,SE,138,4.0,7.0,43,0.00,,---,0.04,VWS V14.01,2013-02-02 14:07:00,
2013-02-02 09:08:00,36.3,16.0,29.87,SE,143,5.0,7.0,43,0.00,,---,0.04,VWS V14.01,2013-02-02 14:08:00,
2013-02-02 09:09:00,36.4,16.6,29.87,SSE,158,4.0,7.0,44,0.00,,---,0.04,VWS V14.01,2013-02-02 14:09:00,
2013-02-02 09:10:00,36.5,17.2,29.87,South,170,4.0,7.0,45,0.00,,---,0.04,VWS V14.01,2013-02-02 14:10:00,
2013-02-02 09:11:00,36.6,17.3,29.87,South,175,2.0,7.0,45,0.00,,---,0.04,VWS V14.01,2013-02-02 14:11:00,
2013-02-02 09:12:00,36.7,16.9,29.87,SSE,147,4.0,7.0,44,0.00,,---,0.04,VWS V14.01,2013-02-02 14:12:00,
2013-02-02 09:13:00,36.7,16.9,29.87,SE,139,5.0,7.0,44,0.00,,---,0.04,VWS V14.01,2013-02-02 14:13:00,
2013-02-02 09:14:00,36.6,16.8,29.87,SE,140,2.0,7.0,44,0.00,,---,0.04,VWS V14.01,2013-02-02 14:14:00,
2013-02-02 09:15:00,36.6,16.8,29.86,SE,143,1.0,7.0,44,0.00,,---,0.04,VWS V14.01,2013-02-02 14:15:00,
2013-02-02 09:16:00,36.7,16.9,29.86,SE,143,1.0,7.0,44,0.00,,---,0.04,VWS V14.01,2013-02-02 14:16:00,
2013-02-02 09:17:00,36.9,18.1,29.86,SSE,167,4.0,7.0,46,0.00,,---,0.04,VWS V14.01,2013-02-02 14:17:00,
2013-02-02 09:18:00,37.0,18.7,29.86,SSE,161,4.0,7.0,47,0.00,,---,0.04,VWS V14.01,2013-02-02 14:18:00,
2013-02-02 09:19:00,37.1,18.2,29.86,SSE,157,5.0,7.0,46,0.00,,---,0.04,VWS V14.01,2013-02-02 14:19:00,
2013-02-02 09:20:00,37.0,18.2,29.86,SSE,154,5.0,7.0,46,0.00,,---,0.04,VWS V14.01,2013-02-02 14:20:00,
2013-02-02 09:21:00,37.0,18.2,29.86,SE,127,4.0,7.0,46,0.00,,---,0.05,VWS V14.01,2013-02-02 14:21:00,
2013-02-02 09:22:00,37.0,18.2,29.87,ESE,114,1.0,7.0,46,0.00,,---,0.05,VWS V14.01,2013-02-02 14:22:00,
2013-02-02 09:23:00,37.1,18.2,29.87,SSE,158,2.0,7.0,46,0.00,,---,0.05,VWS V14.01,2013-02-02 14:23:00,
2013-02-02 09:24:00,37.1,18.2,29.87,SSE,163,2.0,7.0,46,0.00,,---,0.05,VWS V14.01,2013-02-02 14:24:00,
2013-02-02 09:25:00,37.3,18.4,29.87,SSE,163,0.0,7.0,46,0.00,,---,0.05,VWS V14.01,2013-02-02 14:25:00,
2013-02-02 09:26:00,37.4,19.0,29.87,SSE,163,0.0,7.0,47,0.00,,---,0.05,VWS V14.01,2013-02-02 14:26:00,
2013-02-02 09:27:00,37.7,19.3,29.87,SW,223,6.0,7.0,47,0.00,,---,0.05,VWS V14.01,2013-02-02 14:27:00,
2013-02-02 09:28:00,37.8,18.9,29.86,SW,224,4.0,7.0,46,0.00,,---,0.05,VWS V14.01,2013-02-02 14:28:00,
2013-02-02 09:29:00,37.8,18.4,29.86,SW,224,1.0,7.0,45,0.00,,---,0.05,VWS V14.01,2013-02-02 14:29:00,
2013-02-02 09:30:00,37.8,18.9,29.86,SW,224,1.0,7.0,46,0.00,,---,0.05,VWS V14.01,2013-02-02 14:30:00,
2013-02-02 09:31:00,37.8,18.9,29.86,SW,224,1.0,2.0,46,0.00,,---,0.05,VWS V14.01,2013-02-02 14:31:00,
2013-02-02 09:32:00,38.0,19.6,29.86,SW,227,4.0,5.0,47,0.00,,---,0.05,VWS V14.01,2013-02-02 14:32:00,
2013-02-02 09:33:00,38.0,18.6,29.86,SW,234,5.0,6.0,45,0.00,,---,0.05,VWS V14.01,2013-02-02 14:33:00,
2013-02-02 09:34:00,38.0,19.1,29.86,SW,218,3.0,6.0,46,0.00,,---,0.06,VWS V14.01,2013-02-02 14:34:00,
2013-02-02 09:35:00,38.1,18.6,29.86,SW,216,2.0,6.0,45,0.00,,---,0.06,VWS V14.01,2013-02-02 14:35:00,
2013-02-02 09:36:00,38.1,19.2,29.86,WSW,242,6.0,6.0,46,0.00,,---,0.06,VWS V14.01,2013-02-02 14:36:00,
2013-02-02 09:37:00,38.2,19.3,29.86,WSW,238,4.0,6.0,46,0.00,,---,0.06,VWS V14.01,2013-02-02 14:37:00,
2013-02-02 09:38:00,38.3,18.8,29.86,WSW,239,2.0,6.0,45,0.00,,---,0.06,VWS V14.01,2013-02-02 14:38:00,
2013-02-02 09:39:00,38.4,19.4,29.86,SSW,196,2.0,6.0,46,0.00,,---,0.06,VWS V14.01,2013-02-02 14:39:00,
2013-02-02 09:40:00,38.5,19.0,29.86,SW,223,5.0,6.0,45,0.00,,---,0.06,VWS V14.01,2013-02-02 14:40:00,
2013-02-02 09:41:00,38.7,19.7,29.86,SW,214,7.0,7.0,46,0.00,,---,0.06,VWS V14.01,2013-02-02 14:41:00,
2013-02-02 09:42:00,38.8,19.3,29.86,WSW,252,4.0,7.0,45,0.00,,---,0.06,VWS V14.01,2013-02-02 14:42:00,
2013-02-02 09:43:00,38.8,19.3,29.86,West,259,2.0,7.0,45,0.00,,---,0.07,VWS V14.01,2013-02-02 14:43:00,
2013-02-02 09:44:00,38.8,19.3,29.86,SW,227,5.0,7.0,45,0.00,,---,0.07,VWS V14.01,2013-02-02 14:44:00,
2013-02-02 09:45:00,38.9,19.9,29.86,SW,219,2.0,7.0,46,0.00,,---,0.07,VWS V14.01,2013-02-02 14:45:00,
2013-02-02 09:46:00,38.9,18.9,29.86,SW,231,4.0,7.0,44,0.00,,---,0.07,VWS V14.01,2013-02-02 14:46:00,
2013-02-02 09:47:00,39.1,19.6,29.86,SW,233,6.0,7.0,45,0.00,,---,0.07,VWS V14.01,2013-02-02 14:47:00,
2013-02-02 09:48:00,39.1,19.0,29.86,WSW,246,3.0,7.0,44,0.00,,---,0.07,VWS V14.01,2013-02-02 14:48:00,
2013-02-02 09:49:00,39.2,18.6,29.86,SW,223,6.0,7.0,43,0.00,,---,0.08,VWS V14.01,2013-02-02 14:49:00,
2013-02-02 09:50:00,39.2,19.1,29.86,SW,230,5.0,7.0,44,0.00,,---,0.08,VWS V14.01,2013-02-02 14:50:00,
2013-02-02 09:51:00,39.2,19.1,29.86,SSW,209,5.0,7.0,44,0.00,,---,0.08,VWS V14.01,2013-02-02 14:51:00,
2013-02-02 09:52:00,39.1,18.5,29.86,SSW,196,2.0,7.0,43,0.00,,---,0.08,VWS V14.01,2013-02-02 14:52:00,
2013-02-02 09:53:00,39.0,18.4,29.86,SSW,210,4.0,7.0,43,0.00,,---,0.08,VWS V14.01,2013-02-02 14:53:00,
2013-02-02 09:54:00,39.0,18.4,29.86,SSW,194,1.0,7.0,43,0.00,,---,0.09,VWS V14.01,2013-02-02 14:54:00,
2013-02-02 09:55:00,39.1,18.5,29.85,SW,223,5.0,7.0,43,0.00,,---,0.09,VWS V14.01,2013-02-02 14:55:00,
2013-02-02 09:56:00,39.3,19.2,29.85,SSW,194,4.0,7.0,44,0.00,,---,0.09,VWS V14.01,2013-02-02 14:56:00,
2013-02-02 09:57:00,39.4,18.2,29.86,South,184,5.0,7.0,42,0.00,,---,0.09,VWS V14.01,2013-02-02 14:57:00,
2013-02-02 09:58:00,39.4,17.7,29.85,SSW,197,2.0,7.0,41,0.00,,---,0.09,VWS V14.01,2013-02-02 14:58:00,
2013-02-02 09:59:00,39.5,17.8,29.85,South,180,2.0,7.0,41,0.00,,---,0.10,VWS V14.01,2013-02-02 14:59:00,
2013-02-02 10:00:00,39.6,18.4,29.85,South,180,1.0,7.0,42,0.00,,---,0.10,VWS V14.01,2013-02-02 15:00:00,
2013-02-02 10:01:00,39.8,18.6,29.85,SSE,168,5.0,6.0,42,0.00,,---,0.10,VWS V14.01,2013-02-02 15:01:00,
2013-02-02 10:02:00,39.8,18.6,29.85,South,181,5.0,6.0,42,0.00,,---,0.10,VWS V14.01,2013-02-02 15:02:00,
2013-02-02 10:03:00,39.7,18.0,29.85,SSW,193,5.0,6.0,41,0.00,,---,0.11,VWS V14.01,2013-02-02 15:03:00,
2013-02-02 10:04:00,39.7,18.0,29.85,South,170,5.0,7.0,41,0.00,,---,0.11,VWS V14.01,2013-02-02 15:04:00,
2013-02-02 10:05:00,39.7,18.5,29.85,South,189,6.0,8.0,42,0.00,,---,0.11,VWS V14.01,2013-02-02 15:05:00,
2013-02-02 10:06:00,39.8,18.6,29.85,SSW,207,4.0,8.0,42,0.00,,---,0.11,VWS V14.01,2013-02-02 15:06:00,
2013-02-02 10:07:00,39.9,18.1,29.85,SSW,206,4.0,8.0,41,0.00,,---,0.12,VWS V14.01,2013-02-02 15:07:00,
2013-02-02 10:08:00,40.1,18.3,29.85,SSW,202,4.0,8.0,41,0.00,,---,0.12,VWS V14.01,2013-02-02 15:08:00,
2013-02-02 10:09:00,40.2,18.4,29.85,SSW,196,0.0,8.0,41,0.00,,---,0.12,VWS V14.01,2013-02-02 15:09:00,
2013-02-02 10:10:00,40.4,18.0,29.85,South,176,2.0,8.0,40,0.00,,---,0.13,VWS V14.01,2013-02-02 15:10:00,
2013-02-02 10:11:00,40.4,18.0,29.85,South,176,1.0,8.0,40,0.00,,---,0.13,VWS V14.01,2013-02-02 15:11:00,
2013-02-02 10:12:00,40.4,18.0,29.85,South,176,0.0,8.0,40,0.00,,---,0.14,VWS V14.01,2013-02-02 15:12:00,
2013-02-02 10:13:00,40.8,18.9,29.85,SSW,202,1.0,8.0,41,0.00,,---,0.14,VWS V14.01,2013-02-02 15:13:00,
2013-02-02 10:14:00,41.2,19.9,29.85,SSW,207,0.0,8.0,42,0.00,,---,0.15,VWS V14.01,2013-02-02 15:14:00,
2013-02-02 10:15:00,41.5,19.0,29.85,SSW,207,1.0,8.0,40,0.00,,---,0.15,VWS V14.01,2013-02-02 15:15:00,
2013-02-02 10:16:00,41.5,19.0,29.85,SSE,167,6.0,8.0,40,0.00,,---,0.16,VWS V14.01,2013-02-02 15:16:00,
2013-02-02 10:17:00,41.5,18.4,29.85,South,188,5.0,8.0,39,0.00,,---,0.16,VWS V14.01,2013-02-02 15:17:00,
2013-02-02 10:18:00,41.4,18.3,29.85,SSW,198,6.0,8.0,39,0.00,,---,0.17,VWS V14.01,2013-02-02 15:18:00,
2013-02-02 10:19:00,41.3,17.6,29.85,South,181,5.0,8.0,38,0.00,,---,0.17,VWS V14.01,2013-02-02 15:19:00,
2013-02-02 10:20:00,41.3,17.6,29.85,SW,227,6.0,8.0,38,0.00,,---,0.18,VWS V14.01,2013-02-02 15:20:00,
2013-02-02 10:21:00,41.4,17.1,29.85,WSW,245,1.0,8.0,37,0.00,,---,0.18,VWS V14.01,2013-02-02 15:21:00,
2013-02-02 10:22:00,41.7,17.4,29.85,SW,218,6.0,8.0,37,0.00,,---,0.18,VWS V14.01,2013-02-02 15:22:00,
2013-02-02 10:23:00,41.9,17.5,29.85,SSW,208,6.0,8.0,37,0.00,,---,0.19,VWS V14.01,2013-02-02 15:23:00,
2013-02-02 10:24:00,41.8,16.8,29.85,WSW,247,8.0,9.0,36,0.00,,---,0.19,VWS V14.01,2013-02-02 15:24:00,
2013-02-02 10:25:00,41.8,16.8,29.85,WSW,255,5.0,9.0,36,0.00,,---,0.19,VWS V14.01,2013-02-02 15:25:00,
2013-02-02 10:26:00,41.9,16.9,29.85,West,277,0.0,9.0,36,0.00,,---,0.20,VWS V14.01,2013-02-02 15:26:00,
2013-02-02 10:27:00,42.3,17.9,29.85,WSW,251,4.0,9.0,37,0.00,,---,0.20,VWS V14.01,2013-02-02 15:27:00,
2013-02-02 10:28:00,42.7,18.3,29.85,West,261,1.0,9.0,37,0.00,,---,0.20,VWS V14.01,2013-02-02 15:28:00,
2013-02-02 10:29:00,42.7,18.3,29.85,WSW,238,5.0,9.0,37,0.00,,---,0.21,VWS V14.01,2013-02-02 15:29:00,
2013-02-02 10:30:00,42.5,18.1,29.85,WSW,241,5.0,9.0,37,0.00,,---,0.21,VWS V14.01,2013-02-02 15:30:00,
2013-02-02 10:31:00,42.4,18.0,29.85,SW,223,2.0,6.0,37,0.00,,---,0.21,VWS V14.01,2013-02-02 15:31:00,
2013-02-02 10:32:00,42.2,17.8,29.85,SW,223,1.0,6.0,37,0.00,,---,0.22,VWS V14.01,2013-02-02 15:32:00,
2013-02-02 10:33:00,42.2,17.8,29.85,SW,225,1.0,6.0,37,0.00,,---,0.22,VWS V14.01,2013-02-02 15:33:00,
2013-02-02 10:34:00,42.2,17.8,29.85,SSW,198,2.0,6.0,37,0.00,,---,0.22,VWS V14.01,2013-02-02 15:34:00,
2013-02-02 10:35:00,42.2,17.2,29.85,SSW,198,2.0,6.0,36,0.00,,---,0.22,VWS V14.01,2013-02-02 15:35:00,
2013-02-02 10:36:00,42.3,16.6,29.84,SSW,198,0.0,6.0,35,0.00,,---,0.23,VWS V14.01,2013-02-02 15:36:00,
2013-02-02 10:37:00,42.3,16.6,29.84,WSW,246,7.0,9.0,35,0.00,,---,0.23,VWS V14.01,2013-02-02 15:37:00,
2013-02-02 10:38:00,42.4,17.4,29.85,WSW,246,3.0,9.0,36,0.00,,---,0.23,VWS V14.01,2013-02-02 15:38:00,
2013-02-02 10:39:00,42.7,18.3,29.84,WSW,258,4.0,9.0,37,0.00,,---,0.23,VWS V14.01,2013-02-02 15:39:00,
2013-02-02 10:40:00,43.1,18.6,29.84,WSW,246,6.0,9.0,37,0.00,,---,0.24,VWS V14.01,2013-02-02 15:40:00,
2013-02-02 10:41:00,43.3,18.2,29.84,WNW,283,4.0,9.0,36,0.00,,---,0.24,VWS V14.01,2013-02-02 15:41:00,
2013-02-02 10:42:00,43.5,18.3,29.85,WNW,288,4.0,9.0,36,0.00,,---,0.24,VWS V14.01,2013-02-02 15:42:00,
2013-02-02 10:43:00,43.4,18.2,29.84,WNW,290,0.0,9.0,36,0.00,,---,0.24,VWS V14.01,2013-02-02 15:43:00,
2013-02-02 10:44:00,43.5,19.0,29.84,WNW,284,0.0,9.0,37,0.00,,---,0.24,VWS V14.01,2013-02-02 15:44:00,
2013-02-02 10:45:00,43.3,18.8,29.84,SW,216,4.0,9.0,37,0.00,,---,0.25,VWS V14.01,2013-02-02 15:45:00,
2013-02-02 10:46:00,43.2,18.7,29.84,SW,236,0.0,9.0,37,0.00,,---,0.25,VWS V14.01,2013-02-02 15:46:00,
2013-02-02 10:47:00,43.3,18.8,29.84,West,271,6.0,9.0,37,0.00,,---,0.25,VWS V14.01,2013-02-02 15:47:00,
2013-02-02 10:48:00,43.3,18.8,29.84,SW,218,6.0,9.0,37,0.00,,---,0.25,VWS V14.01,2013-02-02 15:48:00,
2013-02-02 10:49:00,43.4,18.9,29.84,WSW,250,5.0,9.0,37,0.00,,---,0.26,VWS V14.01,2013-02-02 15:49:00,
2013-02-02 10:50:00,43.4,18.9,29.84,West,269,5.0,9.0,37,0.00,,---,0.26,VWS V14.01,2013-02-02 15:50:00,
2013-02-02 10:51:00,43.5,19.6,29.84,WSW,248,3.0,9.0,38,0.00,,---,0.26,VWS V14.01,2013-02-02 15:51:00,
2013-02-02 10:52:00,43.6,19.1,29.84,West,269,2.0,9.0,37,0.00,,---,0.26,VWS V14.01,2013-02-02 15:52:00,
2013-02-02 10:53:00,43.5,18.3,29.84,SW,224,5.0,9.0,36,0.00,,---,0.26,VWS V14.01,2013-02-02 15:53:00,
2013-02-02 10:54:00,43.5,18.3,29.84,SSW,201,5.0,9.0,36,0.00,,---,0.27,VWS V14.01,2013-02-02 15:54:00,
2013-02-02 10:55:00,43.5,17.0,29.83,SSW,202,4.0,9.0,34,0.00,,---,0.27,VWS V14.01,2013-02-02 15:55:00,
2013-02-02 10:56:00,43.5,17.0,29.83,SSW,202,4.0,9.0,34,0.00,,---,0.27,VWS V14.01,2013-02-02 15:56:00,
2013-02-02 10:57:00,43.6,17.1,29.83,West,260,6.0,9.0,34,0.00,,---,0.27,VWS V14.01,2013-02-02 15:57:00,
2013-02-02 10:58:00,43.6,16.4,29.83,WSW,251,4.0,9.0,33,0.00,,---,0.28,VWS V14.01,2013-02-02 15:58:00,
2013-02-02 10:59:00,43.7,16.5,29.83,SW,235,5.0,9.0,33,0.00,,---,0.28,VWS V14.01,2013-02-02 15:59:00,
2013-02-02 11:00:00,43.9,17.4,29.83,WSW,255,4.0,9.0,34,0.00,,---,0.28,VWS V14.01,2013-02-02 16:00:00,
2013-02-02 11:01:00,43.9,16.7,29.83,SSW,211,4.0,6.0,33,0.00,,---,0.28,VWS V14.01,2013-02-02 16:01:00,
2013-02-02 11:02:00,43.9,16.7,29.83,SW,225,3.0,6.0,33,0.00,,---,0.28,VWS V14.01,2013-02-02 16:02:00,
2013-02-02 11:03:00,44.0,16.8,29.83,West,265,5.0,6.0,33,0.00,,---,0.29,VWS V14.01,2013-02-02 16:03:00,
2013-02-02 11:04:00,44.1,16.9,29.83,WSW,255,5.0,6.0,33,0.00,,---,0.29,VWS V14.01,2013-02-02 16:04:00,
2013-02-02 11:05:00,44.3,17.0,29.83,WSW,238,2.0,8.0,33,0.00,,---,0.29,VWS V14.01,2013-02-02 16:05:00,
2013-02-02 11:06:00,44.3,17.0,29.83,WSW,238,2.0,8.0,33,0.00,,---,0.29,VWS V14.01,2013-02-02 16:06:00,
2013-02-02 11:07:00,44.5,17.2,29.83,WSW,256,4.0,8.0,33,0.00,,---,0.29,VWS V14.01,2013-02-02 16:07:00,
2013-02-02 11:08:00,44.9,17.6,29.83,WSW,247,7.0,8.0,33,0.00,,---,0.30,VWS V14.01,2013-02-02 16:08:00,
2013-02-02 11:09:00,45.0,16.2,29.83,WSW,252,5.0,8.0,31,0.00,,---,0.30,VWS V14.01,2013-02-02 16:09:00,
2013-02-02 11:10:00,44.9,16.8,29.83,SW,218,5.0,9.0,32,0.00,,---,0.30,VWS V14.01,2013-02-02 16:10:00,
2013-02-02 11:11:00,44.7,16.7,29.83,SSW,209,4.0,9.0,32,0.00,,---,0.30,VWS V14.01,2013-02-02 16:11:00,
2013-02-02 11:12:00,44.6,16.6,29.82,SSW,207,5.0,9.0,32,0.00,,---,0.30,VWS V14.01,2013-02-02 16:12:00,
2013-02-02 11:13:00,44.6,16.6,29.82,South,188,6.0,9.0,32,0.00,,---,0.30,VWS V14.01,2013-02-02 16:13:00,
2013-02-02 11:14:00,44.5,16.5,29.82,SSW,209,4.0,9.0,32,0.00,,---,0.31,VWS V14.01,2013-02-02 16:14:00,
2013-02-02 11:15:00,44.6,17.3,29.82,SSW,210,6.0,9.0,33,0.00,,---,0.31,VWS V14.01,2013-02-02 16:15:00,
2013-02-02 11:16:00,44.9,18.2,29.82,SSW,202,6.0,9.0,34,0.00,,---,0.31,VWS V14.01,2013-02-02 16:16:00,
2013-02-02 11:17:00,45.1,18.4,29.82,SSW,206,7.0,10.0,34,0.00,,---,0.31,VWS V14.01,2013-02-02 16:17:00,
2013-02-02 11:18:00,45.1,17.7,29.82,SW,224,6.0,10.0,33,0.00,,---,0.31,VWS V14.01,2013-02-02 16:18:00,
2013-02-02 11:19:00,45.0,17.6,29.82,SSW,198,5.0,10.0,33,0.00,,---,0.31,VWS V14.01,2013-02-02 16:19:00,
2013-02-02 11:20:00,44.9,17.6,29.82,South,174,4.0,10.0,33,0.00,,---,0.32,VWS V14.01,2013-02-02 16:20:00,
2013-02-02 11:21:00,45.1,18.4,29.82,SSW,211,7.0,10.0,34,0.00,,---,0.32,VWS V14.01,2013-02-02 16:21:00,
2013-02-02 11:22:00,45.1,17.7,29.82,SSW,208,6.0,10.0,33,0.00,,---,0.32,VWS V14.01,2013-02-02 16:22:00,
2013-02-02 11:23:00,45.0,17.6,29.82,SW,214,7.0,10.0,33,0.00,,---,0.32,VWS V14.01,2013-02-02 16:23:00,
2013-02-02 11:24:00,44.9,16.8,29.82,SW,231,5.0,10.0,32,0.00,,---,0.32,VWS V14.01,2013-02-02 16:24:00,
2013-02-02 11:25:00,45.0,16.9,29.82,WSW,252,4.0,10.0,32,0.00,,---,0.32,VWS V14.01,2013-02-02 16:25:00,
2013-02-02 11:26:00,45.2,18.5,29.82,SW,220,8.0,10.0,34,0.00,,---,0.32,VWS V14.01,2013-02-02 16:26:00,
2013-02-02 11:27:00,45.3,17.2,29.82,SW,220,5.0,10.0,32,0.00,,---,0.33,VWS V14.01,2013-02-02 16:27:00,
2013-02-02 11:28:00,45.2,17.1,29.82,SSW,194,6.0,10.0,32,0.00,,---,0.33,VWS V14.01,2013-02-02 16:28:00,
2013-02-02 11:29:00,45.2,17.1,29.82,WSW,240,8.0,10.0,32,0.00,,---,0.33,VWS V14.01,2013-02-02 16:29:00,
2013-02-02 11:30:00,45.3,18.6,29.81,SW,216,7.0,10.0,34,0.00,,---,0.33,VWS V14.01,2013-02-02 16:30:00,
2013-02-02 11:31:00,45.3,17.9,29.82,SSW,213,7.0,9.0,33,0.00,,---,0.33,VWS V14.01,2013-02-02 16:31:00,
2013-02-02 11:32:00,45.2,17.1,29.81,SSW,200,4.0,9.0,32,0.00,,---,0.33,VWS V14.01,2013-02-02 16:32:00,
2013-02-02 11:33:00,45.1,17.7,29.81,SSW,209,7.0,9.0,33,0.00,,---,0.33,VWS V14.01,2013-02-02 16:33:00,
2013-02-02 11:34:00,45.2,18.5,29.81,SW,221,4.0,9.0,34,0.00,,---,0.34,VWS V14.01,2013-02-02 16:34:00,
2013-02-02 11:35:00,45.4,18.0,29.81,SSW,194,4.0,9.0,33,0.00,,---,0.34,VWS V14.01,2013-02-02 16:35:00,
2013-02-02 11:36:00,45.5,18.1,29.81,SSW,195,3.0,9.0,33,0.00,,---,0.34,VWS V14.01,2013-02-02 16:36:00,
2013-02-02 11:37:00,45.6,18.2,29.81,SW,225,5.0,9.0,33,0.00,,---,0.34,VWS V14.01,2013-02-02 16:37:00,
2013-02-02 11:38:00,45.9,18.4,29.81,SW,234,9.0,9.0,33,0.00,,---,0.34,VWS V14.01,2013-02-02 16:38:00,
2013-02-02 11:39:00,46.0,17.8,29.81,SSW,199,10.0,10.0,32,0.00,,---,0.34,VWS V14.01,2013-02-02 16:39:00,
2013-02-02 11:40:00,46.0,17.1,29.81,SSW,213,4.0,10.0,31,0.00,,---,0.34,VWS V14.01,2013-02-02 16:40:00,
2013-02-02 11:41:00,46.0,17.8,29.81,SW,217,7.0,10.0,32,0.00,,---,0.34,VWS V14.01,2013-02-02 16:41:00,
2013-02-02 11:42:00,46.3,18.1,29.80,WSW,250,6.0,10.0,32,0.00,,---,0.35,VWS V14.01,2013-02-02 16:42:00,
2013-02-02 11:43:00,46.6,17.6,29.80,WSW,256,5.0,10.0,31,0.00,,---,0.35,VWS V14.01,2013-02-02 16:43:00,
2013-02-02 11:44:00,46.9,17.9,29.80,WNW,289,5.0,10.0,31,0.00,,---,0.35,VWS V14.01,2013-02-02 16:44:00,
2013-02-02 11:45:00,47.0,18.0,29.80,SW,223,7.0,10.0,31,0.00,,---,0.35,VWS V14.01,2013-02-02 16:45:00,
2013-02-02 11:46:00,47.0,16.4,29.80,SW,226,5.0,10.0,29,0.00,,---,0.35,VWS V14.01,2013-02-02 16:46:00,
2013-02-02 11:47:00,47.0,15.6,29.80,South,170,4.0,10.0,28,0.00,,---,0.35,VWS V14.01,2013-02-02 16:47:00,
2013-02-02 11:48:00,47.0,15.6,29.80,SSW,200,5.0,10.0,28,0.00,,---,0.35,VWS V14.01,2013-02-02 16:48:00,
2013-02-02 11:49:00,47.2,16.6,29.79,SSW,204,6.0,10.0,29,0.00,,---,0.36,VWS V14.01,2013-02-02 16:49:00,
2013-02-02 11:50:00,47.3,16.7,29.79,SW,219,6.0,10.0,29,0.00,,---,0.36,VWS V14.01,2013-02-02 16:50:00,
2013-02-02 11:51:00,47.2,15.8,29.79,West,262,6.0,10.0,28,0.00,,---,0.36,VWS V14.01,2013-02-02 16:51:00,
2013-02-02 11:52:00,47.3,16.7,29.79,WSW,240,9.0,10.0,29,0.00,,---,0.36,VWS V14.01,2013-02-02 16:52:00,
2013-02-02 11:53:00,47.4,15.9,29.79,SW,223,7.0,10.0,28,0.00,,---,0.36,VWS V14.01,2013-02-02 16:53:00,
2013-02-02 11:54:00,47.6,16.1,29.79,SW,232,5.0,10.0,28,0.00,,---,0.36,VWS V14.01,2013-02-02 16:54:00,
2013-02-02 11:55:00,47.8,17.1,29.79,SW,225,6.0,10.0,29,0.00,,---,0.36,VWS V14.01,2013-02-02 16:55:00,
2013-02-02 11:56:00,48.0,16.5,29.79,SW,228,6.0,10.0,28,0.00,,---,0.36,VWS V14.01,2013-02-02 16:56:00,
2013-02-02 11:57:00,48.1,17.4,29.79,WSW,240,6.0,10.0,29,0.00,,---,0.36,VWS V14.01,2013-02-02 16:57:00,
2013-02-02 11:58:00,48.1,16.5,29.78,WSW,255,5.0,10.0,28,0.00,,---,0.37,VWS V14.01,2013-02-02 16:58:00,
2013-02-02 11:59:00,48.0,16.5,29.78,WSW,238,5.0,10.0,28,0.00,,---,0.37,VWS V14.01,2013-02-02 16:59:00,
2013-02-02 12:00:00,47.9,16.4,29.78,West,273,5.0,10.0,28,0.00,,---,0.37,VWS V14.01,2013-02-02 17:00:00,
2013-02-02 12:01:00,48.1,17.4,29.78,NW,307,2.0,5.0,29,0.00,,---,0.37,VWS V14.01,2013-02-02 17:01:00,
2013-02-02 12:02:00,48.5,19.3,29.78,West,262,4.0,5.0,31,0.00,,---,0.37,VWS V14.01,2013-02-02 17:02:00,
2013-02-02 12:03:00,48.7,17.1,29.78,SW,227,9.0,9.0,28,0.00,,---,0.37,VWS V14.01,2013-02-02 17:03:00,
2013-02-02 12:04:00,48.5,16.9,29.78,SW,231,5.0,9.0,28,0.00,,---,0.37,VWS V14.01,2013-02-02 17:04:00,
2013-02-02 12:05:00,48.3,16.7,29.78,SW,229,5.0,9.0,28,0.00,,---,0.37,VWS V14.01,2013-02-02 17:05:00,
2013-02-02 12:06:00,48.3,16.7,29.78,SSW,199,2.0,9.0,28,0.00,,---,0.38,VWS V14.01,2013-02-02 17:06:00,
2013-02-02 12:07:00,48.2,16.6,29.78,SSW,205,1.0,9.0,28,0.00,,---,0.38,VWS V14.01,2013-02-02 17:07:00,
2013-02-02 12:08:00,48.2,16.6,29.78,SW,216,2.0,9.0,28,0.00,,---,0.38,VWS V14.01,2013-02-02 17:08:00,
2013-02-02 12:09:00,48.3,17.5,29.78,WSW,242,11.0,12.0,29,0.00,,---,0.38,VWS V14.01,2013-02-02 17:09:00,
2013-02-02 12:10:00,48.6,17.8,29.78,WSW,244,8.0,12.0,29,0.00,,---,0.38,VWS V14.01,2013-02-02 17:10:00,
2013-02-02 12:11:00,48.8,18.0,29.78,WSW,238,7.0,12.0,29,0.00,,---,0.38,VWS V14.01,2013-02-02 17:11:00,
2013-02-02 12:12:00,48.7,17.1,29.78,WSW,242,6.0,12.0,28,0.00,,---,0.38,VWS V14.01,2013-02-02 17:12:00,
2013-02-02 12:13:00,48.8,17.2,29.78,WSW,257,9.0,12.0,28,0.00,,---,0.38,VWS V14.01,2013-02-02 17:13:00,
2013-02-02 12:14:00,48.8,17.2,29.77,WSW,242,4.0,12.0,28,0.00,,---,0.38,VWS V14.01,2013-02-02 17:14:00,
2013-02-02 12:15:00,48.8,17.2,29.77,SSW,208,10.0,12.0,28,0.00,,---,0.38,VWS V14.01,2013-02-02 17:15:00,
2013-02-02 12:16:00,48.8,18.0,29.77,South,190,3.0,12.0,29,0.00,,---,0.39,VWS V14.01,2013-02-02 17:16:00,
2013-02-02 12:17:00,48.7,17.1,29.77,South,189,7.0,12.0,28,0.00,,---,0.39,VWS V14.01,2013-02-02 17:17:00,
2013-02-02 12:18:00,48.8,18.0,29.77,SW,217,7.0,12.0,29,0.00,,---,0.39,VWS V14.01,2013-02-02 17:18:00,
2013-02-02 12:19:00,48.9,18.1,29.77,SW,227,1.0,12.0,29,0.00,,---,0.39,VWS V14.01,2013-02-02 17:19:00,
2013-02-02 12:20:00,49.1,18.2,29.77,SW,219,10.0,12.0,29,0.00,,---,0.39,VWS V14.01,2013-02-02 17:20:00,
2013-02-02 12:21:00,49.1,18.2,29.77,SW,220,9.0,12.0,29,0.00,,---,0.39,VWS V14.01,2013-02-02 17:21:00,
2013-02-02 12:22:00,49.1,18.2,29.77,SSW,209,6.0,12.0,29,0.00,,---,0.39,VWS V14.01,2013-02-02 17:22:00,
2013-02-02 12:23:00,49.1,18.2,29.77,SSW,211,7.0,12.0,29,0.00,,---,0.39,VWS V14.01,2013-02-02 17:23:00,
2013-02-02 12:24:00,49.0,17.3,29.77,SSW,210,8.0,12.0,28,0.00,,---,0.39,VWS V14.01,2013-02-02 17:24:00,
2013-02-02 12:25:00,48.9,18.1,29.76,SSW,207,9.0,12.0,29,0.00,,---,0.39,VWS V14.01,2013-02-02 17:25:00,
2013-02-02 12:26:00,49.0,18.1,29.76,SSW,204,6.0,12.0,29,0.00,,---,0.40,VWS V14.01,2013-02-02 17:26:00,
2013-02-02 12:27:00,49.2,19.1,29.76,SW,214,7.0,12.0,30,0.00,,---,0.40,VWS V14.01,2013-02-02 17:27:00,
2013-02-02 12:28:00,47.0,15.6,29.80,South,170,4.0,10.0,28,0.00,,---,0.35,VWS V14.01,2013-02-02 17:28:00,
2013-02-02 12:29:00,49.2,18.3,29.76,South,177,2.0,12.0,29,0.00,,---,0.40,VWS V14.01,2013-02-02 17:29:00,
2013-02-02 12:30:00,49.4,19.3,29.76,SSW,209,5.0,12.0,30,0.00,,---,0.40,VWS V14.01,2013-02-02 17:30:00,
2013-02-02 12:31:00,49.6,17.9,29.76,WSW,242,2.0,5.0,28,0.00,,---,0.40,VWS V14.01,2013-02-02 17:31:00,
2013-02-02 12:32:00,49.8,18.0,29.76,SW,216,0.0,5.0,28,0.00,,---,0.40,VWS V14.01,2013-02-02 17:32:00,
2013-02-02 12:33:00,50.0,18.2,29.76,SSW,200,4.0,6.0,28,0.00,,---,0.40,VWS V14.01,2013-02-02 17:33:00,
2013-02-02 12:34:00,50.3,19.3,29.76,NW,310,6.0,6.0,29,0.00,,---,0.40,VWS V14.01,2013-02-02 17:34:00,
2013-02-02 12:35:00,50.6,19.5,29.76,NW,309,3.0,6.0,29,0.00,,---,0.40,VWS V14.01,2013-02-02 17:35:00,
2013-02-02 12:36:00,50.7,18.8,29.76,NW,306,4.0,6.0,28,0.00,,---,0.40,VWS V14.01,2013-02-02 17:36:00,
2013-02-02 12:37:00,51.0,19.9,29.76,WNW,296,7.0,7.0,29,0.00,,---,0.41,VWS V14.01,2013-02-02 17:37:00,
2013-02-02 12:38:00,51.3,19.3,29.76,NNW,338,6.0,7.0,28,0.00,,---,0.41,VWS V14.01,2013-02-02 17:38:00,
2013-02-02 12:39:00,51.5,19.5,29.76,SW,215,11.0,11.0,28,0.00,,---,0.41,VWS V14.01,2013-02-02 17:39:00,
2013-02-02 12:40:00,51.5,19.5,29.76,SSW,200,6.0,11.0,28,0.00,,---,0.41,VWS V14.01,2013-02-02 17:40:00,
2013-02-02 12:41:00,51.2,18.4,29.76,South,182,2.0,11.0,27,0.00,,---,0.41,VWS V14.01,2013-02-02 17:41:00,
2013-02-02 12:42:00,51.2,18.4,29.76,SSW,209,3.0,11.0,27,0.00,,---,0.41,VWS V14.01,2013-02-02 17:42:00,
2013-02-02 12:43:00,51.5,19.5,29.76,NNW,343,4.0,11.0,28,0.00,,---,0.41,VWS V14.01,2013-02-02 17:43:00,
2013-02-02 12:44:00,51.6,19.6,29.76,NW,317,2.0,11.0,28,0.00,,---,0.41,VWS V14.01,2013-02-02 17:44:00,
2013-02-02 12:45:00,51.8,19.8,29.76,WSW,251,1.0,11.0,28,0.00,,---,0.41,VWS V14.01,2013-02-02 17:45:00,
2013-02-02 12:46:00,52.0,19.1,29.75,SW,215,4.0,11.0,27,0.00,,---,0.41,VWS V14.01,2013-02-02 17:46:00,
2013-02-02 12:47:00,52.1,19.2,29.75,SSE,163,4.0,11.0,27,0.00,,---,0.42,VWS V14.01,2013-02-02 17:47:00,
2013-02-02 12:48:00,52.1,19.2,29.75,East,85,2.0,11.0,27,0.00,,---,0.42,VWS V14.01,2013-02-02 17:48:00,
2013-02-02 12:49:00,51.9,19.0,29.75,North,5,2.0,11.0,27,0.00,,---,0.42,VWS V14.01,2013-02-02 17:49:00,
2013-02-02 12:50:00,51.9,19.0,29.75,NNW,341,0.0,11.0,27,0.00,,---,0.42,VWS V14.01,2013-02-02 17:50:00,
2013-02-02 12:51:00,52.3,20.2,29.75,WNW,300,4.0,11.0,28,0.00,,---,0.42,VWS V14.01,2013-02-02 17:51:00,
2013-02-02 12:52:00,52.5,20.4,29.75,West,277,4.0,11.0,28,0.00,,---,0.42,VWS V14.01,2013-02-02 17:52:00,
2013-02-02 12:53:00,52.7,20.5,29.75,NW,309,6.0,11.0,28,0.00,,---,0.42,VWS V14.01,2013-02-02 17:53:00,
2013-02-02 12:54:00,52.7,18.8,29.75,West,279,2.0,11.0,26,0.00,,---,0.42,VWS V14.01,2013-02-02 17:54:00,
2013-02-02 12:55:00,52.7,18.8,29.75,WSW,249,10.0,11.0,26,0.00,,---,0.42,VWS V14.01,2013-02-02 17:55:00,
2013-02-02 12:56:00,52.6,18.7,29.75,WSW,239,8.0,11.0,26,0.00,,---,0.42,VWS V14.01,2013-02-02 17:56:00,
2013-02-02 12:57:00,52.4,17.6,29.75,SW,215,8.0,11.0,25,0.00,,---,0.42,VWS V14.01,2013-02-02 17:57:00,
2013-02-02 12:58:00,52.2,18.4,29.75,SW,216,4.0,11.0,26,0.00,,---,0.43,VWS V14.01,2013-02-02 17:58:00,
2013-02-02 12:59:00,52.0,17.3,29.75,SSW,196,6.0,11.0,25,0.00,,---,0.43,VWS V14.01,2013-02-02 17:59:00,
2013-02-02 13:00:00,51.7,17.9,29.75,SSW,213,5.0,11.0,26,0.00,,---,0.43,VWS V14.01,2013-02-02 18:00:00,
2013-02-02 13:01:00,51.6,17.9,29.75,South,186,3.0,7.0,26,0.00,,---,0.43,VWS V14.01,2013-02-02 18:01:00,
2013-02-02 13:02:00,51.7,17.9,29.75,SW,219,5.0,7.0,26,0.00,,---,0.43,VWS V14.01,2013-02-02 18:02:00,
2013-02-02 13:03:00,51.9,18.1,29.75,West,267,9.0,9.0,26,0.00,,---,0.43,VWS V14.01,2013-02-02 18:03:00,
2013-02-02 13:04:00,52.1,18.3,29.74,WSW,248,5.0,9.0,26,0.00,,---,0.43,VWS V14.01,2013-02-02 18:04:00,
2013-02-02 13:05:00,52.3,17.5,29.74,West,279,5.0,9.0,25,0.00,,---,0.43,VWS V14.01,2013-02-02 18:05:00,
2013-02-02 13:06:00,52.5,17.7,29.74,WSW,258,6.0,9.0,25,0.00,,---,0.43,VWS V14.01,2013-02-02 18:06:00,
2013-02-02 13:07:00,52.6,17.8,29.74,West,267,6.0,9.0,25,0.00,,---,0.43,VWS V14.01,2013-02-02 18:07:00,
2013-02-02 13:08:00,52.8,18.0,29.74,West,267,6.0,9.0,25,0.00,,---,0.43,VWS V14.01,2013-02-02 18:08:00,
2013-02-02 13:09:00,52.9,18.0,29.74,West,267,0.0,9.0,25,0.00,,---,0.44,VWS V14.01,2013-02-02 18:09:00,
2013-02-02 13:10:00,53.0,18.1,29.74,West,273,1.0,9.0,25,0.00,,---,0.44,VWS V14.01,2013-02-02 18:10:00,
2013-02-02 13:11:00,53.2,18.3,29.74,NW,304,2.0,9.0,25,0.00,,---,0.44,VWS V14.01,2013-02-02 18:11:00,
2013-02-02 13:12:00,53.5,18.6,29.74,WSW,257,6.0,9.0,25,0.00,,---,0.44,VWS V14.01,2013-02-02 18:12:00,
2013-02-02 13:13:00,53.8,18.8,29.74,WNW,286,1.0,9.0,25,0.00,,---,0.44,VWS V14.01,2013-02-02 18:13:00,
2013-02-02 13:14:00,53.9,18.0,29.74,SW,220,3.0,9.0,24,0.00,,---,0.44,VWS V14.01,2013-02-02 18:14:00,
2013-02-02 13:15:00,53.9,18.9,29.74,SW,218,2.0,9.0,25,0.00,,---,0.44,VWS V14.01,2013-02-02 18:15:00,
2013-02-02 13:16:00,53.9,18.0,29.74,SW,218,1.0,9.0,24,0.00,,---,0.44,VWS V14.01,2013-02-02 18:16:00,
2013-02-02 13:17:00,53.9,18.0,29.73,SW,227,2.0,9.0,24,0.00,,---,0.44,VWS V14.01,2013-02-02 18:17:00,
2013-02-02 13:18:00,53.9,18.9,29.73,SSW,204,6.0,9.0,25,0.00,,---,0.44,VWS V14.01,2013-02-02 18:18:00,
2013-02-02 13:19:00,53.9,18.9,29.73,SW,221,8.0,9.0,25,0.00,,---,0.44,VWS V14.01,2013-02-02 18:19:00,
2013-02-02 13:20:00,54.0,19.0,29.73,WSW,252,9.0,10.0,25,0.00,,---,0.45,VWS V14.01,2013-02-02 18:20:00,
2013-02-02 13:21:00,54.2,18.2,29.73,West,261,1.0,10.0,24,0.00,,---,0.45,VWS V14.01,2013-02-02 18:21:00,
2013-02-02 13:22:00,54.4,19.3,29.73,SW,236,4.0,10.0,25,0.00,,---,0.45,VWS V14.01,2013-02-02 18:22:00,
2013-02-02 13:23:00,54.5,18.5,29.73,WSW,242,6.0,10.0,24,0.00,,---,0.45,VWS V14.01,2013-02-02 18:23:00,
2013-02-02 13:24:00,54.6,18.5,29.73,West,259,8.0,10.0,24,0.00,,---,0.45,VWS V14.01,2013-02-02 18:24:00,
2013-02-02 13:25:00,54.6,18.5,29.73,West,259,5.0,10.0,24,0.00,,---,0.45,VWS V14.01,2013-02-02 18:25:00,
2013-02-02 13:26:00,54.5,17.5,29.73,West,281,7.0,10.0,23,0.00,,---,0.45,VWS V14.01,2013-02-02 18:26:00,
2013-02-02 13:27:00,54.4,17.4,29.73,West,270,10.0,11.0,23,0.00,,---,0.45,VWS V14.01,2013-02-02 18:27:00,
2013-02-02 13:28:00,54.3,17.3,29.73,West,276,7.0,11.0,23,0.00,,---,0.45,VWS V14.01,2013-02-02 18:28:00,
2013-02-02 13:29:00,54.2,17.2,29.73,West,277,5.0,11.0,23,0.00,,---,0.45,VWS V14.01,2013-02-02 18:29:00,
2013-02-02 13:30:00,54.2,17.2,29.73,West,264,10.0,11.0,23,0.00,,---,0.45,VWS V14.01,2013-02-02 18:30:00,
2013-02-02 13:31:00,54.2,17.2,29.73,SSW,210,7.0,10.0,23,0.00,,---,0.46,VWS V14.01,2013-02-02 18:31:00,
2013-02-02 13:32:00,54.2,18.2,29.73,SSW,211,9.0,10.0,24,0.00,,---,0.46,VWS V14.01,2013-02-02 18:32:00,
2013-02-02 13:33:00,54.1,17.1,29.73,SSW,213,6.0,10.0,23,0.00,,---,0.46,VWS V14.01,2013-02-02 18:33:00,
2013-02-02 13:34:00,54.0,17.1,29.73,SW,231,9.0,10.0,23,0.00,,---,0.46,VWS V14.01,2013-02-02 18:34:00,
2013-02-02 13:35:00,53.9,18.0,29.73,SW,236,8.0,10.0,24,0.00,,---,0.46,VWS V14.01,2013-02-02 18:35:00,
2013-02-02 13:36:00,54.0,18.0,29.72,SW,232,2.0,10.0,24,0.00,,---,0.46,VWS V14.01,2013-02-02 18:36:00,
2013-02-02 13:37:00,54.1,18.1,29.72,SW,234,1.0,10.0,24,0.00,,---,0.46,VWS V14.01,2013-02-02 18:37:00,
2013-02-02 13:38:00,54.3,18.3,29.72,SW,234,0.0,10.0,24,0.00,,---,0.46,VWS V14.01,2013-02-02 18:38:00,
2013-02-02 13:39:00,54.3,18.3,29.72,SW,234,0.0,10.0,24,0.00,,---,0.46,VWS V14.01,2013-02-02 18:39:00,
2013-02-02 13:40:00,54.8,19.7,29.72,SW,217,8.0,10.0,25,0.00,,---,0.46,VWS V14.01,2013-02-02 18:40:00,
2013-02-02 13:41:00,55.0,17.9,29.72,West,277,11.0,11.0,23,0.00,,---,0.46,VWS V14.01,2013-02-02 18:41:00,
2013-02-02 13:42:00,55.1,18.0,29.72,WSW,237,8.0,11.0,23,0.00,,---,0.46,VWS V14.01,2013-02-02 18:42:00,
2013-02-02 13:43:00,55.2,19.1,29.72,WNW,296,8.0,12.0,24,0.00,,---,0.47,VWS V14.01,2013-02-02 18:43:00,
2013-02-02 13:44:00,55.3,19.1,29.72,NW,319,4.0,12.0,24,0.00,,---,0.47,VWS V14.01,2013-02-02 18:44:00,
2013-02-02 13:45:00,55.5,19.3,29.72,WNW,300,5.0,12.0,24,0.00,,---,0.47,VWS V14.01,2013-02-02 18:45:00,
2013-02-02 13:46:00,55.6,18.4,29.72,NW,313,7.0,12.0,23,0.00,,---,0.47,VWS V14.01,2013-02-02 18:46:00,
2013-02-02 13:47:00,55.6,19.4,29.72,West,281,6.0,12.0,24,0.00,,---,0.47,VWS V14.01,2013-02-02 18:47:00,
2013-02-02 13:48:00,55.5,18.3,29.72,West,267,2.0,12.0,23,0.00,,---,0.47,VWS V14.01,2013-02-02 18:48:00,
2013-02-02 13:49:00,55.5,18.3,29.72,NW,311,3.0,12.0,23,0.00,,---,0.47,VWS V14.01,2013-02-02 18:49:00,
2013-02-02 13:50:00,55.5,19.3,29.72,NW,311,1.0,12.0,24,0.00,,---,0.47,VWS V14.01,2013-02-02 18:50:00,
2013-02-02 13:51:00,55.4,18.2,29.72,WNW,288,5.0,12.0,23,0.00,,---,0.47,VWS V14.01,2013-02-02 18:51:00,
2013-02-02 13:52:00,55.5,18.3,29.72,West,270,1.0,12.0,23,0.00,,---,0.47,VWS V14.01,2013-02-02 18:52:00,
2013-02-02 13:53:00,55.7,20.4,29.72,West,270,1.0,12.0,25,0.00,,---,0.47,VWS V14.01,2013-02-02 18:53:00,
2013-02-02 13:54:00,55.9,20.6,29.72,WNW,289,4.0,12.0,25,0.00,,---,0.47,VWS V14.01,2013-02-02 18:54:00,
2013-02-02 13:55:00,56.2,19.9,29.72,WNW,298,1.0,12.0,24,0.00,,---,0.48,VWS V14.01,2013-02-02 18:55:00,
2013-02-02 13:56:00,56.2,18.9,29.72,NNW,344,6.0,12.0,23,0.00,,---,0.48,VWS V14.01,2013-02-02 18:56:00,
2013-02-02 13:57:00,56.1,18.8,29.72,WNW,284,5.0,12.0,23,0.00,,---,0.48,VWS V14.01,2013-02-02 18:57:00,
2013-02-02 13:58:00,56.1,18.8,29.72,WNW,288,2.0,12.0,23,0.00,,---,0.48,VWS V14.01,2013-02-02 18:58:00,
2013-02-02 13:59:00,56.0,18.8,29.72,WNW,291,5.0,12.0,23,0.00,,---,0.48,VWS V14.01,2013-02-02 18:59:00,
2013-02-02 14:00:00,55.9,19.6,29.71,NNE,29,1.0,12.0,24,0.00,,---,0.48,VWS V14.01,2013-02-02 19:00:00,
2013-02-02 14:01:00,56.1,19.8,29.71,NNE,29,1.0,2.0,24,0.00,,---,0.48,VWS V14.01,2013-02-02 19:01:00,
2013-02-02 14:02:00,56.3,20.0,29.71,North,350,4.0,6.0,24,0.00,,---,0.48,VWS V14.01,2013-02-02 19:02:00,
2013-02-02 14:03:00,56.2,18.9,29.71,North,360,2.0,6.0,23,0.00,,---,0.48,VWS V14.01,2013-02-02 19:03:00,
2013-02-02 14:04:00,56.1,19.8,29.71,North,5,2.0,6.0,24,0.00,,---,0.48,VWS V14.01,2013-02-02 19:04:00,
2013-02-02 14:05:00,56.0,18.8,29.71,NNW,340,6.0,6.0,23,0.00,,---,0.48,VWS V14.01,2013-02-02 19:05:00,
2013-02-02 14:06:00,56.0,18.8,29.71,WNW,294,4.0,7.0,23,0.00,,---,0.48,VWS V14.01,2013-02-02 19:06:00,
2013-02-02 14:07:00,56.0,18.8,29.72,WSW,254,3.0,7.0,23,0.00,,---,0.48,VWS V14.01,2013-02-02 19:07:00,
2013-02-02 14:08:00,56.1,19.8,29.71,SW,236,4.0,7.0,24,0.00,,---,0.48,VWS V14.01,2013-02-02 19:08:00,
2013-02-02 14:09:00,56.3,20.0,29.71,NNW,345,5.0,7.0,24,0.00,,---,0.48,VWS V14.01,2013-02-02 19:09:00,
2013-02-02 14:10:00,56.4,20.1,29.71,North,355,5.0,7.0,24,0.00,,---,0.48,VWS V14.01,2013-02-02 19:10:00,
2013-02-02 14:11:00,56.6,20.2,29.71,WNW,284,1.0,7.0,24,0.00,,---,0.48,VWS V14.01,2013-02-02 19:11:00,
2013-02-02 14:12:00,56.6,20.2,29.71,West,271,6.0,9.0,24,0.00,,---,0.48,VWS V14.01,2013-02-02 19:12:00,
2013-02-02 14:13:00,56.6,19.2,29.71,West,269,4.0,9.0,23,0.00,,---,0.49,VWS V14.01,2013-02-02 19:13:00,
2013-02-02 14:14:00,56.7,20.3,29.71,WSW,257,9.0,10.0,24,0.00,,---,0.49,VWS V14.01,2013-02-02 19:14:00,
2013-02-02 14:15:00,56.7,20.3,29.71,West,271,11.0,12.0,24,0.00,,---,0.49,VWS V14.01,2013-02-02 19:15:00,
2013-02-02 14:16:00,56.6,20.2,29.71,WSW,251,8.0,12.0,24,0.00,,---,0.49,VWS V14.01,2013-02-02 19:16:00,
2013-02-02 14:17:00,56.5,20.2,29.71,WSW,239,6.0,12.0,24,0.00,,---,0.49,VWS V14.01,2013-02-02 19:17:00,
2013-02-02 14:18:00,56.3,20.0,29.71,WSW,247,4.0,12.0,24,0.00,,---,0.49,VWS V14.01,2013-02-02 19:18:00,
2013-02-02 14:19:00,56.4,20.1,29.71,WSW,257,9.0,13.0,24,0.00,,---,0.49,VWS V14.01,2013-02-02 19:19:00,
2013-02-02 14:20:00,56.4,20.1,29.71,West,276,8.0,13.0,24,0.00,,---,0.49,VWS V14.01,2013-02-02 19:20:00,
2013-02-02 14:21:00,56.4,20.1,29.71,WSW,246,13.0,13.0,24,0.00,,---,0.49,VWS V14.01,2013-02-02 19:21:00,
2013-02-02 14:22:00,56.3,20.0,29.71,West,275,9.0,13.0,24,0.00,,---,0.49,VWS V14.01,2013-02-02 19:22:00,
2013-02-02 14:23:00,56.2,19.9,29.71,West,259,10.0,13.0,24,0.00,,---,0.49,VWS V14.01,2013-02-02 19:23:00,
2013-02-02 14:24:00,56.2,19.9,29.71,West,277,9.0,13.0,24,0.00,,---,0.49,VWS V14.01,2013-02-02 19:24:00,
2013-02-02 14:25:00,56.2,19.9,29.71,WNW,292,7.0,13.0,24,0.00,,---,0.49,VWS V14.01,2013-02-02 19:25:00,
2013-02-02 14:26:00,56.1,19.8,29.71,WNW,290,3.0,13.0,24,0.00,,---,0.49,VWS V14.01,2013-02-02 19:26:00,
2013-02-02 14:27:00,56.1,19.8,29.71,WNW,287,8.0,13.0,24,0.00,,---,0.49,VWS V14.01,2013-02-02 19:27:00,
2013-02-02 14:28:00,56.1,19.8,29.70,WNW,292,8.0,13.0,24,0.00,,---,0.50,VWS V14.01,2013-02-02 19:28:00,
2013-02-02 14:29:00,56.2,20.9,29.70,NW,325,2.0,13.0,25,0.00,,---,0.50,VWS V14.01,2013-02-02 19:29:00,
2013-02-02 14:30:00,56.4,21.0,29.70,WSW,250,6.0,13.0,25,0.00,,---,0.50,VWS V14.01,2013-02-02 19:30:00,
2013-02-02 14:31:00,56.4,20.1,29.70,WSW,254,4.0,6.0,24,0.00,,---,0.50,VWS V14.01,2013-02-02 19:31:00,
2013-02-02 14:32:00,56.4,20.1,29.70,WNW,299,4.0,7.0,24,0.00,,---,0.50,VWS V14.01,2013-02-02 19:32:00,
2013-02-02 14:33:00,56.4,20.1,29.70,West,261,7.0,7.0,24,0.00,,---,0.50,VWS V14.01,2013-02-02 19:33:00,
2013-02-02 14:34:00,56.4,20.1,29.70,West,269,5.0,8.0,24,0.00,,---,0.50,VWS V14.01,2013-02-02 19:34:00,
2013-02-02 14:35:00,56.4,20.1,29.70,NW,314,7.0,9.0,24,0.00,,---,0.50,VWS V14.01,2013-02-02 19:35:00,
2013-02-02 14:36:00,56.4,20.1,29.70,NNW,327,5.0,10.0,24,0.00,,---,0.50,VWS V14.01,2013-02-02 19:36:00,
2013-02-02 14:37:00,56.4,20.1,29.70,West,259,4.0,10.0,24,0.00,,---,0.50,VWS V14.01,2013-02-02 19:37:00,
2013-02-02 14:38:00,56.4,20.1,29.70,West,271,2.0,10.0,24,0.00,,---,0.50,VWS V14.01,2013-02-02 19:38:00,
2013-02-02 14:39:00,56.5,20.2,29.70,WNW,298,3.0,10.0,24,0.00,,---,0.50,VWS V14.01,2013-02-02 19:39:00,
2013-02-02 14:40:00,56.5,20.2,29.70,NW,306,5.0,10.0,24,0.00,,---,0.50,VWS V14.01,2013-02-02 19:40:00,
2013-02-02 14:41:00,56.5,20.2,29.70,NW,306,5.0,10.0,24,0.00,,---,0.50,VWS V14.01,2013-02-02 19:41:00,
2013-02-02 14:42:00,56.8,20.4,29.70,SW,236,7.0,10.0,24,0.00,,---,0.50,VWS V14.01,2013-02-02 19:42:00,
2013-02-02 14:43:00,56.9,21.5,29.70,West,270,7.0,10.0,25,0.00,,---,0.50,VWS V14.01,2013-02-02 19:43:00,
2013-02-02 14:44:00,56.9,21.5,29.70,WSW,242,10.0,11.0,25,0.00,,---,0.50,VWS V14.01,2013-02-02 19:44:00,
2013-02-02 14:45:00,56.9,20.5,29.70,WSW,242,5.0,11.0,24,0.00,,---,0.50,VWS V14.01,2013-02-02 19:45:00,
2013-02-02 14:46:00,56.8,21.4,29.70,WSW,249,7.0,11.0,25,0.00,,---,0.50,VWS V14.01,2013-02-02 19:46:00,
2013-02-02 14:47:00,56.8,20.4,29.70,WSW,238,7.0,11.0,24,0.00,,---,0.50,VWS V14.01,2013-02-02 19:47:00,
2013-02-02 14:48:00,56.8,21.4,29.70,West,267,8.0,11.0,25,0.00,,---,0.51,VWS V14.01,2013-02-02 19:48:00,
2013-02-02 14:49:00,56.7,20.3,29.70,WNW,284,9.0,11.0,24,0.00,,---,0.51,VWS V14.01,2013-02-02 19:49:00,
2013-02-02 14:50:00,56.8,21.4,29.70,WSW,258,7.0,11.0,25,0.00,,---,0.51,VWS V14.01,2013-02-02 19:50:00,
2013-02-02 14:51:00,56.8,20.4,29.70,West,270,5.0,11.0,24,0.00,,---,0.51,VWS V14.01,2013-02-02 19:51:00,
2013-02-02 14:52:00,56.8,21.4,29.70,SW,232,8.0,11.0,25,0.00,,---,0.51,VWS V14.01,2013-02-02 19:52:00,
2013-02-02 14:53:00,56.9,21.5,29.70,WSW,246,6.0,11.0,25,0.00,,---,0.51,VWS V14.01,2013-02-02 19:53:00,
2013-02-02 14:54:00,57.0,21.5,29.70,West,267,6.0,11.0,25,0.00,,---,0.51,VWS V14.01,2013-02-02 19:54:00,
2013-02-02 14:55:00,57.2,21.7,29.70,NW,311,4.0,11.0,25,0.00,,---,0.51,VWS V14.01,2013-02-02 19:55:00,
2013-02-02 14:56:00,57.2,21.7,29.70,West,275,7.0,11.0,25,0.00,,---,0.51,VWS V14.01,2013-02-02 19:56:00,
2013-02-02 14:57:00,57.2,21.7,29.70,WNW,290,2.0,11.0,25,0.00,,---,0.51,VWS V14.01,2013-02-02 19:57:00,
2013-02-02 14:58:00,57.2,21.7,29.70,WNW,288,2.0,11.0,25,0.00,,---,0.51,VWS V14.01,2013-02-02 19:58:00,
2013-02-02 14:59:00,57.2,20.8,29.70,WSW,257,2.0,11.0,24,0.00,,---,0.51,VWS V14.01,2013-02-02 19:59:00,
2013-02-02 15:00:00,57.1,21.6,29.69,West,271,2.0,11.0,25,0.00,,---,0.51,VWS V14.01,2013-02-02 20:00:00,
2013-02-02 15:01:00,57.2,21.7,29.69,WNW,293,4.0,5.0,25,0.00,,---,0.51,VWS V14.01,2013-02-02 20:01:00,
2013-02-02 15:02:00,57.3,21.8,29.69,NW,312,4.0,6.0,25,0.00,,---,0.51,VWS V14.01,2013-02-02 20:02:00,
2013-02-02 15:03:00,57.4,20.9,29.69,NW,312,1.0,6.0,24,0.00,,---,0.51,VWS V14.01,2013-02-02 20:03:00,
2013-02-02 15:04:00,57.3,20.8,29.69,NW,320,5.0,7.0,24,0.00,,---,0.51,VWS V14.01,2013-02-02 20:04:00,
2013-02-02 15:05:00,57.2,20.8,29.69,NW,320,1.0,7.0,24,0.00,,---,0.51,VWS V14.01,2013-02-02 20:05:00,
2013-02-02 15:06:00,57.1,20.7,29.69,West,266,3.0,7.0,24,0.00,,---,0.51,VWS V14.01,2013-02-02 20:06:00,
2013-02-02 15:07:00,57.0,20.6,29.69,SW,223,1.0,7.0,24,0.00,,---,0.51,VWS V14.01,2013-02-02 20:07:00,
2013-02-02 15:08:00,57.0,20.6,29.69,SW,223,1.0,7.0,24,0.00,,---,0.51,VWS V14.01,2013-02-02 20:08:00,
2013-02-02 15:09:00,57.1,21.6,29.69,SW,223,0.0,7.0,25,0.00,,---,0.52,VWS V14.01,2013-02-02 20:09:00,
2013-02-02 15:10:00,57.3,21.8,29.69,NNW,337,3.0,7.0,25,0.00,,---,0.52,VWS V14.01,2013-02-02 20:10:00,
2013-02-02 15:11:00,57.3,21.8,29.69,North,355,4.0,7.0,25,0.00,,---,0.52,VWS V14.01,2013-02-02 20:11:00,
2013-02-02 15:12:00,57.3,20.8,29.69,North,355,1.0,7.0,24,0.00,,---,0.52,VWS V14.01,2013-02-02 20:12:00,
2013-02-02 15:13:00,57.4,21.9,29.69,WNW,282,5.0,7.0,25,0.00,,---,0.52,VWS V14.01,2013-02-02 20:13:00,
2013-02-02 15:14:00,57.4,20.9,29.69,SW,226,4.0,7.0,24,0.00,,---,0.52,VWS V14.01,2013-02-02 20:14:00,
2013-02-02 15:15:00,57.4,21.9,29.69,West,266,3.0,8.0,25,0.00,,---,0.52,VWS V14.01,2013-02-02 20:15:00,
2013-02-02 15:16:00,57.5,22.9,29.69,West,261,5.0,8.0,26,0.00,,---,0.52,VWS V14.01,2013-02-02 20:16:00,
2013-02-02 15:17:00,57.6,22.1,29.69,WSW,254,5.0,10.0,25,0.00,,---,0.52,VWS V14.01,2013-02-02 20:17:00,
2013-02-02 15:18:00,57.7,22.1,29.69,SW,226,7.0,10.0,25,0.00,,---,0.52,VWS V14.01,2013-02-02 20:18:00,
2013-02-02 15:19:00,57.8,22.2,29.68,WSW,248,6.0,10.0,25,0.00,,---,0.52,VWS V14.01,2013-02-02 20:19:00,
2013-02-02 15:20:00,57.9,22.3,29.68,WSW,257,5.0,10.0,25,0.00,,---,0.52,VWS V14.01,2013-02-02 20:20:00,
2013-02-02 15:21:00,57.9,22.3,29.68,West,261,7.0,10.0,25,0.00,,---,0.52,VWS V14.01,2013-02-02 20:21:00,
2013-02-02 15:22:00,57.8,21.3,29.68,WSW,239,6.0,10.0,24,0.00,,---,0.52,VWS V14.01,2013-02-02 20:22:00,
2013-02-02 15:23:00,57.7,22.1,29.68,West,263,6.0,10.0,25,0.00,,---,0.52,VWS V14.01,2013-02-02 20:23:00,
2013-02-02 15:24:00,57.6,21.1,29.68,SW,227,6.0,10.0,24,0.00,,---,0.52,VWS V14.01,2013-02-02 20:24:00,
2013-02-02 15:25:00,57.5,21.0,29.68,WSW,250,6.0,10.0,24,0.00,,---,0.52,VWS V14.01,2013-02-02 20:25:00,
2013-02-02 15:26:00,57.5,22.0,29.68,SW,232,5.0,10.0,25,0.00,,---,0.52,VWS V14.01,2013-02-02 20:26:00,
2013-02-02 15:27:00,57.4,21.9,29.68,SW,229,7.0,10.0,25,0.00,,---,0.52,VWS V14.01,2013-02-02 20:27:00,
2013-02-02 15:28:00,57.5,22.0,29.68,SW,224,6.0,10.0,25,0.00,,---,0.52,VWS V14.01,2013-02-02 20:28:00,
2013-02-02 15:29:00,57.5,22.0,29.68,SW,221,6.0,10.0,25,0.00,,---,0.52,VWS V14.01,2013-02-02 20:29:00,
2013-02-02 15:30:00,57.4,20.9,29.68,SW,236,6.0,10.0,24,0.00,,---,0.52,VWS V14.01,2013-02-02 20:30:00,
2013-02-02 15:31:00,57.3,21.8,29.68,WSW,240,7.0,7.0,25,0.00,,---,0.52,VWS V14.01,2013-02-02 20:31:00,
2013-02-02 15:32:00,57.2,21.7,29.68,WSW,245,4.0,7.0,25,0.00,,---,0.52,VWS V14.01,2013-02-02 20:32:00,
2013-02-02 15:33:00,57.2,21.7,29.68,WSW,245,2.0,7.0,25,0.00,,---,0.52,VWS V14.01,2013-02-02 20:33:00,
2013-02-02 15:34:00,57.3,21.8,29.68,SW,214,7.0,8.0,25,0.00,,---,0.52,VWS V14.01,2013-02-02 20:34:00,
2013-02-02 15:35:00,57.3,21.8,29.68,SW,219,6.0,8.0,25,0.00,,---,0.52,VWS V14.01,2013-02-02 20:35:00,
2013-02-02 15:36:00,57.2,21.7,29.68,SSW,207,7.0,8.0,25,0.00,,---,0.53,VWS V14.01,2013-02-02 20:36:00,
2013-02-02 15:37:00,57.1,21.6,29.68,SW,217,6.0,8.0,25,0.00,,---,0.53,VWS V14.01,2013-02-02 20:37:00,
2013-02-02 15:38:00,57.1,21.6,29.68,SW,221,5.0,8.0,25,0.00,,---,0.53,VWS V14.01,2013-02-02 20:38:00,
2013-02-02 15:39:00,57.1,21.6,29.68,WSW,246,6.0,8.0,25,0.00,,---,0.53,VWS V14.01,2013-02-02 20:39:00,
2013-02-02 15:40:00,57.1,21.6,29.68,SW,225,4.0,8.0,25,0.00,,---,0.53,VWS V14.01,2013-02-02 20:40:00,
2013-02-02 15:41:00,57.1,21.6,29.68,SW,223,6.0,8.0,25,0.00,,---,0.53,VWS V14.01,2013-02-02 20:41:00,
2013-02-02 15:42:00,57.2,21.7,29.68,WSW,247,4.0,8.0,25,0.00,,---,0.53,VWS V14.01,2013-02-02 20:42:00,
2013-02-02 15:43:00,57.3,21.8,29.68,SW,224,4.0,8.0,25,0.00,,---,0.53,VWS V14.01,2013-02-02 20:43:00,
2013-02-02 15:44:00,57.3,21.8,29.68,SW,232,6.0,8.0,25,0.00,,---,0.53,VWS V14.01,2013-02-02 20:44:00,
2013-02-02 15:45:00,57.4,21.9,29.68,WSW,247,4.0,8.0,25,0.00,,---,0.53,VWS V14.01,2013-02-02 20:45:00,
2013-02-02 15:46:00,57.5,22.9,29.68,WSW,246,7.0,8.0,26,0.00,,---,0.53,VWS V14.01,2013-02-02 20:46:00,
2013-02-02 15:47:00,57.6,22.1,29.68,West,263,6.0,8.0,25,0.00,,---,0.53,VWS V14.01,2013-02-02 20:47:00,
2013-02-02 15:48:00,57.7,22.1,29.68,West,262,4.0,8.0,25,0.00,,---,0.53,VWS V14.01,2013-02-02 20:48:00,
2013-02-02 15:49:00,57.7,22.1,29.68,West,263,7.0,8.0,25,0.00,,---,0.53,VWS V14.01,2013-02-02 20:49:00,
2013-02-02 15:50:00,57.7,22.1,29.68,West,271,5.0,10.0,25,0.00,,---,0.53,VWS V14.01,2013-02-02 20:50:00,
2013-02-02 15:51:00,57.7,22.1,29.68,WNW,284,5.0,10.0,25,0.00,,---,0.53,VWS V14.01,2013-02-02 20:51:00,
2013-02-02 15:52:00,57.7,22.1,29.67,NW,307,5.0,10.0,25,0.00,,---,0.53,VWS V14.01,2013-02-02 20:52:00,
2013-02-02 15:53:00,57.8,22.2,29.67,WNW,302,5.0,10.0,25,0.00,,---,0.53,VWS V14.01,2013-02-02 20:53:00,
2013-02-02 15:54:00,57.8,22.2,29.67,WSW,238,8.0,10.0,25,0.00,,---,0.53,VWS V14.01,2013-02-02 20:54:00,
2013-02-02 15:55:00,57.8,22.2,29.67,SW,223,7.0,10.0,25,0.00,,---,0.53,VWS V14.01,2013-02-02 20:55:00,
2013-02-02 15:56:00,57.8,22.2,29.67,SW,229,7.0,10.0,25,0.00,,---,0.53,VWS V14.01,2013-02-02 20:56:00,
2013-02-02 15:57:00,57.8,22.2,29.67,WSW,252,7.0,10.0,25,0.00,,---,0.53,VWS V14.01,2013-02-02 20:57:00,
2013-02-02 15:58:00,57.8,21.3,29.67,WSW,244,5.0,10.0,24,0.00,,---,0.53,VWS V14.01,2013-02-02 20:58:00,
2013-02-02 15:59:00,57.8,22.2,29.67,WSW,246,4.0,10.0,25,0.00,,---,0.53,VWS V14.01,2013-02-02 20:59:00,
2013-02-02 16:00:00,57.7,22.1,29.67,SW,226,7.0,10.0,25,0.00,,---,0.53,VWS V14.01,2013-02-02 21:00:00,
2013-02-02 16:01:00,57.7,22.1,29.67,SW,226,5.0,7.0,25,0.00,,---,0.53,VWS V14.01,2013-02-02 21:01:00,
2013-02-02 16:02:00,57.6,22.1,29.67,SSW,212,4.0,7.0,25,0.00,,---,0.53,VWS V14.01,2013-02-02 21:02:00,
2013-02-02 16:03:00,57.6,23.0,29.67,SSW,204,3.0,7.0,26,0.00,,---,0.53,VWS V14.01,2013-02-02 21:03:00,
2013-02-02 16:04:00,57.7,22.1,29.67,SSW,213,7.0,8.0,25,0.00,,---,0.53,VWS V14.01,2013-02-02 21:04:00,
2013-02-02 16:05:00,57.7,23.1,29.67,SSW,207,5.0,8.0,26,0.00,,---,0.54,VWS V14.01,2013-02-02 21:05:00,
2013-02-02 16:06:00,57.7,22.1,29.67,SSW,196,8.0,9.0,25,0.00,,---,0.54,VWS V14.01,2013-02-02 21:06:00,
2013-02-02 16:07:00,57.7,22.1,29.67,South,189,6.0,9.0,25,0.00,,---,0.54,VWS V14.01,2013-02-02 21:07:00,
2013-02-02 16:08:00,57.7,23.1,29.67,SW,226,7.0,9.0,26,0.00,,---,0.54,VWS V14.01,2013-02-02 21:08:00,
2013-02-02 16:09:00,57.7,22.1,29.67,SSW,200,8.0,9.0,25,0.00,,---,0.54,VWS V14.01,2013-02-02 21:09:00,
2013-02-02 16:10:00,57.7,22.1,29.67,SW,221,6.0,9.0,25,0.00,,---,0.54,VWS V14.01,2013-02-02 21:10:00,
2013-02-02 16:11:00,57.8,22.2,29.67,SW,234,6.0,9.0,25,0.00,,---,0.54,VWS V14.01,2013-02-02 21:11:00,
2013-02-02 16:12:00,57.7,22.1,29.67,SW,227,4.0,9.0,25,0.00,,---,0.54,VWS V14.01,2013-02-02 21:12:00,
2013-02-02 16:13:00,57.7,22.1,29.67,SW,219,5.0,9.0,25,0.00,,---,0.54,VWS V14.01,2013-02-02 21:13:00,
2013-02-02 16:14:00,57.6,22.1,29.67,SW,219,4.0,9.0,25,0.00,,---,0.54,VWS V14.01,2013-02-02 21:14:00,
2013-02-02 16:15:00,57.6,22.1,29.67,SW,219,2.0,9.0,25,0.00,,---,0.54,VWS V14.01,2013-02-02 21:15:00,
2013-02-02 16:16:00,57.6,22.1,29.67,SW,219,5.0,9.0,25,0.00,,---,0.54,VWS V14.01,2013-02-02 21:16:00,
2013-02-02 16:17:00,57.6,22.1,29.67,SW,234,6.0,9.0,25,0.00,,---,0.54,VWS V14.01,2013-02-02 21:17:00,
2013-02-02 16:18:00,57.7,22.1,29.66,SW,227,5.0,9.0,25,0.00,,---,0.54,VWS V14.01,2013-02-02 21:18:00,
2013-02-02 16:19:00,57.7,22.1,29.66,SW,221,9.0,9.0,25,0.00,,---,0.54,VWS V14.01,2013-02-02 21:19:00,
2013-02-02 16:20:00,57.7,23.1,29.66,WSW,250,7.0,9.0,26,0.00,,---,0.54,VWS V14.01,2013-02-02 21:20:00,
2013-02-02 16:21:00,57.7,22.1,29.66,WSW,242,7.0,9.0,25,0.00,,---,0.54,VWS V14.01,2013-02-02 21:21:00,
2013-02-02 16:22:00,57.7,22.1,29.66,WSW,255,7.0,9.0,25,0.00,,---,0.54,VWS V14.01,2013-02-02 21:22:00,
2013-02-02 16:23:00,57.8,22.2,29.66,WSW,239,6.0,9.0,25,0.00,,---,0.54,VWS V14.01,2013-02-02 21:23:00,
2013-02-02 16:24:00,57.8,22.2,29.66,SW,233,5.0,9.0,25,0.00,,---,0.54,VWS V14.01,2013-02-02 21:24:00,
2013-02-02 16:25:00,57.8,22.2,29.66,WSW,246,6.0,9.0,25,0.00,,---,0.54,VWS V14.01,2013-02-02 21:25:00,
2013-02-02 16:26:00,57.8,22.2,29.66,WSW,257,7.0,9.0,25,0.00,,---,0.54,VWS V14.01,2013-02-02 21:26:00,
2013-02-02 16:27:00,57.8,22.2,29.66,WSW,247,6.0,9.0,25,0.00,,---,0.54,VWS V14.01,2013-02-02 21:27:00,
2013-02-02 16:28:00,57.8,22.2,29.66,West,269,5.0,9.0,25,0.00,,---,0.54,VWS V14.01,2013-02-02 21:28:00,
2013-02-02 16:29:00,57.8,22.2,29.66,West,260,7.0,9.0,25,0.00,,---,0.54,VWS V14.01,2013-02-02 21:29:00,
2013-02-02 16:30:00,57.7,22.1,29.66,West,267,4.0,9.0,25,0.00,,---,0.54,VWS V14.01,2013-02-02 21:30:00,
2013-02-02 16:31:00,57.7,23.1,29.66,WSW,245,4.0,5.0,26,0.00,,---,0.54,VWS V14.01,2013-02-02 21:31:00,
2013-02-02 16:32:00,57.6,23.0,29.66,WSW,239,6.0,6.0,26,0.00,,---,0.54,VWS V14.01,2013-02-02 21:32:00,
2013-02-02 16:33:00,57.6,23.0,29.66,WSW,242,6.0,7.0,26,0.00,,---,0.54,VWS V14.01,2013-02-02 21:33:00,
2013-02-02 16:34:00,57.6,23.0,29.66,SW,221,6.0,7.0,26,0.00,,---,0.54,VWS V14.01,2013-02-02 21:34:00,
2013-02-02 16:35:00,57.6,23.0,29.66,SW,218,7.0,7.0,26,0.00,,---,0.54,VWS V14.01,2013-02-02 21:35:00,
2013-02-02 16:36:00,57.5,22.9,29.66,SSW,209,5.0,7.0,26,0.00,,---,0.54,VWS V14.01,2013-02-02 21:36:00,
2013-02-02 16:37:00,57.5,22.9,29.66,SW,221,6.0,9.0,26,0.00,,---,0.54,VWS V14.01,2013-02-02 21:37:00,
2013-02-02 16:38:00,57.5,22.9,29.66,SW,219,7.0,9.0,26,0.00,,---,0.54,VWS V14.01,2013-02-02 21:38:00,
2013-02-02 16:39:00,57.5,22.9,29.65,SW,219,7.0,9.0,26,0.00,,---,0.54,VWS V14.01,2013-02-02 21:39:00,
2013-02-02 16:40:00,57.5,22.9,29.65,SSW,205,4.0,9.0,26,0.00,,---,0.54,VWS V14.01,2013-02-02 21:40:00,
2013-02-02 16:41:00,57.5,22.9,29.65,SSW,207,7.0,9.0,26,0.00,,---,0.54,VWS V14.01,2013-02-02 21:41:00,
2013-02-02 16:42:00,57.5,22.9,29.65,SW,223,5.0,9.0,26,0.00,,---,0.54,VWS V14.01,2013-02-02 21:42:00,
2013-02-02 16:43:00,57.5,22.9,29.65,SW,223,5.0,9.0,26,0.00,,---,0.54,VWS V14.01,2013-02-02 21:43:00,
2013-02-02 16:44:00,57.5,22.9,29.65,SW,217,7.0,9.0,26,0.00,,---,0.54,VWS V14.01,2013-02-02 21:44:00,
2013-02-02 16:45:00,57.4,22.8,29.65,SW,236,6.0,9.0,26,0.00,,---,0.55,VWS V14.01,2013-02-02 21:45:00,
2013-02-02 16:46:00,57.4,22.8,29.65,SW,218,5.0,9.0,26,0.00,,---,0.55,VWS V14.01,2013-02-02 21:46:00,
2013-02-02 16:47:00,57.4,22.8,29.65,SW,216,6.0,9.0,26,0.00,,---,0.55,VWS V14.01,2013-02-02 21:47:00,
2013-02-02 16:48:00,57.3,23.6,29.65,SSW,209,5.0,9.0,27,0.00,,---,0.55,VWS V14.01,2013-02-02 21:48:00,
2013-02-02 16:49:00,57.3,22.7,29.65,SW,218,5.0,9.0,26,0.00,,---,0.55,VWS V14.01,2013-02-02 21:49:00,
2013-02-02 16:50:00,57.3,23.6,29.65,SW,222,5.0,9.0,27,0.00,,---,0.55,VWS V14.01,2013-02-02 21:50:00,
2013-02-02 16:51:00,57.2,23.5,29.65,SSW,205,5.0,9.0,27,0.00,,---,0.55,VWS V14.01,2013-02-02 21:51:00,
2013-02-02 16:52:00,57.2,23.5,29.65,SW,223,8.0,9.0,27,0.00,,---,0.55,VWS V14.01,2013-02-02 21:52:00,
2013-02-02 16:53:00,57.2,23.5,29.65,SW,226,6.0,9.0,27,0.00,,---,0.55,VWS V14.01,2013-02-02 21:53:00,
2013-02-02 16:54:00,57.2,23.5,29.65,SW,229,6.0,9.0,27,0.00,,---,0.55,VWS V14.01,2013-02-02 21:54:00,
2013-02-02 16:55:00,57.2,23.5,29.65,SW,234,7.0,9.0,27,0.00,,---,0.55,VWS V14.01,2013-02-02 21:55:00,
2013-02-02 16:56:00,57.2,23.5,29.65,SW,221,1.0,9.0,27,0.00,,---,0.55,VWS V14.01,2013-02-02 21:56:00,
2013-02-02 16:57:00,57.1,23.5,29.65,SW,231,5.0,9.0,27,0.00,,---,0.55,VWS V14.01,2013-02-02 21:57:00,
2013-02-02 16:58:00,57.1,23.5,29.65,SW,230,2.0,9.0,27,0.00,,---,0.55,VWS V14.01,2013-02-02 21:58:00,
2013-02-02 16:59:00,57.1,23.5,29.65,WSW,242,4.0,9.0,27,0.00,,---,0.55,VWS V14.01,2013-02-02 21:59:00,
2013-02-02 17:00:00,57.0,23.4,29.65,WSW,242,4.0,9.0,27,0.00,,---,0.55,VWS V14.01,2013-02-02 22:00:00,
2013-02-02 17:01:00,57.0,23.4,29.65,WSW,242,1.0,4.0,27,0.00,,---,0.55,VWS V14.01,2013-02-02 22:01:00,
2013-02-02 17:02:00,56.9,24.1,29.65,WSW,242,1.0,4.0,28,0.00,,---,0.55,VWS V14.01,2013-02-02 22:02:00,
2013-02-02 17:03:00,56.9,24.1,29.65,WSW,242,1.0,4.0,28,0.00,,---,0.55,VWS V14.01,2013-02-02 22:03:00,
2013-02-02 17:04:00,56.9,24.1,29.65,WSW,242,2.0,4.0,28,0.00,,---,0.55,VWS V14.01,2013-02-02 22:04:00,
2013-02-02 17:05:00,56.9,24.1,29.65,SW,230,3.0,4.0,28,0.00,,---,0.55,VWS V14.01,2013-02-02 22:05:00,
2013-02-02 17:06:00,56.9,24.1,29.65,SW,230,2.0,5.0,28,0.00,,---,0.55,VWS V14.01,2013-02-02 22:06:00,
2013-02-02 17:07:00,56.9,24.1,29.65,SW,230,4.0,5.0,28,0.00,,---,0.55,VWS V14.01,2013-02-02 22:07:00,
2013-02-02 17:08:00,56.8,24.1,29.65,WSW,241,4.0,5.0,28,0.00,,---,0.55,VWS V14.01,2013-02-02 22:08:00,
2013-02-02 17:09:00,56.8,24.1,29.65,SW,232,5.0,5.0,28,0.00,,---,0.55,VWS V14.01,2013-02-02 22:09:00,
2013-02-02 17:10:00,56.8,24.1,29.65,SW,227,4.0,6.0,28,0.00,,---,0.55,VWS V14.01,2013-02-02 22:10:00,
2013-02-02 17:11:00,56.8,24.1,29.65,SW,236,5.0,6.0,28,0.00,,---,0.55,VWS V14.01,2013-02-02 22:11:00,
2013-02-02 17:12:00,56.8,24.1,29.65,WSW,237,5.0,6.0,28,0.00,,---,0.55,VWS V14.01,2013-02-02 22:12:00,
2013-02-02 17:13:00,56.8,24.1,29.65,SW,230,5.0,7.0,28,0.00,,---,0.55,VWS V14.01,2013-02-02 22:13:00,
2013-02-02 17:14:00,56.7,24.8,29.65,WSW,240,3.0,7.0,29,0.00,,---,0.55,VWS V14.01,2013-02-02 22:14:00,
2013-02-02 17:15:00,56.7,24.8,29.65,WSW,241,3.0,7.0,29,0.00,,---,0.55,VWS V14.01,2013-02-02 22:15:00,
2013-02-02 17:16:00,56.6,24.7,29.65,WSW,241,1.0,7.0,29,0.00,,---,0.55,VWS V14.01,2013-02-02 22:16:00,
2013-02-02 17:17:00,56.5,24.6,29.65,WSW,242,1.0,7.0,29,0.00,,---,0.55,VWS V14.01,2013-02-02 22:17:00,
2013-02-02 17:18:00,56.5,24.6,29.65,WSW,250,5.0,7.0,29,0.00,,---,0.55,VWS V14.01,2013-02-02 22:18:00,
2013-02-02 17:19:00,56.4,24.6,29.65,WSW,252,2.0,7.0,29,0.00,,---,0.55,VWS V14.01,2013-02-02 22:19:00,
2013-02-02 17:20:00,56.3,25.3,29.65,WSW,252,3.0,7.0,30,0.00,,---,0.55,VWS V14.01,2013-02-02 22:20:00,
2013-02-02 17:21:00,56.3,25.3,29.65,WSW,252,5.0,7.0,30,0.00,,---,0.55,VWS V14.01,2013-02-02 22:21:00,
2013-02-02 17:22:00,56.2,25.2,29.65,WSW,256,5.0,7.0,30,0.00,,---,0.55,VWS V14.01,2013-02-02 22:22:00,
2013-02-02 17:23:00,56.2,25.2,29.65,WSW,256,4.0,7.0,30,0.00,,---,0.55,VWS V14.01,2013-02-02 22:23:00,
2013-02-02 17:24:00,56.2,26.0,29.65,WSW,256,2.0,7.0,31,0.00,,---,0.55,VWS V14.01,2013-02-02 22:24:00,
2013-02-02 17:25:00,56.1,25.9,29.65,WSW,256,2.0,7.0,31,0.00,,---,0.56,VWS V14.01,2013-02-02 22:25:00,
2013-02-02 17:26:00,56.0,25.8,29.65,WSW,256,2.0,7.0,31,0.00,,---,0.56,VWS V14.01,2013-02-02 22:26:00,
2013-02-02 17:27:00,56.0,25.8,29.65,WSW,242,5.0,7.0,31,0.00,,---,0.56,VWS V14.01,2013-02-02 22:27:00,
2013-02-02 17:28:00,56.0,25.0,29.65,West,261,5.0,7.0,30,0.00,,---,0.56,VWS V14.01,2013-02-02 22:28:00,
2013-02-02 17:29:00,56.0,25.0,29.65,WSW,240,4.0,7.0,30,0.00,,---,0.56,VWS V14.01,2013-02-02 22:29:00,
2013-02-02 17:30:00,56.0,25.0,29.65,WSW,245,1.0,7.0,30,0.00,,---,0.56,VWS V14.01,2013-02-02 22:30:00,
2013-02-02 17:31:00,55.9,25.7,29.65,WSW,257,5.0,5.0,31,0.00,,---,0.56,VWS V14.01,2013-02-02 22:31:00,
2013-02-02 17:32:00,55.9,24.9,29.65,WSW,257,4.0,5.0,30,0.00,,---,0.56,VWS V14.01,2013-02-02 22:32:00,
2013-02-02 17:33:00,55.9,25.7,29.65,WSW,257,3.0,5.0,31,0.00,,---,0.56,VWS V14.01,2013-02-02 22:33:00,
2013-02-02 17:34:00,55.8,25.6,29.65,WSW,257,2.0,5.0,31,0.00,,---,0.56,VWS V14.01,2013-02-02 22:34:00,
2013-02-02 17:35:00,55.8,25.6,29.65,WSW,250,4.0,5.0,31,0.00,,---,0.56,VWS V14.01,2013-02-02 22:35:00,
2013-02-02 17:36:00,55.7,25.5,29.65,WSW,244,2.0,5.0,31,0.00,,---,0.56,VWS V14.01,2013-02-02 22:36:00,
2013-02-02 17:37:00,55.6,25.5,29.64,WSW,244,2.0,5.0,31,0.00,,---,0.56,VWS V14.01,2013-02-02 22:37:00,
2013-02-02 17:38:00,55.6,25.5,29.64,WSW,240,2.0,5.0,31,0.00,,---,0.56,VWS V14.01,2013-02-02 22:38:00,
2013-02-02 17:39:00,55.6,25.5,29.64,WSW,240,4.0,5.0,31,0.00,,---,0.56,VWS V14.01,2013-02-02 22:39:00,
2013-02-02 17:40:00,55.5,25.4,29.64,WSW,240,5.0,5.0,31,0.00,,---,0.56,VWS V14.01,2013-02-02 22:40:00,
2013-02-02 17:41:00,55.5,25.4,29.64,WSW,240,3.0,5.0,31,0.00,,---,0.56,VWS V14.01,2013-02-02 22:41:00,
2013-02-02 17:42:00,55.5,26.1,29.64,WSW,240,4.0,5.0,32,0.00,,---,0.56,VWS V14.01,2013-02-02 22:42:00,
2013-02-02 17:43:00,55.4,26.0,29.64,WSW,240,3.0,5.0,32,0.00,,---,0.56,VWS V14.01,2013-02-02 22:43:00,
2013-02-02 17:44:00,55.4,26.0,29.65,WSW,240,4.0,5.0,32,0.00,,---,0.56,VWS V14.01,2013-02-02 22:44:00,
2013-02-02 17:45:00,55.3,26.0,29.65,WSW,240,4.0,5.0,32,0.00,,---,0.56,VWS V14.01,2013-02-02 22:45:00,
2013-02-02 17:46:00,55.3,26.0,29.65,WSW,240,2.0,5.0,32,0.00,,---,0.56,VWS V14.01,2013-02-02 22:46:00,
2013-02-02 17:47:00,55.3,26.0,29.65,WSW,241,3.0,5.0,32,0.00,,---,0.56,VWS V14.01,2013-02-02 22:47:00,
2013-02-02 17:48:00,55.3,26.7,29.65,WSW,241,2.0,5.0,33,0.00,,---,0.56,VWS V14.01,2013-02-02 22:48:00,
2013-02-02 17:49:00,55.3,26.7,29.65,WSW,256,4.0,5.0,33,0.00,,---,0.56,VWS V14.01,2013-02-02 22:49:00,
2013-02-02 17:50:00,55.2,25.9,29.65,West,259,2.0,6.0,32,0.00,,---,0.56,VWS V14.01,2013-02-02 22:50:00,
2013-02-02 17:51:00,55.2,25.9,29.65,West,261,4.0,6.0,32,0.00,,---,0.56,VWS V14.01,2013-02-02 22:51:00,
2013-02-02 17:52:00,55.2,25.9,29.65,West,263,2.0,6.0,32,0.00,,---,0.56,VWS V14.01,2013-02-02 22:52:00,
2013-02-02 17:53:00,55.2,25.9,29.65,West,263,1.0,6.0,32,0.00,,---,0.56,VWS V14.01,2013-02-02 22:53:00,
2013-02-02 17:54:00,55.2,25.9,29.65,West,263,2.0,6.0,32,0.00,,---,0.56,VWS V14.01,2013-02-02 22:54:00,
2013-02-02 17:55:00,55.2,25.9,29.65,West,263,2.0,6.0,32,0.00,,---,0.56,VWS V14.01,2013-02-02 22:55:00,
2013-02-02 17:56:00,55.1,25.8,29.65,West,263,2.0,6.0,32,0.00,,---,0.56,VWS V14.01,2013-02-02 22:56:00,
2013-02-02 17:57:00,55.1,25.8,29.65,West,263,4.0,6.0,32,0.00,,---,0.56,VWS V14.01,2013-02-02 22:57:00,
2013-02-02 17:58:00,55.1,25.8,29.65,West,263,2.0,6.0,32,0.00,,---,0.56,VWS V14.01,2013-02-02 22:58:00,
2013-02-02 17:59:00,55.1,25.8,29.66,West,263,2.0,6.0,32,0.00,,---,0.56,VWS V14.01,2013-02-02 22:59:00,
2013-02-02 18:00:00,55.0,25.7,29.66,West,281,4.0,6.0,32,0.00,,---,0.56,VWS V14.01,2013-02-02 23:00:00,
2013-02-02 18:01:00,55.0,25.7,29.66,West,281,2.0,5.0,32,0.00,,---,0.56,VWS V14.01,2013-02-02 23:01:00,
2013-02-02 18:02:00,55.0,25.7,29.66,West,281,1.0,5.0,32,0.00,,---,0.56,VWS V14.01,2013-02-02 23:02:00,
2013-02-02 18:03:00,55.0,25.7,29.66,West,281,2.0,5.0,32,0.00,,---,0.56,VWS V14.01,2013-02-02 23:03:00,
2013-02-02 18:04:00,55.0,25.7,29.66,West,280,3.0,5.0,32,0.00,,---,0.56,VWS V14.01,2013-02-02 23:04:00,
2013-02-02 18:05:00,54.9,25.6,29.66,West,280,3.0,5.0,32,0.00,,---,0.56,VWS V14.01,2013-02-02 23:05:00,
2013-02-02 18:06:00,54.9,25.6,29.66,West,280,1.0,5.0,32,0.00,,---,0.56,VWS V14.01,2013-02-02 23:06:00,
2013-02-02 18:07:00,54.9,25.6,29.66,West,280,1.0,5.0,32,0.00,,---,0.56,VWS V14.01,2013-02-02 23:07:00,
2013-02-02 18:08:00,54.9,25.6,29.66,West,266,4.0,5.0,32,0.00,,---,0.56,VWS V14.01,2013-02-02 23:08:00,
2013-02-02 18:09:00,54.9,25.6,29.66,West,267,5.0,5.0,32,0.00,,---,0.56,VWS V14.01,2013-02-02 23:09:00,
2013-02-02 18:10:00,54.9,25.6,29.66,West,270,3.0,5.0,32,0.00,,---,0.56,VWS V14.01,2013-02-02 23:10:00,
2013-02-02 18:11:00,55.0,25.7,29.66,West,270,4.0,5.0,32,0.00,,---,0.56,VWS V14.01,2013-02-02 23:11:00,
2013-02-02 18:12:00,55.0,25.7,29.66,West,270,1.0,5.0,32,0.00,,---,0.56,VWS V14.01,2013-02-02 23:12:00,
2013-02-02 18:13:00,54.9,25.6,29.66,West,270,2.0,5.0,32,0.00,,---,0.56,VWS V14.01,2013-02-02 23:13:00,
2013-02-02 18:14:00,54.9,25.6,29.66,West,270,2.0,5.0,32,0.00,,---,0.56,VWS V14.01,2013-02-02 23:14:00,
2013-02-02 18:15:00,54.9,25.6,29.66,West,270,3.0,5.0,32,0.00,,---,0.56,VWS V14.01,2013-02-02 23:15:00,
2013-02-02 18:16:00,54.9,25.6,29.66,West,270,1.0,5.0,32,0.00,,---,0.56,VWS V14.01,2013-02-02 23:16:00,
2013-02-02 18:17:00,55.0,25.7,29.66,West,270,1.0,5.0,32,0.00,,---,0.56,VWS V14.01,2013-02-02 23:17:00,
2013-02-02 18:18:00,55.0,25.7,29.66,West,270,2.0,5.0,32,0.00,,---,0.56,VWS V14.01,2013-02-02 23:18:00,
2013-02-02 18:19:00,55.0,25.7,29.66,West,270,1.0,5.0,32,0.00,,---,0.56,VWS V14.01,2013-02-02 23:19:00,
2013-02-02 18:20:00,55.0,25.7,29.66,West,270,1.0,5.0,32,0.00,,---,0.56,VWS V14.01,2013-02-02 23:20:00,
2013-02-02 18:21:00,55.0,25.7,29.66,West,270,0.0,5.0,32,0.00,,---,0.56,VWS V14.01,2013-02-02 23:21:00,
2013-02-02 18:22:00,55.0,25.7,29.66,West,270,1.0,5.0,32,0.00,,---,0.56,VWS V14.01,2013-02-02 23:22:00,
2013-02-02 18:23:00,55.0,25.7,29.66,West,270,1.0,5.0,32,0.00,,---,0.56,VWS V14.01,2013-02-02 23:23:00,
2013-02-02 18:24:00,54.9,25.6,29.66,West,270,1.0,5.0,32,0.00,,---,0.56,VWS V14.01,2013-02-02 23:24:00,
2013-02-02 18:25:00,54.9,25.6,29.67,West,270,1.0,5.0,32,0.00,,---,0.56,VWS V14.01,2013-02-02 23:25:00,
2013-02-02 18:26:00,54.9,25.6,29.67,West,270,1.0,5.0,32,0.00,,---,0.56,VWS V14.01,2013-02-02 23:26:00,
2013-02-02 18:27:00,54.8,27.0,29.67,West,270,2.0,5.0,34,0.00,,---,0.57,VWS V14.01,2013-02-02 23:27:00,
2013-02-02 18:28:00,54.7,27.6,29.67,West,270,1.0,5.0,35,0.00,,---,0.57,VWS V14.01,2013-02-02 23:28:00,
2013-02-02 18:29:00,54.6,27.5,29.67,West,270,1.0,5.0,35,0.00,,---,0.57,VWS V14.01,2013-02-02 23:29:00,
2013-02-02 18:30:00,54.5,27.4,29.67,West,270,1.0,5.0,35,0.00,,---,0.57,VWS V14.01,2013-02-02 23:30:00,
2013-02-02 18:31:00,54.4,27.3,29.67,West,270,1.0,2.0,35,0.00,,---,0.57,VWS V14.01,2013-02-02 23:31:00,
2013-02-02 18:32:00,54.4,27.3,29.67,West,270,2.0,2.0,35,0.00,,---,0.57,VWS V14.01,2013-02-02 23:32:00,
2013-02-02 18:33:00,54.4,26.6,29.67,West,270,1.0,2.0,34,0.00,,---,0.57,VWS V14.01,2013-02-02 23:33:00,
2013-02-02 18:34:00,54.4,26.6,29.67,West,270,1.0,3.0,34,0.00,,---,0.57,VWS V14.01,2013-02-02 23:34:00,
2013-02-02 18:35:00,54.4,26.6,29.67,West,270,1.0,3.0,34,0.00,,---,0.57,VWS V14.01,2013-02-02 23:35:00,
2013-02-02 18:36:00,54.4,26.6,29.67,West,270,0.0,3.0,34,0.00,,---,0.57,VWS V14.01,2013-02-02 23:36:00,
2013-02-02 18:37:00,54.4,26.6,29.67,West,270,0.0,3.0,34,0.00,,---,0.57,VWS V14.01,2013-02-02 23:37:00,
2013-02-02 18:38:00,54.5,26.7,29.67,West,270,0.0,3.0,34,0.00,,---,0.57,VWS V14.01,2013-02-02 23:38:00,
2013-02-02 18:39:00,54.4,26.6,29.67,West,270,1.0,3.0,34,0.00,,---,0.57,VWS V14.01,2013-02-02 23:39:00,
2013-02-02 18:40:00,54.4,25.9,29.67,West,270,0.0,3.0,33,0.00,,---,0.57,VWS V14.01,2013-02-02 23:40:00,
2013-02-02 18:41:00,54.4,25.9,29.67,West,270,2.0,3.0,33,0.00,,---,0.57,VWS V14.01,2013-02-02 23:41:00,
2013-02-02 18:42:00,54.4,25.9,29.66,West,270,0.0,3.0,33,0.00,,---,0.57,VWS V14.01,2013-02-02 23:42:00,
2013-02-02 18:43:00,54.4,26.6,29.66,West,270,1.0,3.0,34,0.00,,---,0.57,VWS V14.01,2013-02-02 23:43:00,
2013-02-02 18:44:00,54.4,25.9,29.66,West,270,1.0,3.0,33,0.00,,---,0.57,VWS V14.01,2013-02-02 23:44:00,
2013-02-02 18:45:00,54.4,25.9,29.66,West,270,1.0,3.0,33,0.00,,---,0.57,VWS V14.01,2013-02-02 23:45:00,
2013-02-02 18:46:00,54.4,25.9,29.66,West,270,1.0,3.0,33,0.00,,---,0.57,VWS V14.01,2013-02-02 23:46:00,
2013-02-02 18:47:00,54.4,26.6,29.67,West,270,1.0,3.0,34,0.00,,---,0.57,VWS V14.01,2013-02-02 23:47:00,
2013-02-02 18:48:00,54.4,26.6,29.66,West,270,1.0,3.0,34,0.00,,---,0.57,VWS V14.01,2013-02-02 23:48:00,
2013-02-02 18:49:00,54.4,26.6,29.66,West,270,0.0,3.0,34,0.00,,---,0.57,VWS V14.01,2013-02-02 23:49:00,
2013-02-02 18:50:00,54.4,26.6,29.66,West,270,0.0,3.0,34,0.00,,---,0.57,VWS V14.01,2013-02-02 23:50:00,
2013-02-02 18:51:00,54.4,26.6,29.66,West,270,2.0,3.0,34,0.00,,---,0.57,VWS V14.01,2013-02-02 23:51:00,
2013-02-02 18:52:00,54.4,26.6,29.66,West,270,0.0,3.0,34,0.00,,---,0.57,VWS V14.01,2013-02-02 23:52:00,
2013-02-02 18:53:00,54.4,26.6,29.66,West,270,0.0,3.0,34,0.00,,---,0.57,VWS V14.01,2013-02-02 23:53:00,
2013-02-02 18:54:00,54.4,26.6,29.66,West,270,0.0,3.0,34,0.00,,---,0.57,VWS V14.01,2013-02-02 23:54:00,
2013-02-02 18:55:00,54.4,25.9,29.66,West,270,0.0,3.0,33,0.00,,---,0.57,VWS V14.01,2013-02-02 23:55:00,
2013-02-02 18:56:00,54.4,25.9,29.66,West,270,0.0,3.0,33,0.00,,---,0.57,VWS V14.01,2013-02-02 23:56:00,
2013-02-02 18:57:00,54.4,25.9,29.66,West,270,0.0,3.0,33,0.00,,---,0.57,VWS V14.01,2013-02-02 23:57:00,
2013-02-02 18:58:00,54.4,25.9,29.66,West,270,0.0,3.0,33,0.00,,---,0.57,VWS V14.01,2013-02-02 23:58:00,
2013-02-02 18:59:00,54.4,27.3,29.66,West,270,1.0,3.0,35,0.00,,---,0.57,VWS V14.01,2013-02-02 23:59:00,
2013-02-02 19:00:00,54.3,27.2,29.66,West,270,2.0,3.0,35,0.00,,---,0.57,VWS V14.01,2013-02-03 00:00:00,
2013-02-02 19:01:00,54.2,27.9,29.66,West,270,1.0,4.0,36,0.00,,---,0.57,VWS V14.01,2013-02-03 00:01:00,
2013-02-02 19:02:00,54.1,27.8,29.66,West,270,0.0,4.0,36,0.00,,---,0.57,VWS V14.01,2013-02-03 00:02:00,
2013-02-02 19:03:00,53.9,28.2,29.66,West,270,0.0,4.0,37,0.00,,---,0.57,VWS V14.01,2013-02-03 00:03:00,
2013-02-02 19:04:00,53.9,27.6,29.65,West,270,0.0,4.0,36,0.00,,---,0.57,VWS V14.01,2013-02-03 00:04:00,
2013-02-02 19:05:00,53.9,27.6,29.65,West,270,0.0,4.0,36,0.00,,---,0.57,VWS V14.01,2013-02-03 00:05:00,
2013-02-02 19:06:00,53.9,27.6,29.65,West,270,0.0,4.0,36,0.00,,---,0.57,VWS V14.01,2013-02-03 00:06:00,
2013-02-02 19:07:00,53.9,27.6,29.65,West,270,0.0,4.0,36,0.00,,---,0.57,VWS V14.01,2013-02-03 00:07:00,
2013-02-02 19:08:00,53.9,27.6,29.65,West,270,0.0,4.0,36,0.00,,---,0.57,VWS V14.01,2013-02-03 00:08:00,
2013-02-02 19:09:00,54.0,27.7,29.65,West,270,0.0,4.0,36,0.00,,---,0.57,VWS V14.01,2013-02-03 00:09:00,
2013-02-02 19:10:00,54.0,27.7,29.66,West,270,0.0,4.0,36,0.00,,---,0.57,VWS V14.01,2013-02-03 00:10:00,
2013-02-02 19:11:00,54.0,27.7,29.66,West,270,0.0,4.0,36,0.00,,---,0.57,VWS V14.01,2013-02-03 00:11:00,
2013-02-02 19:12:00,54.0,27.7,29.66,West,270,0.0,4.0,36,0.00,,---,0.57,VWS V14.01,2013-02-03 00:12:00,
2013-02-02 19:13:00,54.0,27.0,29.66,West,270,0.0,4.0,35,0.00,,---,0.57,VWS V14.01,2013-02-03 00:13:00,
2013-02-02 19:14:00,54.1,27.1,29.66,West,270,1.0,4.0,35,0.00,,---,0.57,VWS V14.01,2013-02-03 00:14:00,
2013-02-02 19:15:00,54.1,27.1,29.66,West,270,1.0,4.0,35,0.00,,---,0.57,VWS V14.01,2013-02-03 00:15:00,
2013-02-02 19:16:00,54.1,27.1,29.66,West,270,2.0,4.0,35,0.00,,---,0.57,VWS V14.01,2013-02-03 00:16:00,
2013-02-02 19:17:00,54.0,27.0,29.66,West,270,2.0,4.0,35,0.00,,---,0.57,VWS V14.01,2013-02-03 00:17:00,
2013-02-02 19:18:00,54.1,27.1,29.66,West,270,2.0,4.0,35,0.00,,---,0.57,VWS V14.01,2013-02-03 00:18:00,
2013-02-02 19:19:00,54.1,27.1,29.67,West,270,4.0,4.0,35,0.00,,---,0.57,VWS V14.01,2013-02-03 00:19:00,
2013-02-02 19:20:00,54.1,26.4,29.67,West,270,2.0,4.0,34,0.00,,---,0.57,VWS V14.01,2013-02-03 00:20:00,
2013-02-02 19:21:00,54.1,26.4,29.67,West,270,2.0,4.0,34,0.00,,---,0.57,VWS V14.01,2013-02-03 00:21:00,
2013-02-02 19:22:00,54.1,26.4,29.66,West,270,2.0,4.0,34,0.00,,---,0.57,VWS V14.01,2013-02-03 00:22:00,
2013-02-02 19:23:00,54.1,26.4,29.67,West,270,2.0,4.0,34,0.00,,---,0.57,VWS V14.01,2013-02-03 00:23:00,
2013-02-02 19:24:00,54.0,27.0,29.67,West,270,0.0,4.0,35,0.00,,---,0.57,VWS V14.01,2013-02-03 00:24:00,
2013-02-02 19:25:00,54.0,27.0,29.67,West,270,2.0,4.0,35,0.00,,---,0.57,VWS V14.01,2013-02-03 00:25:00,
2013-02-02 19:26:00,53.9,26.2,29.67,West,270,1.0,4.0,34,0.00,,---,0.57,VWS V14.01,2013-02-03 00:26:00,
2013-02-02 19:27:00,54.0,26.3,29.67,West,270,0.0,4.0,34,0.00,,---,0.57,VWS V14.01,2013-02-03 00:27:00,
2013-02-02 19:28:00,54.0,26.3,29.67,West,270,0.0,4.0,34,0.00,,---,0.57,VWS V14.01,2013-02-03 00:28:00,
2013-02-02 19:29:00,54.0,26.3,29.67,West,270,0.0,4.0,34,0.00,,---,0.57,VWS V14.01,2013-02-03 00:29:00,
2013-02-02 19:30:00,54.0,26.3,29.67,West,270,0.0,4.0,34,0.00,,---,0.57,VWS V14.01,2013-02-03 00:30:00,
2013-02-02 19:31:00,54.0,26.3,29.67,West,270,1.0,1.0,34,0.00,,---,0.57,VWS V14.01,2013-02-03 00:31:00,
2013-02-02 19:32:00,54.0,26.3,29.67,West,270,2.0,3.0,34,0.00,,---,0.57,VWS V14.01,2013-02-03 00:32:00,
2013-02-02 19:33:00,54.0,26.3,29.67,West,270,1.0,3.0,34,0.00,,---,0.58,VWS V14.01,2013-02-03 00:33:00,
2013-02-02 19:34:00,53.9,26.2,29.67,West,270,1.0,3.0,34,0.00,,---,0.58,VWS V14.01,2013-02-03 00:34:00,
2013-02-02 19:35:00,53.9,27.6,29.67,West,270,0.0,3.0,36,0.00,,---,0.58,VWS V14.01,2013-02-03 00:35:00,
2013-02-02 19:36:00,53.7,26.7,29.67,West,270,0.0,3.0,35,0.00,,---,0.58,VWS V14.01,2013-02-03 00:36:00,
2013-02-02 19:37:00,53.6,27.3,29.67,West,270,0.0,3.0,36,0.00,,---,0.58,VWS V14.01,2013-02-03 00:37:00,
2013-02-02 19:38:00,53.5,27.2,29.67,West,270,0.0,3.0,36,0.00,,---,0.58,VWS V14.01,2013-02-03 00:38:00,
2013-02-02 19:39:00,53.5,26.5,29.67,West,270,0.0,3.0,35,0.00,,---,0.58,VWS V14.01,2013-02-03 00:39:00,
2013-02-02 19:40:00,53.5,26.5,29.67,West,270,0.0,3.0,35,0.00,,---,0.58,VWS V14.01,2013-02-03 00:40:00,
2013-02-02 19:41:00,53.5,26.5,29.67,West,270,0.0,3.0,35,0.00,,---,0.58,VWS V14.01,2013-02-03 00:41:00,
2013-02-02 19:42:00,53.5,27.2,29.67,West,270,0.0,3.0,36,0.00,,---,0.58,VWS V14.01,2013-02-03 00:42:00,
2013-02-02 19:43:00,53.4,27.8,29.67,West,270,0.0,3.0,37,0.00,,---,0.58,VWS V14.01,2013-02-03 00:43:00,
2013-02-02 19:44:00,53.3,27.0,29.67,West,274,9.0,9.0,36,0.00,,---,0.58,VWS V14.01,2013-02-03 00:44:00,
2013-02-02 19:45:00,53.3,26.4,29.68,WSW,249,6.0,9.0,35,0.00,,---,0.58,VWS V14.01,2013-02-03 00:45:00,
2013-02-02 19:46:00,53.4,29.7,29.68,NNW,329,7.0,22.0,40,0.00,,---,0.58,VWS V14.01,2013-02-03 00:46:00,
2013-02-02 19:47:00,53.5,31.0,29.68,NNW,348,1.0,22.0,42,0.00,,---,0.58,VWS V14.01,2013-02-03 00:47:00,
2013-02-02 19:48:00,53.7,31.2,29.67,WSW,254,11.0,22.0,42,0.00,,---,0.58,VWS V14.01,2013-02-03 00:48:00,
2013-02-02 19:49:00,54.0,32.0,29.67,NE,38,5.0,22.0,43,0.00,,---,0.58,VWS V14.01,2013-02-03 00:49:00,
2013-02-02 19:50:00,54.2,31.0,29.67,North,5,5.0,22.0,41,0.00,,---,0.58,VWS V14.01,2013-02-03 00:50:00,
2013-02-02 19:51:00,54.4,31.2,29.67,NNW,329,9.0,22.0,41,0.00,,---,0.58,VWS V14.01,2013-02-03 00:51:00,
2013-02-02 19:52:00,54.4,31.2,29.67,North,355,5.0,22.0,41,0.00,,---,0.58,VWS V14.01,2013-02-03 00:52:00,
2013-02-02 19:53:00,54.5,31.3,29.67,West,275,7.0,22.0,41,0.00,,---,0.58,VWS V14.01,2013-02-03 00:53:00,
2013-02-02 19:54:00,54.5,31.3,29.68,WNW,290,4.0,22.0,41,0.00,,---,0.58,VWS V14.01,2013-02-03 00:54:00,
2013-02-02 19:55:00,54.6,31.4,29.67,West,261,6.0,22.0,41,0.00,,---,0.58,VWS V14.01,2013-02-03 00:55:00,
2013-02-02 19:56:00,54.7,30.9,29.67,NW,311,8.0,22.0,40,0.00,,---,0.58,VWS V14.01,2013-02-03 00:56:00,
2013-02-02 19:57:00,54.8,30.3,29.67,NW,317,6.0,22.0,39,0.00,,---,0.58,VWS V14.01,2013-02-03 00:57:00,
2013-02-02 19:58:00,54.9,30.4,29.67,NNW,336,2.0,22.0,39,0.00,,---,0.58,VWS V14.01,2013-02-03 00:58:00,
2013-02-02 19:59:00,55.0,30.5,29.67,NW,313,2.0,22.0,39,0.00,,---,0.58,VWS V14.01,2013-02-03 00:59:00,
2013-02-02 20:00:00,55.0,31.1,29.68,WNW,290,6.0,22.0,40,0.00,,---,0.58,VWS V14.01,2013-02-03 01:00:00,
2013-02-02 20:01:00,55.1,30.6,29.68,West,277,7.0,8.0,39,0.00,,---,0.58,VWS V14.01,2013-02-03 01:01:00,
2013-02-02 20:02:00,55.1,31.2,29.67,WNW,284,4.0,8.0,40,0.00,,---,0.58,VWS V14.01,2013-02-03 01:02:00,
2013-02-02 20:03:00,55.1,31.2,29.68,NW,311,5.0,8.0,40,0.00,,---,0.58,VWS V14.01,2013-02-03 01:03:00,
2013-02-02 20:04:00,55.1,31.2,29.68,WNW,300,5.0,8.0,40,0.00,,---,0.58,VWS V14.01,2013-02-03 01:04:00,
2013-02-02 20:05:00,55.1,31.2,29.68,NW,309,1.0,8.0,40,0.00,,---,0.58,VWS V14.01,2013-02-03 01:05:00,
2013-02-02 20:06:00,55.0,31.1,29.68,NW,319,9.0,9.0,40,0.00,,---,0.58,VWS V14.01,2013-02-03 01:06:00,
2013-02-02 20:07:00,55.0,30.5,29.68,NW,312,0.0,9.0,39,0.00,,---,0.58,VWS V14.01,2013-02-03 01:07:00,
2013-02-02 20:08:00,55.0,31.1,29.68,WNW,285,5.0,9.0,40,0.00,,---,0.58,VWS V14.01,2013-02-03 01:08:00,
2013-02-02 20:09:00,55.0,31.1,29.68,West,278,5.0,9.0,40,0.00,,---,0.58,VWS V14.01,2013-02-03 01:09:00,
2013-02-02 20:10:00,55.0,31.1,29.68,NNW,336,7.0,9.0,40,0.00,,---,0.58,VWS V14.01,2013-02-03 01:10:00,
2013-02-02 20:11:00,54.9,30.4,29.68,NW,325,6.0,10.0,39,0.00,,---,0.58,VWS V14.01,2013-02-03 01:11:00,
2013-02-02 20:12:00,54.9,31.0,29.69,NW,325,5.0,10.0,40,0.00,,---,0.58,VWS V14.01,2013-02-03 01:12:00,
2013-02-02 20:13:00,54.9,32.3,29.68,NW,317,6.0,12.0,42,0.00,,---,0.58,VWS V14.01,2013-02-03 01:13:00,
2013-02-02 20:14:00,54.9,32.8,29.69,NW,311,8.0,12.0,43,0.00,,---,0.58,VWS V14.01,2013-02-03 01:14:00,
2013-02-02 20:15:00,54.9,32.8,29.69,WSW,245,8.0,13.0,43,0.00,,---,0.58,VWS V14.01,2013-02-03 01:15:00,
2013-02-02 20:16:00,54.9,33.4,29.69,NNW,338,6.0,13.0,44,0.00,,---,0.58,VWS V14.01,2013-02-03 01:16:00,
2013-02-02 20:17:00,54.9,34.0,29.69,North,355,5.0,13.0,45,0.00,,---,0.58,VWS V14.01,2013-02-03 01:17:00,
2013-02-02 20:18:00,54.8,34.4,29.69,NW,314,4.0,13.0,46,0.00,,---,0.58,VWS V14.01,2013-02-03 01:18:00,
2013-02-02 20:19:00,54.8,35.5,29.69,NW,315,9.0,13.0,48,0.00,,---,0.58,VWS V14.01,2013-02-03 01:19:00,
2013-02-02 20:20:00,54.7,35.9,29.69,NW,307,4.0,13.0,49,0.00,,---,0.58,VWS V14.01,2013-02-03 01:20:00,
2013-02-02 20:21:00,54.6,35.8,29.69,NW,325,2.0,13.0,49,0.00,,---,0.58,VWS V14.01,2013-02-03 01:21:00,
2013-02-02 20:22:00,54.6,36.3,29.69,NW,308,4.0,13.0,50,0.00,,---,0.58,VWS V14.01,2013-02-03 01:22:00,
2013-02-02 20:23:00,54.5,36.3,29.69,WNW,292,9.0,13.0,50,0.00,,---,0.58,VWS V14.01,2013-02-03 01:23:00,
2013-02-02 20:24:00,54.4,36.7,29.69,NW,315,5.0,13.0,51,0.00,,---,0.58,VWS V14.01,2013-02-03 01:24:00,
2013-02-02 20:25:00,54.4,37.2,29.68,West,279,8.0,13.0,52,0.00,,---,0.58,VWS V14.01,2013-02-03 01:25:00,
2013-02-02 20:26:00,54.3,37.1,29.68,NW,323,7.0,13.0,52,0.00,,---,0.58,VWS V14.01,2013-02-03 01:26:00,
2013-02-02 20:27:00,54.2,37.0,29.68,WNW,297,7.0,13.0,52,0.00,,---,0.58,VWS V14.01,2013-02-03 01:27:00,
2013-02-02 20:28:00,54.1,37.4,29.68,NNW,329,4.0,13.0,53,0.00,,---,0.58,VWS V14.01,2013-02-03 01:28:00,
2013-02-02 20:29:00,54.0,37.3,29.68,South,182,2.0,13.0,53,0.00,,---,0.58,VWS V14.01,2013-02-03 01:29:00,
2013-02-02 20:30:00,54.0,37.3,29.68,West,261,5.0,13.0,53,0.00,,---,0.58,VWS V14.01,2013-02-03 01:30:00,
2013-02-02 20:31:00,54.0,37.8,29.68,NNW,348,7.0,7.0,54,0.00,,---,0.58,VWS V14.01,2013-02-03 01:31:00,
2013-02-02 20:32:00,53.9,37.7,29.68,NNW,342,7.0,10.0,54,0.00,,---,0.58,VWS V14.01,2013-02-03 01:32:00,
2013-02-02 20:33:00,53.9,37.7,29.68,NNE,13,4.0,10.0,54,0.00,,---,0.58,VWS V14.01,2013-02-03 01:33:00,
2013-02-02 20:34:00,53.8,38.0,29.68,North,355,3.0,10.0,55,0.00,,---,0.58,VWS V14.01,2013-02-03 01:34:00,
2013-02-02 20:35:00,53.8,38.0,29.68,NW,318,8.0,10.0,55,0.00,,---,0.58,VWS V14.01,2013-02-03 01:35:00,
2013-02-02 20:36:00,53.7,37.9,29.68,NNW,331,2.0,10.0,55,0.00,,---,0.58,VWS V14.01,2013-02-03 01:36:00,
2013-02-02 20:37:00,53.7,37.9,29.68,NW,315,4.0,10.0,55,0.00,,---,0.58,VWS V14.01,2013-02-03 01:37:00,
2013-02-02 20:38:00,53.6,37.8,29.68,NW,315,1.0,10.0,55,0.00,,---,0.58,VWS V14.01,2013-02-03 01:38:00,
2013-02-02 20:39:00,53.6,37.8,29.68,NNW,329,1.0,10.0,55,0.00,,---,0.58,VWS V14.01,2013-02-03 01:39:00,
2013-02-02 20:40:00,53.6,37.8,29.68,NW,305,4.0,10.0,55,0.00,,---,0.58,VWS V14.01,2013-02-03 01:40:00,
2013-02-02 20:41:00,53.6,37.8,29.68,NW,313,6.0,10.0,55,0.00,,---,0.58,VWS V14.01,2013-02-03 01:41:00,
2013-02-02 20:42:00,53.6,37.8,29.68,WNW,290,4.0,10.0,55,0.00,,---,0.58,VWS V14.01,2013-02-03 01:42:00,
2013-02-02 20:43:00,53.7,37.9,29.68,WSW,255,3.0,10.0,55,0.00,,---,0.58,VWS V14.01,2013-02-03 01:43:00,
2013-02-02 20:44:00,53.6,38.3,29.68,WSW,257,2.0,10.0,56,0.00,,---,0.58,VWS V14.01,2013-02-03 01:44:00,
2013-02-02 20:45:00,53.7,37.9,29.68,NNW,327,3.0,10.0,55,0.00,,---,0.58,VWS V14.01,2013-02-03 01:45:00,
2013-02-02 20:46:00,53.7,37.9,29.68,NW,309,6.0,10.0,55,0.00,,---,0.58,VWS V14.01,2013-02-03 01:46:00,
2013-02-02 20:47:00,53.7,37.9,29.68,WNW,302,2.0,10.0,55,0.00,,---,0.58,VWS V14.01,2013-02-03 01:47:00,
2013-02-02 20:48:00,53.7,37.9,29.68,WNW,300,1.0,10.0,55,0.00,,---,0.58,VWS V14.01,2013-02-03 01:48:00,
2013-02-02 20:49:00,53.6,37.8,29.68,NW,323,1.0,10.0,55,0.00,,---,0.58,VWS V14.01,2013-02-03 01:49:00,
2013-02-02 20:50:00,53.7,37.9,29.68,NW,326,4.0,10.0,55,0.00,,---,0.58,VWS V14.01,2013-02-03 01:50:00,
2013-02-02 20:51:00,53.7,37.9,29.68,NNW,328,0.0,10.0,55,0.00,,---,0.58,VWS V14.01,2013-02-03 01:51:00,
2013-02-02 20:52:00,53.6,38.3,29.68,NNW,327,0.0,10.0,56,0.00,,---,0.58,VWS V14.01,2013-02-03 01:52:00,
2013-02-02 20:53:00,53.6,38.3,29.68,NW,326,0.0,10.0,56,0.00,,---,0.58,VWS V14.01,2013-02-03 01:53:00,
2013-02-02 20:54:00,53.5,38.2,29.67,North,350,0.0,10.0,56,0.00,,---,0.58,VWS V14.01,2013-02-03 01:54:00,
2013-02-02 20:55:00,53.5,38.7,29.67,NNE,32,0.0,10.0,57,0.00,,---,0.58,VWS V14.01,2013-02-03 01:55:00,
2013-02-02 20:56:00,53.5,38.7,29.67,NNW,344,4.0,10.0,57,0.00,,---,0.58,VWS V14.01,2013-02-03 01:56:00,
2013-02-02 20:57:00,53.5,38.7,29.67,NW,320,2.0,10.0,57,0.00,,---,0.58,VWS V14.01,2013-02-03 01:57:00,
2013-02-02 20:58:00,53.4,38.6,29.68,North,350,6.0,10.0,57,0.00,,---,0.58,VWS V14.01,2013-02-03 01:58:00,
2013-02-02 20:59:00,53.4,38.6,29.68,NW,324,2.0,10.0,57,0.00,,---,0.58,VWS V14.01,2013-02-03 01:59:00,
2013-02-02 21:00:00,53.3,38.5,29.68,NNW,338,1.0,10.0,57,0.00,,---,0.58,VWS V14.01,2013-02-03 02:00:00,
2013-02-02 21:01:00,53.3,38.9,29.67,NNW,338,2.0,2.0,58,0.00,,---,0.58,VWS V14.01,2013-02-03 02:01:00,
2013-02-02 21:02:00,53.2,38.8,29.67,NNW,338,1.0,2.0,58,0.00,,---,0.58,VWS V14.01,2013-02-03 02:02:00,
2013-02-02 21:03:00,53.1,38.7,29.67,NW,311,2.0,2.0,58,0.00,,---,0.58,VWS V14.01,2013-02-03 02:03:00,
2013-02-02 21:04:00,53.1,38.7,29.67,NW,311,0.0,2.0,58,0.00,,---,0.58,VWS V14.01,2013-02-03 02:04:00,
2013-02-02 21:05:00,53.0,38.6,29.67,NW,311,1.0,2.0,58,0.00,,---,0.58,VWS V14.01,2013-02-03 02:05:00,
2013-02-02 21:06:00,53.0,39.1,29.67,NNW,340,6.0,8.0,59,0.00,,---,0.58,VWS V14.01,2013-02-03 02:06:00,
2013-02-02 21:07:00,53.0,39.1,29.67,WNW,288,0.0,8.0,59,0.00,,---,0.58,VWS V14.01,2013-02-03 02:07:00,
2013-02-02 21:08:00,52.9,39.0,29.67,WNW,288,0.0,8.0,59,0.00,,---,0.58,VWS V14.01,2013-02-03 02:08:00,
2013-02-02 21:09:00,52.9,39.0,29.67,WNW,288,2.0,8.0,59,0.00,,---,0.58,VWS V14.01,2013-02-03 02:09:00,
2013-02-02 21:10:00,52.8,38.9,29.67,WNW,296,5.0,8.0,59,0.00,,---,0.58,VWS V14.01,2013-02-03 02:10:00,
2013-02-02 21:11:00,52.8,38.9,29.67,NNW,329,1.0,8.0,59,0.00,,---,0.58,VWS V14.01,2013-02-03 02:11:00,
2013-02-02 21:12:00,52.8,38.9,29.67,North,355,2.0,8.0,59,0.00,,---,0.59,VWS V14.01,2013-02-03 02:12:00,
2013-02-02 21:13:00,52.8,38.9,29.67,NW,320,1.0,8.0,59,0.00,,---,0.59,VWS V14.01,2013-02-03 02:13:00,
2013-02-02 21:14:00,52.7,38.8,29.67,North,355,2.0,8.0,59,0.00,,---,0.59,VWS V14.01,2013-02-03 02:14:00,
2013-02-02 21:15:00,52.7,39.2,29.67,North,350,2.0,8.0,60,0.00,,---,0.59,VWS V14.01,2013-02-03 02:15:00,
2013-02-02 21:16:00,52.7,39.2,29.67,NW,320,1.0,8.0,60,0.00,,---,0.59,VWS V14.01,2013-02-03 02:16:00,
2013-02-02 21:17:00,52.7,39.2,29.67,NW,320,2.0,8.0,60,0.00,,---,0.59,VWS V14.01,2013-02-03 02:17:00,
2013-02-02 21:18:00,52.7,39.6,29.68,NNW,340,2.0,8.0,61,0.00,,---,0.59,VWS V14.01,2013-02-03 02:18:00,
2013-02-02 21:19:00,52.6,39.5,29.68,NNW,347,1.0,8.0,61,0.00,,---,0.59,VWS V14.01,2013-02-03 02:19:00,
2013-02-02 21:20:00,52.6,39.5,29.68,NNW,341,4.0,8.0,61,0.00,,---,0.59,VWS V14.01,2013-02-03 02:20:00,
2013-02-02 21:21:00,52.6,39.5,29.68,North,350,4.0,8.0,61,0.00,,---,0.59,VWS V14.01,2013-02-03 02:21:00,
2013-02-02 21:22:00,52.6,39.5,29.68,NNW,328,1.0,8.0,61,0.00,,---,0.59,VWS V14.01,2013-02-03 02:22:00,
2013-02-02 21:23:00,52.5,39.5,29.68,NW,315,5.0,8.0,61,0.00,,---,0.59,VWS V14.01,2013-02-03 02:23:00,
2013-02-02 21:24:00,52.5,39.9,29.68,North,5,2.0,8.0,62,0.00,,---,0.59,VWS V14.01,2013-02-03 02:24:00,
2013-02-02 21:25:00,52.4,39.8,29.68,NNW,344,2.0,8.0,62,0.00,,---,0.59,VWS V14.01,2013-02-03 02:25:00,
2013-02-02 21:26:00,52.4,39.8,29.67,NNW,344,1.0,8.0,62,0.00,,---,0.59,VWS V14.01,2013-02-03 02:26:00,
2013-02-02 21:27:00,52.3,40.1,29.67,NNW,342,3.0,8.0,63,0.00,,---,0.59,VWS V14.01,2013-02-03 02:27:00,
2013-02-02 21:28:00,52.2,40.0,29.67,NNW,327,4.0,8.0,63,0.00,,---,0.59,VWS V14.01,2013-02-03 02:28:00,
2013-02-02 21:29:00,52.2,40.4,29.67,NW,322,5.0,8.0,64,0.00,,---,0.59,VWS V14.01,2013-02-03 02:29:00,
2013-02-02 21:30:00,52.1,40.3,29.67,NNW,333,2.0,8.0,64,0.00,,---,0.59,VWS V14.01,2013-02-03 02:30:00,
2013-02-02 21:31:00,52.0,40.6,29.67,NNW,333,1.0,2.0,65,0.00,,---,0.59,VWS V14.01,2013-02-03 02:31:00,
2013-02-02 21:32:00,51.9,40.5,29.67,NNW,333,1.0,2.0,65,0.00,,---,0.59,VWS V14.01,2013-02-03 02:32:00,
2013-02-02 21:33:00,51.8,40.8,29.67,NNW,341,4.0,5.0,66,0.00,,---,0.59,VWS V14.01,2013-02-03 02:33:00,
2013-02-02 21:34:00,51.7,40.7,29.67,NNW,342,1.0,5.0,66,0.00,,---,0.59,VWS V14.01,2013-02-03 02:34:00,
2013-02-02 21:35:00,51.5,40.9,29.67,NNW,342,1.0,5.0,67,0.00,,---,0.59,VWS V14.01,2013-02-03 02:35:00,
2013-02-02 21:36:00,51.4,41.2,29.67,NNW,342,2.0,5.0,68,0.00,,---,0.59,VWS V14.01,2013-02-03 02:36:00,
2013-02-02 21:37:00,51.3,41.1,29.67,NW,320,4.0,5.0,68,0.00,,---,0.59,VWS V14.01,2013-02-03 02:37:00,
2013-02-02 21:38:00,51.2,41.0,29.66,NW,319,2.0,5.0,68,0.00,,---,0.59,VWS V14.01,2013-02-03 02:38:00,
2013-02-02 21:39:00,51.1,41.3,29.67,NW,319,1.0,5.0,69,0.00,,---,0.59,VWS V14.01,2013-02-03 02:39:00,
2013-02-02 21:40:00,51.0,41.2,29.67,NW,321,2.0,5.0,69,0.00,,---,0.59,VWS V14.01,2013-02-03 02:40:00,
2013-02-02 21:41:00,50.9,41.1,29.66,NW,313,3.0,5.0,69,0.00,,---,0.59,VWS V14.01,2013-02-03 02:41:00,
2013-02-02 21:42:00,50.8,41.4,29.67,NW,313,1.0,5.0,70,0.00,,---,0.59,VWS V14.01,2013-02-03 02:42:00,
2013-02-02 21:43:00,50.7,41.3,29.66,NW,313,1.0,5.0,70,0.00,,---,0.59,VWS V14.01,2013-02-03 02:43:00,
2013-02-02 21:44:00,50.6,41.2,29.66,NW,313,1.0,5.0,70,0.00,,---,0.59,VWS V14.01,2013-02-03 02:44:00,
2013-02-02 21:45:00,50.5,41.1,29.66,NW,313,0.0,5.0,70,0.00,,---,0.59,VWS V14.01,2013-02-03 02:45:00,
2013-02-02 21:46:00,50.4,41.0,29.66,NW,313,0.0,5.0,70,0.00,,---,0.59,VWS V14.01,2013-02-03 02:46:00,
2013-02-02 21:47:00,50.4,41.0,29.66,NW,313,0.0,5.0,70,0.00,,---,0.59,VWS V14.01,2013-02-03 02:47:00,
2013-02-02 21:48:00,50.3,41.3,29.66,NW,313,1.0,5.0,71,0.00,,---,0.59,VWS V14.01,2013-02-03 02:48:00,
2013-02-02 21:49:00,50.3,41.3,29.66,NW,313,0.0,5.0,71,0.00,,---,0.59,VWS V14.01,2013-02-03 02:49:00,
2013-02-02 21:50:00,50.2,41.2,29.66,NW,313,1.0,5.0,71,0.00,,---,0.59,VWS V14.01,2013-02-03 02:50:00,
2013-02-02 21:51:00,50.1,41.1,29.66,NW,313,1.0,5.0,71,0.00,,---,0.59,VWS V14.01,2013-02-03 02:51:00,
2013-02-02 21:52:00,50.1,41.1,29.66,NW,313,2.0,5.0,71,0.00,,---,0.59,VWS V14.01,2013-02-03 02:52:00,
2013-02-02 21:53:00,50.1,41.4,29.66,NW,313,2.0,5.0,72,0.00,,---,0.59,VWS V14.01,2013-02-03 02:53:00,
2013-02-02 21:54:00,50.1,41.4,29.66,NW,313,2.0,5.0,72,0.00,,---,0.59,VWS V14.01,2013-02-03 02:54:00,
2013-02-02 21:55:00,50.0,41.3,29.66,NW,313,1.0,5.0,72,0.00,,---,0.59,VWS V14.01,2013-02-03 02:55:00,
2013-02-02 21:56:00,50.0,41.3,29.66,NW,313,1.0,5.0,72,0.00,,---,0.59,VWS V14.01,2013-02-03 02:56:00,
2013-02-02 21:57:00,49.9,41.2,29.66,NW,313,1.0,5.0,72,0.00,,---,0.59,VWS V14.01,2013-02-03 02:57:00,
2013-02-02 21:58:00,49.9,41.2,29.66,NW,313,1.0,5.0,72,0.00,,---,0.59,VWS V14.01,2013-02-03 02:58:00,
2013-02-02 21:59:00,49.9,41.2,29.65,NW,313,2.0,5.0,72,0.00,,---,0.59,VWS V14.01,2013-02-03 02:59:00,
2013-02-02 22:00:00,49.9,41.2,29.65,NW,313,1.0,5.0,72,0.00,,---,0.59,VWS V14.01,2013-02-03 03:00:00,
2013-02-02 22:01:00,49.9,41.2,29.65,NW,313,1.0,1.0,72,0.00,,---,0.59,VWS V14.01,2013-02-03 03:01:00,
2013-02-02 22:02:00,49.9,41.2,29.65,NW,313,1.0,1.0,72,0.00,,---,0.59,VWS V14.01,2013-02-03 03:02:00,
2013-02-02 22:03:00,49.7,41.4,29.66,NW,313,1.0,2.0,73,0.00,,---,0.59,VWS V14.01,2013-02-03 03:03:00,
2013-02-02 22:04:00,49.7,41.4,29.66,NW,313,0.0,2.0,73,0.00,,---,0.59,VWS V14.01,2013-02-03 03:04:00,
2013-02-02 22:05:00,49.7,41.0,29.66,NW,313,1.0,2.0,72,0.00,,---,0.59,VWS V14.01,2013-02-03 03:05:00,
2013-02-02 22:06:00,49.8,41.2,29.66,NW,313,1.0,2.0,72,0.00,,---,0.59,VWS V14.01,2013-02-03 03:06:00,
2013-02-02 22:07:00,49.8,41.2,29.65,NW,313,1.0,2.0,72,0.00,,---,0.59,VWS V14.01,2013-02-03 03:07:00,
2013-02-02 22:08:00,49.8,41.2,29.65,NW,313,0.0,2.0,72,0.00,,---,0.59,VWS V14.01,2013-02-03 03:08:00,
2013-02-02 22:09:00,49.8,41.2,29.65,NW,313,0.0,2.0,72,0.00,,---,0.59,VWS V14.01,2013-02-03 03:09:00,
2013-02-02 22:10:00,49.8,41.2,29.65,NW,313,1.0,2.0,72,0.00,,---,0.59,VWS V14.01,2013-02-03 03:10:00,
2013-02-02 22:11:00,49.8,40.8,29.65,NW,313,0.0,2.0,71,0.00,,---,0.59,VWS V14.01,2013-02-03 03:11:00,
2013-02-02 22:12:00,49.8,41.2,29.65,NW,313,0.0,2.0,72,0.00,,---,0.59,VWS V14.01,2013-02-03 03:12:00,
2013-02-02 22:13:00,49.8,40.8,29.65,NW,313,1.0,2.0,71,0.00,,---,0.59,VWS V14.01,2013-02-03 03:13:00,
2013-02-02 22:14:00,49.8,40.8,29.65,NW,313,2.0,2.0,71,0.00,,---,0.59,VWS V14.01,2013-02-03 03:14:00,
2013-02-02 22:15:00,49.8,40.8,29.65,NW,313,1.0,2.0,71,0.00,,---,0.59,VWS V14.01,2013-02-03 03:15:00,
2013-02-02 22:16:00,49.8,40.8,29.65,NW,313,0.0,2.0,71,0.00,,---,0.59,VWS V14.01,2013-02-03 03:16:00,
2013-02-02 22:17:00,49.8,40.8,29.65,NW,313,2.0,3.0,71,0.00,,---,0.59,VWS V14.01,2013-02-03 03:17:00,
2013-02-02 22:18:00,49.8,40.8,29.65,NW,313,1.0,3.0,71,0.00,,---,0.59,VWS V14.01,2013-02-03 03:18:00,
2013-02-02 22:19:00,49.8,40.8,29.65,NW,313,1.0,3.0,71,0.00,,---,0.59,VWS V14.01,2013-02-03 03:19:00,
2013-02-02 22:20:00,49.8,40.8,29.65,NW,313,2.0,3.0,71,0.00,,---,0.59,VWS V14.01,2013-02-03 03:20:00,
2013-02-02 22:21:00,49.9,40.9,29.65,NW,313,1.0,4.0,71,0.00,,---,0.59,VWS V14.01,2013-02-03 03:21:00,
2013-02-02 22:22:00,49.9,40.9,29.65,NW,313,1.0,4.0,71,0.00,,---,0.59,VWS V14.01,2013-02-03 03:22:00,
2013-02-02 22:23:00,49.9,40.9,29.65,NW,313,1.0,4.0,71,0.00,,---,0.59,VWS V14.01,2013-02-03 03:23:00,
2013-02-02 22:24:00,49.8,40.8,29.65,NW,313,1.0,4.0,71,0.00,,---,0.59,VWS V14.01,2013-02-03 03:24:00,
2013-02-02 22:25:00,49.9,40.9,29.65,NW,313,1.0,4.0,71,0.00,,---,0.59,VWS V14.01,2013-02-03 03:25:00,
2013-02-02 22:26:00,49.8,40.8,29.65,NW,313,2.0,4.0,71,0.00,,---,0.59,VWS V14.01,2013-02-03 03:26:00,
2013-02-02 22:27:00,49.8,40.8,29.65,NW,313,1.0,4.0,71,0.00,,---,0.59,VWS V14.01,2013-02-03 03:27:00,
2013-02-02 22:28:00,49.8,40.8,29.65,NW,313,2.0,4.0,71,0.00,,---,0.59,VWS V14.01,2013-02-03 03:28:00,
2013-02-02 22:29:00,49.9,40.9,29.65,West,274,3.0,4.0,71,0.00,,---,0.59,VWS V14.01,2013-02-03 03:29:00,
2013-02-02 22:30:00,49.8,40.8,29.65,West,271,2.0,4.0,71,0.00,,---,0.59,VWS V14.01,2013-02-03 03:30:00,
2013-02-02 22:31:00,49.9,40.9,29.65,WSW,248,2.0,4.0,71,0.00,,---,0.59,VWS V14.01,2013-02-03 03:31:00,
2013-02-02 22:32:00,49.8,40.8,29.65,WSW,249,4.0,4.0,71,0.00,,---,0.59,VWS V14.01,2013-02-03 03:32:00,
2013-02-02 22:33:00,49.8,40.8,29.65,WSW,252,2.0,4.0,71,0.00,,---,0.59,VWS V14.01,2013-02-03 03:33:00,
2013-02-02 22:34:00,49.8,40.8,29.65,WSW,252,4.0,4.0,71,0.00,,---,0.59,VWS V14.01,2013-02-03 03:34:00,
2013-02-02 22:35:00,49.8,40.8,29.65,WSW,252,2.0,4.0,71,0.00,,---,0.59,VWS V14.01,2013-02-03 03:35:00,
2013-02-02 22:36:00,49.8,40.8,29.65,WSW,252,2.0,4.0,71,0.00,,---,0.59,VWS V14.01,2013-02-03 03:36:00,
2013-02-02 22:37:00,49.8,40.8,29.65,WSW,252,2.0,4.0,71,0.00,,---,0.59,VWS V14.01,2013-02-03 03:37:00,
2013-02-02 22:38:00,49.8,40.8,29.65,WSW,252,1.0,4.0,71,0.00,,---,0.59,VWS V14.01,2013-02-03 03:38:00,
2013-02-02 22:39:00,49.8,40.8,29.65,WSW,252,2.0,4.0,71,0.00,,---,0.59,VWS V14.01,2013-02-03 03:39:00,
2013-02-02 22:40:00,49.7,40.7,29.65,WSW,258,4.0,4.0,71,0.00,,---,0.59,VWS V14.01,2013-02-03 03:40:00,
2013-02-02 22:41:00,49.8,40.8,29.65,West,265,5.0,5.0,71,0.00,,---,0.59,VWS V14.01,2013-02-03 03:41:00,
2013-02-02 22:42:00,49.8,40.8,29.65,West,265,4.0,5.0,71,0.00,,---,0.59,VWS V14.01,2013-02-03 03:42:00,
2013-02-02 22:43:00,49.8,40.8,29.65,West,265,3.0,5.0,71,0.00,,---,0.59,VWS V14.01,2013-02-03 03:43:00,
2013-02-02 22:44:00,49.8,40.8,29.65,West,278,2.0,5.0,71,0.00,,---,0.59,VWS V14.01,2013-02-03 03:44:00,
2013-02-02 22:45:00,49.7,40.7,29.65,West,278,1.0,5.0,71,0.00,,---,0.59,VWS V14.01,2013-02-03 03:45:00,
2013-02-02 22:46:00,49.7,40.7,29.65,West,278,2.0,5.0,71,0.00,,---,0.59,VWS V14.01,2013-02-03 03:46:00,
2013-02-02 22:47:00,49.7,40.7,29.65,West,278,3.0,5.0,71,0.00,,---,0.59,VWS V14.01,2013-02-03 03:47:00,
2013-02-02 22:48:00,49.7,40.7,29.65,West,278,1.0,5.0,71,0.00,,---,0.59,VWS V14.01,2013-02-03 03:48:00,
2013-02-02 22:49:00,49.7,40.7,29.65,West,279,2.0,5.0,71,0.00,,---,0.59,VWS V14.01,2013-02-03 03:49:00,
2013-02-02 22:50:00,49.7,40.7,29.65,West,280,4.0,5.0,71,0.00,,---,0.59,VWS V14.01,2013-02-03 03:50:00,
2013-02-02 22:51:00,49.7,40.7,29.65,WNW,286,5.0,5.0,71,0.00,,---,0.59,VWS V14.01,2013-02-03 03:51:00,
2013-02-02 22:52:00,49.7,40.7,29.65,WNW,288,4.0,5.0,71,0.00,,---,0.59,VWS V14.01,2013-02-03 03:52:00,
2013-02-02 22:53:00,49.7,40.7,29.65,WNW,300,4.0,5.0,71,0.00,,---,0.59,VWS V14.01,2013-02-03 03:53:00,
2013-02-02 22:54:00,49.7,40.7,29.65,WNW,296,3.0,5.0,71,0.00,,---,0.59,VWS V14.01,2013-02-03 03:54:00,
2013-02-02 22:55:00,49.7,40.7,29.65,WNW,296,2.0,5.0,71,0.00,,---,0.59,VWS V14.01,2013-02-03 03:55:00,
2013-02-02 22:56:00,49.7,40.7,29.65,WNW,290,2.0,5.0,71,0.00,,---,0.59,VWS V14.01,2013-02-03 03:56:00,
2013-02-02 22:57:00,49.6,40.6,29.65,WNW,286,2.0,5.0,71,0.00,,---,0.59,VWS V14.01,2013-02-03 03:57:00,
2013-02-02 22:58:00,49.6,40.6,29.65,West,280,2.0,5.0,71,0.00,,---,0.59,VWS V14.01,2013-02-03 03:58:00,
2013-02-02 22:59:00,49.6,40.6,29.65,West,280,2.0,5.0,71,0.00,,---,0.59,VWS V14.01,2013-02-03 03:59:00,
2013-02-02 23:00:00,49.5,40.5,29.65,West,280,2.0,5.0,71,0.00,,---,0.59,VWS V14.01,2013-02-03 04:00:00,
2013-02-02 23:01:00,49.5,40.5,29.65,WNW,284,1.0,5.0,71,0.00,,---,0.59,VWS V14.01,2013-02-03 04:01:00,
2013-02-02 23:02:00,49.5,40.9,29.65,WNW,294,4.0,5.0,72,0.00,,---,0.59,VWS V14.01,2013-02-03 04:02:00,
2013-02-02 23:03:00,49.4,40.8,29.65,WNW,294,2.0,5.0,72,0.00,,---,0.59,VWS V14.01,2013-02-03 04:03:00,
2013-02-02 23:04:00,49.4,40.8,29.65,WNW,293,4.0,5.0,72,0.00,,---,0.59,VWS V14.01,2013-02-03 04:04:00,
2013-02-02 23:05:00,49.3,40.7,29.65,WNW,293,2.0,5.0,72,0.00,,---,0.59,VWS V14.01,2013-02-03 04:05:00,
2013-02-02 23:06:00,49.3,40.7,29.65,WNW,293,1.0,5.0,72,0.00,,---,0.60,VWS V14.01,2013-02-03 04:06:00,
2013-02-02 23:07:00,49.2,40.6,29.65,WNW,293,2.0,5.0,72,0.00,,---,0.60,VWS V14.01,2013-02-03 04:07:00,
2013-02-02 23:08:00,49.2,40.6,29.65,NW,307,3.0,5.0,72,0.00,,---,0.60,VWS V14.01,2013-02-03 04:08:00,
2013-02-02 23:09:00,49.2,40.6,29.65,NW,310,2.0,5.0,72,0.00,,---,0.60,VWS V14.01,2013-02-03 04:09:00,
2013-02-02 23:10:00,49.2,40.6,29.65,NW,309,2.0,5.0,72,0.00,,---,0.60,VWS V14.01,2013-02-03 04:10:00,
2013-02-02 23:11:00,49.2,40.6,29.65,NW,309,1.0,5.0,72,0.00,,---,0.60,VWS V14.01,2013-02-03 04:11:00,
2013-02-02 23:12:00,49.2,40.9,29.65,NW,309,1.0,5.0,73,0.00,,---,0.60,VWS V14.01,2013-02-03 04:12:00,
2013-02-02 23:13:00,49.2,40.9,29.65,NW,309,1.0,5.0,73,0.00,,---,0.60,VWS V14.01,2013-02-03 04:13:00,
2013-02-02 23:14:00,49.1,40.8,29.65,NW,311,1.0,5.0,73,0.00,,---,0.60,VWS V14.01,2013-02-03 04:14:00,
2013-02-02 23:15:00,49.1,40.8,29.65,NW,311,4.0,5.0,73,0.00,,---,0.60,VWS V14.01,2013-02-03 04:15:00,
2013-02-02 23:16:00,49.1,40.8,29.65,NW,309,3.0,5.0,73,0.00,,---,0.60,VWS V14.01,2013-02-03 04:16:00,
2013-02-02 23:17:00,49.2,40.9,29.65,NW,309,2.0,5.0,73,0.00,,---,0.60,VWS V14.01,2013-02-03 04:17:00,
2013-02-02 23:18:00,49.2,40.9,29.65,NW,309,0.0,5.0,73,0.00,,---,0.60,VWS V14.01,2013-02-03 04:18:00,
2013-02-02 23:19:00,49.2,40.9,29.65,NW,309,1.0,5.0,73,0.00,,---,0.60,VWS V14.01,2013-02-03 04:19:00,
2013-02-02 23:20:00,49.2,40.9,29.65,NW,309,2.0,5.0,73,0.00,,---,0.60,VWS V14.01,2013-02-03 04:20:00,
2013-02-02 23:21:00,49.2,40.9,29.65,NW,309,0.0,5.0,73,0.00,,---,0.60,VWS V14.01,2013-02-03 04:21:00,
2013-02-02 23:22:00,49.2,40.9,29.65,NW,309,1.0,5.0,73,0.00,,---,0.60,VWS V14.01,2013-02-03 04:22:00,
2013-02-02 23:23:00,49.2,40.9,29.65,NW,309,2.0,5.0,73,0.00,,---,0.60,VWS V14.01,2013-02-03 04:23:00,
2013-02-02 23:24:00,49.2,40.9,29.65,NW,313,2.0,5.0,73,0.00,,---,0.60,VWS V14.01,2013-02-03 04:24:00,
2013-02-02 23:25:00,49.2,40.9,29.65,NW,321,2.0,5.0,73,0.00,,---,0.60,VWS V14.01,2013-02-03 04:25:00,
2013-02-02 23:26:00,49.2,40.9,29.65,NW,322,0.0,5.0,73,0.00,,---,0.60,VWS V14.01,2013-02-03 04:26:00,
2013-02-02 23:27:00,49.2,40.9,29.65,NW,322,1.0,5.0,73,0.00,,---,0.60,VWS V14.01,2013-02-03 04:27:00,
2013-02-02 23:28:00,49.2,40.9,29.65,NW,304,1.0,6.0,73,0.00,,---,0.60,VWS V14.01,2013-02-03 04:28:00,
2013-02-02 23:29:00,49.2,40.9,29.64,NW,304,2.0,6.0,73,0.00,,---,0.60,VWS V14.01,2013-02-03 04:29:00,
2013-02-02 23:30:00,49.2,40.9,29.64,NW,304,1.0,6.0,73,0.00,,---,0.60,VWS V14.01,2013-02-03 04:30:00,
2013-02-02 23:31:00,49.2,40.9,29.65,NW,315,5.0,5.0,73,0.00,,---,0.60,VWS V14.01,2013-02-03 04:31:00,
2013-02-02 23:32:00,49.3,41.0,29.64,NW,310,1.0,6.0,73,0.00,,---,0.60,VWS V14.01,2013-02-03 04:32:00,
2013-02-02 23:33:00,49.3,41.0,29.65,NW,310,0.0,6.0,73,0.00,,---,0.60,VWS V14.01,2013-02-03 04:33:00,
2013-02-02 23:34:00,49.3,41.0,29.64,NNW,329,0.0,6.0,73,0.00,,---,0.60,VWS V14.01,2013-02-03 04:34:00,
2013-02-02 23:35:00,49.3,41.0,29.64,NNW,329,0.0,6.0,73,0.00,,---,0.60,VWS V14.01,2013-02-03 04:35:00,
2013-02-02 23:36:00,49.3,41.0,29.64,NW,312,1.0,6.0,73,0.00,,---,0.60,VWS V14.01,2013-02-03 04:36:00,
2013-02-02 23:37:00,49.3,41.0,29.64,NW,309,1.0,6.0,73,0.00,,---,0.60,VWS V14.01,2013-02-03 04:37:00,
2013-02-02 23:38:00,49.3,41.0,29.64,NW,309,0.0,6.0,73,0.00,,---,0.60,VWS V14.01,2013-02-03 04:38:00,
2013-02-02 23:39:00,49.3,41.0,29.64,NNW,328,2.0,6.0,73,0.00,,---,0.60,VWS V14.01,2013-02-03 04:39:00,
2013-02-02 23:40:00,49.3,41.0,29.64,NW,323,2.0,6.0,73,0.00,,---,0.60,VWS V14.01,2013-02-03 04:40:00,
2013-02-02 23:41:00,49.4,41.1,29.64,NW,319,1.0,6.0,73,0.00,,---,0.60,VWS V14.01,2013-02-03 04:41:00,
2013-02-02 23:42:00,49.4,41.1,29.64,NW,319,0.0,6.0,73,0.00,,---,0.60,VWS V14.01,2013-02-03 04:42:00,
2013-02-02 23:43:00,49.4,41.1,29.64,NW,319,2.0,6.0,73,0.00,,---,0.60,VWS V14.01,2013-02-03 04:43:00,
2013-02-02 23:44:00,49.4,41.1,29.64,NW,314,1.0,6.0,73,0.00,,---,0.60,VWS V14.01,2013-02-03 04:44:00,
2013-02-02 23:45:00,49.4,41.1,29.64,West,260,2.0,6.0,73,0.00,,---,0.60,VWS V14.01,2013-02-03 04:45:00,
2013-02-02 23:46:00,49.4,41.1,29.64,West,279,3.0,6.0,73,0.00,,---,0.60,VWS V14.01,2013-02-03 04:46:00,
2013-02-02 23:47:00,49.4,41.1,29.64,NNW,341,2.0,6.0,73,0.00,,---,0.60,VWS V14.01,2013-02-03 04:47:00,
2013-02-02 23:48:00,49.4,41.1,29.64,NW,318,1.0,6.0,73,0.00,,---,0.60,VWS V14.01,2013-02-03 04:48:00,
2013-02-02 23:49:00,49.5,41.2,29.64,NW,304,3.0,6.0,73,0.00,,---,0.60,VWS V14.01,2013-02-03 04:49:00,
2013-02-02 23:50:00,49.5,41.2,29.64,WNW,302,2.0,6.0,73,0.00,,---,0.60,VWS V14.01,2013-02-03 04:50:00,
2013-02-02 23:51:00,49.5,41.2,29.64,WNW,300,2.0,6.0,73,0.00,,---,0.60,VWS V14.01,2013-02-03 04:51:00,
2013-02-02 23:52:00,49.5,41.2,29.64,NW,314,4.0,6.0,73,0.00,,---,0.60,VWS V14.01,2013-02-03 04:52:00,
2013-02-02 23:53:00,49.5,41.2,29.64,WNW,297,4.0,6.0,73,0.00,,---,0.60,VWS V14.01,2013-02-03 04:53:00,
2013-02-02 23:54:00,49.5,41.2,29.64,WNW,285,0.0,6.0,73,0.00,,---,0.60,VWS V14.01,2013-02-03 04:54:00,
2013-02-02 23:55:00,49.5,41.6,29.64,NNW,346,1.0,6.0,74,0.00,,---,0.60,VWS V14.01,2013-02-03 04:55:00,
2013-02-02 23:56:00,49.5,41.2,29.64,NNW,327,1.0,6.0,73,0.00,,---,0.60,VWS V14.01,2013-02-03 04:56:00,
2013-02-02 23:57:00,49.5,41.2,29.64,WNW,302,5.0,6.0,73,0.00,,---,0.60,VWS V14.01,2013-02-03 04:57:00,
2013-02-02 23:58:00,49.5,41.2,29.64,WNW,302,1.0,6.0,73,0.00,,---,0.60,VWS V14.01,2013-02-03 04:58:00,
2013-02-02 23:59:00,49.5,41.6,29.64,NW,325,2.0,6.0,74,0.00,,---,0.60,VWS V14.01,2013-02-03 04:59:00,